[[{"header":{"parameterUnit":"m.s-1","parameterCategory":1,"la1":30.6,"la2":29.2853,"lo1":-89.7004,"lo2":-87.6739,"dy":0.0162,"dx":0.0183,"nx":112,"ny":82,"refTime":"2024-06-06T06:00:00:Z","depth":0,"parameterNumber":2,"parameterNumberName":"U-component_of_WINDS"},"data":[0.0,0.0,0.0,0.0,0.0,0.0,0.0,0.0,0.0,0.0,0.0,0.0,0.0,0.0,0.0,0.0,0.0,0.0,0.0,0.0,0.0,0.0,0.0,0.0,0.0,0.0,0.0,0.0,0.0,0.0,0.0,0.0,0.0,0.0,0.0,0.0,0.0,0.0,0.0,0.0,0.0,0.0,0.0,0.0,0.0,0.0,0.0,0.0,0.0,0.0,0.0,0.0,0.0,0.0,0.0,0.0,0.0,0.0,0.0,0.0,0.0,0.0,0.0,0.0,0.0,0.0,0.0,0.0,0.0,0.0,0.0,0.0,0.0,0.0,0.0,0.0,0.0,0.0,0.0,0.0,0.0,0.0,0.0,0.0,0.0,0.0,0.0,0.0,0.0,0.0,0.0,0.9475,1.0899,1.1811,1.1811,1.2958,1.2651,1.0302,0.0,0.0,0.0,0.0,0.0,0.0,0.0,0.0,0.0,0.0,0.0,0.0,0.0,0.0,0.0,0.0,0.0,0.0,0.0,0.0,0.0,0.0,0.0,0.0,0.0,0.0,0.0,0.0,0.0,0.0,0.0,0.0,0.0,0.0,0.0,0.0,0.0,0.0,0.0,0.0,0.0,0.0,0.0,0.0,0.0,0.0,0.0,0.0,0.0,0.0,0.0,0.0,0.0,0.0,0.0,0.0,0.0,0.0,0.0,0.0,0.0,0.0,0.0,0.0,0.0,0.0,0.0,0.0,0.0,0.0,0.0,0.0,0.0,0.0,0.0,0.0,0.0,0.0,0.0,0.0,0.0,0.0,0.0,0.0,0.0,0.0,0.0,0.0,0.0,0.0,0.0,0.0,0.0,0.0,0.0,0.0,0.0,0.0,0.0,0.0,0.0,0.0,0.0,0.0,0.9427,1.0532,1.1346,1.1811,1.1811,1.2297,1.1868,1.0058,0.0,0.0,0.0,0.0,0.0,0.0,0.0,0.0,0.0,0.0,0.0,0.0,0.0,0.0,0.0,0.0,0.0,0.0,0.0,0.0,0.0,0.0,0.0,0.0,0.0,0.0,0.0,0.0,0.0,0.0,0.0,0.0,0.0,0.0,0.0,0.0,0.0,0.0,0.0,0.0,0.0,0.0,0.0,0.0,0.0,0.0,0.0,0.0,0.0,0.0,0.0,0.0,0.0,0.0,0.0,0.0,0.0,0.0,0.0,0.0,0.0,0.0,0.0,0.0,0.0,0.0,0.0,0.0,0.0,0.0,0.0,0.0,0.0,0.0,0.0,0.0,0.0,0.0,0.0,0.0,0.0,0.0,0.0,0.0,0.0,0.0,0.0,0.0,0.0,0.0,0.0,0.0,0.0,0.0,0.0,0.0,0.0,0.0,0.0,0.0,0.0,0.0,0.0,0.9261,1.0061,1.1271,1.1845,1.2174,1.2174,1.2572,1.1983,1.0018,1.0496,0.0,0.0,0.0,0.0,0.0,0.0,0.0,0.0,0.0,0.0,0.0,0.0,0.0,0.0,0.0,0.0,0.0,0.0,0.0,0.0,0.0,0.0,0.0,0.0,0.0,0.0,0.0,0.0,0.0,0.0,0.0,0.0,0.0,0.0,0.0,0.0,0.0,0.0,0.0,0.0,0.0,0.0,0.0,0.0,0.0,0.0,0.0,0.0,0.0,0.0,0.0,0.0,0.0,0.0,0.0,0.0,0.0,0.0,0.0,0.0,0.0,0.0,0.0,0.0,0.0,0.0,0.0,0.0,0.0,0.0,0.0,0.0,0.0,0.0,0.0,0.0,0.0,0.0,0.0,0.0,0.0,0.0,0.0,0.0,0.0,0.0,0.0,0.0,0.0,0.0,0.0,0.0,0.0,0.0,0.0,0.0,0.0,0.0,0.0,0.0,0.0,0.0,1.0108,1.065,1.1845,1.2282,1.2508,1.2508,1.2709,1.2002,1.0018,1.0099,0.0,0.0,0.0,0.0,0.0,0.0,0.0,0.0,0.0,0.0,0.0,0.0,0.0,0.0,0.0,0.0,0.0,0.0,0.0,0.0,0.0,0.0,0.0,0.0,0.0,0.0,0.0,0.0,0.0,0.0,0.0,0.0,0.0,0.0,0.0,0.0,0.0,0.0,0.0,0.0,0.0,0.0,0.0,0.0,0.0,0.0,0.0,0.0,0.0,0.0,0.0,0.0,0.0,0.0,0.0,0.0,0.0,0.0,0.0,0.0,0.0,0.0,0.0,0.0,0.0,0.0,0.0,0.0,0.0,0.0,0.0,0.0,0.0,0.0,0.0,0.0,0.0,0.0,0.0,0.0,0.0,0.0,0.0,0.0,0.0,0.0,0.0,0.0,0.0,0.0,0.0,0.0,0.0,0.0,0.0,0.0,0.0,0.0,0.0,0.0,0.0,0.0,1.0406,1.1175,1.2319,1.2461,1.2508,1.2508,1.2021,1.1186,0.9981,0.9346,0.0,0.0,0.0,0.0,0.0,0.0,0.0,0.0,0.0,0.0,0.0,0.0,0.0,0.0,0.0,0.0,0.0,0.0,0.0,0.0,0.0,0.0,0.0,0.0,0.0,0.0,0.0,0.0,0.0,0.0,0.0,0.0,0.0,0.0,0.0,0.0,0.0,0.0,0.0,0.0,0.0,0.0,0.0,0.0,0.0,0.0,0.0,0.0,0.0,0.0,0.0,0.0,0.0,0.0,0.0,0.0,0.0,0.0,0.0,0.0,0.0,0.0,0.0,0.0,0.0,0.0,0.0,0.0,0.0,0.0,0.0,0.0,0.0,0.0,0.0,0.0,0.0,0.0,0.0,0.0,0.0,0.0,0.0,0.0,0.0,0.0,0.0,0.0,0.0,0.0,0.0,0.0,0.0,0.0,0.0,0.0,0.0,0.0,0.0,0.0,0.0,0.0,1.0463,1.1314,0.0,1.2943,1.2943,1.2943,1.2431,1.1475,0.9993,0.0,0.0,0.0,0.0,0.0,0.0,0.0,0.0,0.0,0.0,0.0,0.0,0.0,0.0,0.0,0.0,0.0,0.0,0.0,0.0,0.0,0.0,0.0,0.0,0.0,0.0,0.0,0.0,0.0,0.0,0.0,0.0,0.0,0.0,0.0,0.0,0.0,0.0,0.0,0.0,0.0,0.0,0.0,0.0,0.0,0.0,0.0,0.0,0.0,0.0,0.0,0.0,0.0,0.0,0.0,0.0,0.0,0.0,0.0,0.0,0.0,0.0,0.0,0.0,0.0,0.0,0.0,0.0,0.0,0.0,0.0,0.0,0.0,0.0,0.0,0.0,0.0,0.0,0.0,0.0,0.0,0.0,0.0,0.0,0.0,0.0,0.0,0.0,0.0,0.0,0.0,0.0,0.0,0.0,0.0,0.0,0.0,0.0,0.0,0.0,0.0,0.0,1.004,1.0738,1.164,0.0,1.3198,1.3198,1.3198,1.2371,1.1341,1.0084,0.0,0.0,0.0,0.0,0.0,0.0,0.0,0.0,0.0,0.0,0.0,0.0,0.0,0.0,0.0,0.0,0.0,0.0,0.0,0.0,0.0,0.0,0.0,0.0,0.0,0.0,0.0,0.0,0.0,0.0,0.0,0.0,0.0,0.0,0.0,0.0,0.0,0.0,0.0,0.0,0.0,0.0,0.0,0.0,0.0,0.0,0.0,0.0,0.0,0.0,0.0,0.0,0.0,0.0,0.0,0.0,0.0,0.0,0.0,0.0,0.0,0.0,0.0,0.0,0.0,0.0,0.0,0.0,0.0,0.0,0.0,0.0,0.0,0.0,0.0,0.0,0.0,0.0,0.0,0.0,0.0,0.0,0.0,0.0,0.0,0.0,0.0,0.0,0.0,0.0,0.0,0.0,0.0,0.0,0.0,0.0,0.0,0.0,0.0,0.0,0.0,0.0,1.0117,1.1251,1.2321,1.3107,1.3198,1.3198,1.3198,1.167,1.0564,0.0,0.0,0.0,0.0,0.0,0.0,0.0,0.0,0.0,0.0,0.0,0.0,0.0,0.0,0.0,0.0,0.0,0.0,0.0,0.0,0.0,0.0,0.0,0.0,0.0,0.0,0.0,0.0,0.0,0.0,0.0,0.0,0.0,0.0,0.0,0.0,0.0,0.0,0.0,0.0,0.0,0.0,0.0,0.0,0.0,0.0,0.0,0.0,0.0,0.0,0.0,0.0,0.0,0.0,0.0,0.0,0.0,0.0,0.0,0.0,0.0,0.0,0.0,0.0,0.0,0.0,0.0,0.0,0.0,0.0,0.0,0.0,0.0,0.0,0.0,0.0,0.0,0.0,0.0,0.0,0.0,0.0,0.0,0.0,0.0,0.0,0.0,0.0,0.0,0.0,0.0,0.0,0.0,0.0,0.0,0.0,0.0,0.0,0.0,0.0,0.0,0.0,0.0,1.0778,1.1562,1.2442,1.3585,1.3682,1.3547,1.3232,1.2533,1.1549,1.0275,0.0,0.0,0.0,0.0,0.0,0.0,0.0,0.0,0.0,0.0,0.0,0.0,0.0,0.0,0.0,0.0,0.0,0.0,0.0,0.0,0.0,0.0,0.0,0.0,0.0,0.0,0.0,0.0,0.0,0.0,0.0,0.0,0.0,0.0,0.0,0.0,0.0,0.0,0.0,0.0,0.0,0.0,0.0,0.0,0.0,0.0,0.0,0.0,0.0,0.0,0.0,0.0,0.0,0.0,0.0,0.0,0.0,0.0,0.0,0.0,0.0,0.0,0.0,0.0,0.0,0.0,0.0,0.0,0.0,0.0,0.0,0.0,0.0,0.0,0.0,0.0,0.0,0.0,0.0,0.0,0.0,0.0,0.0,0.0,0.0,0.0,0.0,0.0,0.0,0.0,0.0,0.0,0.0,0.0,0.0,0.0,0.0,0.0,0.0,0.0,0.0,0.0,1.1096,1.2166,1.316,1.4055,1.4,1.3802,1.348,1.283,1.1845,1.0452,0.0,0.0,0.0,0.0,0.0,0.0,0.0,0.0,0.0,0.0,0.0,0.0,0.0,0.0,0.0,0.0,0.0,0.0,0.0,0.0,0.0,0.0,0.0,0.0,0.0,0.0,0.0,0.0,0.0,0.0,0.0,0.0,0.0,0.0,0.0,0.0,0.0,0.0,0.0,0.0,0.0,0.0,0.0,0.0,0.0,0.0,0.0,0.0,0.0,0.0,0.0,0.0,0.0,0.0,0.0,0.0,0.0,0.0,0.0,0.0,0.0,0.0,0.0,0.0,0.0,0.0,0.0,0.0,0.0,0.0,0.0,0.0,0.0,0.0,0.0,0.0,0.0,0.0,0.0,0.0,0.0,0.0,0.0,0.0,0.0,0.0,0.0,0.0,0.0,0.0,0.0,0.0,0.0,0.0,0.0,0.0,0.0,0.0,0.0,0.0,0.0,0.0,1.1222,1.2911,1.4212,1.4526,1.4214,1.4,1.3901,1.2887,1.1802,1.0744,0.0,0.0,0.0,0.0,0.0,0.0,0.0,0.0,0.0,0.0,0.0,0.0,0.0,0.0,0.0,0.0,0.0,0.0,0.0,0.0,0.0,0.0,0.0,0.0,0.0,0.0,0.0,0.0,0.0,0.0,0.0,0.0,0.0,0.0,0.0,0.0,0.0,0.0,0.0,0.0,0.0,0.0,0.0,0.0,0.0,0.0,0.0,0.0,0.0,0.0,0.0,0.0,0.0,0.0,0.0,0.0,0.0,0.0,0.0,0.0,1.5463,0.0,0.0,0.0,0.0,0.0,0.0,0.0,0.0,0.0,0.0,0.0,0.0,0.0,0.0,0.0,0.0,0.0,0.0,0.0,0.0,0.0,0.0,0.0,0.0,0.0,0.0,0.0,0.0,0.0,0.0,0.0,0.0,0.0,0.0,0.0,0.0,0.0,0.0,0.0,0.0,0.0,1.1607,1.3092,1.4328,1.4897,1.4907,1.4596,1.3967,1.4093,1.3381,1.1437,1.0799,0.0,0.0,0.0,0.0,0.0,0.0,0.0,0.0,0.0,0.0,0.0,0.0,0.0,0.0,0.0,0.0,0.0,0.0,0.0,0.0,0.0,0.0,0.0,0.0,0.0,0.0,0.0,0.0,0.0,0.0,0.0,0.0,0.0,0.0,0.0,0.0,0.0,0.0,0.0,0.0,0.0,0.0,0.0,0.0,0.0,0.0,0.0,0.0,0.0,0.0,0.0,0.0,0.0,0.0,0.0,0.0,0.0,0.0,0.0,0.0,1.5586,0.0,0.0,0.0,0.0,0.0,0.0,0.0,0.0,0.0,0.0,0.0,0.0,0.0,0.0,0.0,0.0,0.0,0.0,0.0,0.0,0.0,0.0,0.0,0.0,0.0,0.0,0.0,0.0,0.0,0.0,0.0,0.0,0.0,0.0,0.0,0.0,0.0,0.0,0.0,0.0,1.2643,1.4281,1.5609,1.6268,1.5705,1.5123,1.47,1.4359,1.3417,1.1614,1.1362,0.0,0.0,0.0,0.0,0.0,0.0,0.0,0.0,0.0,0.0,0.0,0.0,0.0,0.0,0.0,0.0,0.0,0.0,0.0,0.0,0.0,0.0,0.0,0.0,0.0,0.0,0.0,0.0,0.0,0.0,0.0,0.0,0.0,0.0,0.0,0.0,0.0,0.0,0.0,0.0,0.0,0.0,0.0,0.0,0.0,0.0,0.0,0.0,0.0,0.0,0.0,0.0,0.0,2.2364,2.0986,2.0957,1.9932,1.9719,2.0094,1.8929,1.7979,1.724,1.7121,0.0,0.0,0.0,0.0,0.0,0.0,0.0,0.0,0.0,0.0,0.0,0.0,0.0,0.0,0.0,0.0,0.0,0.0,0.0,0.0,0.0,0.0,0.0,0.0,1.8965,1.842,0.0,0.0,0.0,0.0,0.0,0.0,0.0,0.0,0.0,0.0,0.0,0.0,1.381,1.5562,1.6934,1.751,1.6445,1.5632,1.5466,1.4516,1.333,1.2033,1.2081,1.1072,0.0,0.0,0.0,0.0,0.0,0.0,0.0,0.0,0.0,0.0,0.0,0.0,0.0,0.0,0.0,0.0,0.0,0.0,0.0,0.0,0.0,0.0,0.0,0.0,0.0,0.0,0.0,0.0,0.0,0.0,0.0,0.0,1.119,1.417,0.0,0.0,0.0,0.0,0.0,0.0,0.0,0.0,0.0,0.0,0.0,0.0,0.0,1.9638,1.9638,2.2515,2.4418,2.5284,2.42,2.3693,2.3618,2.1244,2.1406,2.3529,2.3364,0.0,1.5735,1.8298,0.0,0.0,0.0,0.0,0.0,0.0,0.0,0.0,0.0,0.0,0.0,0.0,0.0,0.0,0.0,0.0,0.0,0.0,0.0,0.0,0.0,0.0,2.0865,2.0258,2.0011,1.9572,0.0,1.6427,1.4523,1.3183,1.2066,0.0,0.0,0.0,0.0,0.0,0.0,0.0,1.4498,1.5845,1.6794,1.6983,1.672,1.6213,1.5399,1.5422,1.4993,1.3827,1.3612,1.2867,1.1341,1.0817,0.0,0.0,0.0,0.0,0.0,0.0,0.0,0.0,0.0,0.0,0.0,0.0,0.0,0.0,0.0,0.0,0.0,0.0,0.0,0.0,0.0,0.0,0.0,0.0,0.0,0.0,0.0,0.0,0.0,1.0944,1.2464,1.4901,1.3945,1.2316,0.0,0.0,0.0,0.0,0.0,0.0,0.0,0.0,0.0,2.0881,2.2323,2.3111,2.3111,2.4157,2.4891,2.5303,2.454,2.419,2.4172,2.302,2.3119,2.419,2.419,2.2713,2.0372,2.1726,2.0378,1.7356,0.0,0.0,0.0,0.0,1.4503,1.5538,1.7379,2.0263,0.0,2.3955,0.0,0.0,0.0,0.0,0.0,0.0,0.0,0.0,0.0,0.0,2.1396,2.1447,2.1375,2.1061,2.0261,1.8913,1.7225,0.0,1.4521,1.3752,1.1834,0.0,0.0,0.0,0.0,0.0,1.6219,1.7266,1.7989,1.842,1.7871,1.7161,1.6383,1.6091,1.5447,1.417,1.4269,1.3585,1.1865,1.1521,1.0443,0.0,0.0,0.0,0.0,0.0,0.0,0.0,0.0,0.0,0.0,0.0,0.0,0.0,0.0,0.0,0.0,0.0,0.0,0.0,0.0,0.0,0.0,0.0,0.0,0.0,0.0,0.0,0.0,1.3041,1.4234,1.5484,1.6234,1.5652,0.0,0.0,0.0,0.0,0.0,0.0,2.4995,2.5107,2.5115,2.5284,2.5126,2.5024,2.5024,2.4476,2.4476,2.5024,2.4459,2.419,2.419,2.419,2.419,2.419,2.419,2.419,2.419,2.419,2.2758,2.046,1.9448,1.8429,1.7501,1.7501,1.8808,2.0886,2.3345,2.3468,2.2712,2.3834,2.2118,1.968,1.9882,0.0,0.0,0.0,0.0,1.9207,2.056,2.1191,2.1617,2.2175,2.231,2.2077,2.1323,2.0778,1.9634,0.0,1.6637,1.592,1.3471,0.0,0.0,0.0,0.0,1.5934,1.7745,1.8403,1.8922,1.9456,1.8744,1.7923,1.7112,1.6576,1.575,1.4616,1.4868,1.433,1.2643,1.2403,1.1461,0.9668,0.0,0.0,0.0,0.0,0.0,0.0,0.0,0.0,0.0,0.0,0.0,0.0,0.0,0.0,0.0,0.0,0.0,0.0,0.0,0.0,0.0,0.0,0.0,0.0,0.0,0.0,0.0,0.0,0.0,1.6804,1.8734,0.0,0.0,0.0,0.0,1.9792,2.0042,2.1573,2.5111,2.4636,2.4572,2.5274,2.462,2.4266,2.4266,2.4209,2.4209,2.4247,2.4209,2.419,2.419,2.419,2.419,2.419,2.419,2.419,2.419,2.419,2.4098,2.3951,2.3878,2.3805,2.375,2.375,2.3842,2.3969,2.4135,2.3753,2.3277,2.3976,2.3052,2.1657,2.1657,2.0861,0.0,0.0,2.1212,2.1529,2.2358,2.2415,2.226,2.2293,2.231,2.218,2.1688,2.1549,2.0922,0.0,1.7548,1.6667,1.6488,0.0,1.583,1.6428,1.6577,1.71,1.8478,1.8687,1.8767,1.8896,1.8794,1.818,1.6996,1.677,1.6383,1.5755,1.5754,1.5424,1.4677,1.4049,1.3062,1.1685,1.0428,0.0,0.0,0.0,0.0,0.0,0.0,0.0,0.0,0.0,0.0,0.0,0.0,0.0,0.0,0.0,0.0,0.0,0.0,0.0,0.0,0.0,0.0,0.0,0.0,0.0,0.0,0.0,0.0,2.0004,2.0905,0.0,2.3408,2.051,1.9922,2.3265,2.3515,2.4034,2.5245,2.5049,2.5037,2.5284,2.5049,2.4678,2.419,2.419,2.419,2.419,2.419,2.419,2.419,2.419,2.5328,2.7181,2.5107,2.5383,2.7291,2.7291,2.608,2.43,2.5346,2.575,2.575,2.575,2.575,2.575,2.575,2.5637,2.5422,2.4846,2.4071,2.3327,2.3327,2.2763,2.2153,2.2438,2.2272,2.2085,2.2385,2.236,2.231,2.231,2.231,2.218,2.1688,2.1582,2.1225,1.9971,1.9354,1.8659,1.7552,1.7535,1.7595,1.7369,1.7697,1.8328,1.9226,1.9331,1.9349,1.9413,1.9358,1.8827,1.7526,1.7362,1.6922,1.5873,1.5409,1.4869,1.4184,1.351,1.2523,1.1171,1.0708,0.9635,0.0,0.0,0.0,0.0,0.0,0.0,0.0,0.0,0.0,0.0,0.0,0.0,0.0,0.0,0.0,0.0,0.0,0.0,0.0,0.0,0.0,0.0,0.0,0.0,0.0,0.0,2.0465,2.1696,2.2598,2.3407,2.4111,2.2892,2.2959,2.5149,2.5303,2.5303,2.5303,2.5303,2.5303,2.5303,2.5061,2.5223,2.5805,2.5823,2.5823,2.5823,2.5823,2.5823,2.5823,2.5823,2.6979,2.8865,2.6759,2.7034,2.8994,2.8994,2.7548,2.5364,2.6264,2.6943,2.742,2.742,2.7181,2.6851,2.6667,2.6662,2.6589,2.5764,2.5257,2.5016,2.5016,2.4614,2.4153,2.4016,2.3615,2.3221,2.3067,2.2868,2.2682,2.2682,2.2496,2.2209,2.1899,2.184,2.1628,2.0862,2.0501,1.99,1.859,1.8747,1.8897,1.8448,1.8747,1.9196,1.963,1.969,1.969,1.969,1.969,1.9241,1.8115,1.7817,1.7219,1.6159,1.5485,1.4827,1.4169,1.3481,1.2598,1.1506,1.1022,0.9965,0.8229,0.0,0.0,0.0,0.0,0.0,0.0,0.0,0.0,0.0,0.0,0.0,0.0,0.0,0.0,0.0,0.0,0.0,0.0,0.0,0.0,0.0,0.0,0.0,1.91,2.1081,2.2543,2.1716,2.3812,2.4457,2.2314,2.4034,2.5303,2.5303,2.5303,2.5303,2.5303,2.5303,2.5341,2.5457,2.477,2.5882,2.8957,2.8994,2.8994,2.8994,2.8994,2.8994,2.8994,2.8994,2.8994,2.8994,2.8994,2.8994,2.8994,2.8994,2.8388,2.7402,2.6888,2.7622,2.8957,2.8975,2.8333,2.7383,2.6869,2.6667,2.6649,2.6649,2.6631,2.6612,2.6612,2.6362,2.6033,2.5636,2.5331,2.5005,2.4628,2.3981,2.3427,2.3427,2.2885,2.2378,2.2378,2.2361,2.2214,2.1721,2.0943,2.0227,1.9782,1.9726,1.969,1.969,1.969,0.0,1.969,1.969,1.969,1.969,1.969,1.942,1.8762,1.8104,1.7413,1.6756,1.6114,1.5484,1.4812,1.4154,1.3481,1.2816,1.1506,1.0219,0.8995,0.0,0.0,0.0,0.0,0.0,0.0,0.0,0.0,0.0,0.0,0.0,0.0,0.0,0.0,0.0,0.0,0.0,0.0,0.0,0.0,0.0,0.0,2.3793,2.1408,2.2601,2.387,2.4216,2.4861,2.5053,2.4457,2.4937,2.5303,2.5303,2.5303,2.5303,2.5303,2.5303,2.6437,2.8917,2.8792,2.8789,2.8998,2.8994,2.8994,2.8994,2.8994,2.8994,2.8994,2.8994,2.8994,2.8994,2.8994,2.8994,2.8994,2.8994,2.881,2.8535,2.8411,2.8264,2.8209,2.8796,2.881,2.8535,2.8388,2.797,2.7475,2.7475,2.709,2.6612,2.6612,2.6362,2.608,2.5967,2.5543,2.5062,2.4948,2.4577,2.4188,2.4188,2.4036,2.3883,2.3883,2.3477,2.2954,2.2495,2.1773,2.1007,2.0246,1.9909,1.969,1.969,1.969,0.0,1.969,1.969,1.969,1.969,1.969,1.942,1.8762,1.8104,1.7413,1.6756,1.568,1.5004,1.4797,1.4154,1.3481,1.2816,1.1954,1.1356,0.0,0.0,0.0,0.0,0.0,0.0,0.0,0.0,0.0,0.0,0.0,0.0,0.0,0.0,0.0,0.0,0.0,0.0,0.0,0.0,0.0,0.0,2.4034,2.4841,2.3553,2.4082,2.4774,2.5245,2.5303,2.5601,2.6323,2.5736,2.589,2.7325,2.7439,2.7437,2.7437,2.7437,2.8341,3.034,3.0398,3.0128,2.9588,2.9206,2.8994,2.8994,2.8994,2.8994,2.8994,2.8994,2.8994,2.8994,2.8994,2.8994,2.8994,2.8994,2.8994,0.0,0.0,0.0,0.0,0.0,2.8994,2.8994,2.8994,2.8705,2.8301,2.8301,2.7989,2.7622,2.7622,2.7474,2.7276,2.7097,2.6676,2.623,2.6075,2.5493,2.4949,2.4949,2.4712,2.4506,2.4506,2.4154,2.3688,2.3093,2.2477,0.0,2.0975,2.0364,1.9909,1.9726,1.969,1.969,1.969,1.969,1.969,1.969,1.969,1.9525,1.9151,1.8508,0.0,0.0,0.0,1.5366,1.4812,1.4154,0.0,0.0,0.0,0.0,0.0,0.0,0.0,0.0,1.1087,1.1341,0.0,0.0,0.0,0.0,0.0,0.0,0.0,0.0,0.0,0.0,0.0,0.0,0.0,0.0,0.0,0.0,2.5303,2.5303,2.5303,2.5303,2.5303,2.5303,2.5466,2.613,2.7479,2.6554,2.6968,2.9629,3.0183,3.0398,3.0398,0.0,0.0,0.0,0.0,3.0398,3.0398,2.957,2.9093,2.8994,2.8994,2.8994,2.8994,2.936,2.9525,2.9525,2.942,2.9365,2.9365,2.931,2.925,2.9255,2.9067,2.8994,2.8994,2.8994,2.8994,2.8994,2.8994,0.0,0.0,2.8994,2.8994,2.8994,2.8994,2.8994,2.8929,2.8565,2.821,2.788,2.753,2.6664,2.5856,2.5792,2.5297,2.4791,2.476,2.4692,2.4408,2.3782,2.324,2.263,2.1859,2.0991,2.0261,1.9909,1.9818,1.9782,1.9782,1.9726,1.969,1.969,0.0,0.0,1.969,1.9091,1.8463,1.7832,1.7189,1.6308,1.5171,1.4558,1.4214,1.4139,1.4139,1.4139,1.4139,1.4722,1.5052,1.5067,1.3211,1.3002,0.0,0.0,0.0,0.0,0.0,0.0,0.0,0.0,0.0,0.0,0.0,0.0,0.0,0.0,0.0,2.5091,2.5303,2.5303,2.5303,2.5303,2.5303,2.5303,2.6534,2.6987,2.5909,2.799,2.8529,2.6438,2.8832,3.0398,3.0398,3.0398,3.0398,3.0398,3.0398,3.0398,3.0398,3.0215,2.9748,2.8994,0.0,0.0,2.9085,3.1696,3.2871,3.2816,3.1953,3.1586,3.1549,3.1109,3.0944,3.0797,2.9512,2.8994,2.8994,2.8994,2.8994,2.8994,2.8994,2.8994,2.8994,2.8994,2.8994,2.8994,2.8994,2.8994,0.0,2.8905,2.8608,2.829,2.8219,2.7812,2.7379,2.7047,2.6851,2.6685,2.635,2.5812,2.5355,2.5203,2.4616,2.3801,2.2694,2.1585,2.0829,2.0764,2.0431,2.0177,2.0177,1.9909,1.969,1.969,1.969,1.969,1.969,1.9091,1.8642,1.8523,1.7861,1.7399,1.7145,1.6995,1.6682,1.6159,1.6144,1.6144,1.6144,1.6278,1.6607,1.71,1.6189,1.5905,0.0,0.0,0.0,0.0,0.0,0.0,0.0,0.0,0.0,0.0,0.0,1.9261,0.0,0.0,2.4668,2.5293,2.5331,2.5302,2.5302,2.6053,2.6486,2.6197,2.6919,2.7565,2.7834,2.8634,2.8788,2.7928,2.9417,3.0398,3.0398,3.0398,3.0398,3.0398,3.0398,3.0398,3.0398,3.0398,3.0155,2.9696,2.9696,3.0599,3.2298,3.3321,3.3626,3.3252,3.2514,3.2045,3.177,3.1494,3.1384,3.1311,3.0503,3.021,3.021,3.021,3.021,3.021,3.021,3.021,3.0136,2.9732,2.9604,2.9549,2.9104,2.8994,2.8994,2.8994,2.8707,2.8394,2.8394,2.8156,2.784,2.7648,2.7589,2.7547,2.7348,2.6854,2.6336,2.5959,2.5445,2.4734,2.3756,2.2806,2.1933,2.1119,2.0797,2.055,2.0348,2.0124,1.9909,1.9711,1.969,1.969,1.969,1.9091,1.8702,1.8702,1.8056,1.7697,1.7697,1.7697,1.7533,1.7219,1.7204,1.7204,1.7204,1.7533,1.7861,1.8208,1.8208,1.7896,0.0,0.0,0.0,0.0,0.0,0.0,0.0,0.0,2.0965,2.0528,2.1578,2.2613,2.2831,2.3494,2.4335,2.5332,2.5379,2.5416,2.5763,2.6715,2.7302,2.7035,2.7381,2.8373,3.0224,2.9182,2.8948,3.0302,3.0398,3.0398,3.0398,3.0398,3.0398,3.0398,3.0398,3.0398,3.0398,3.0398,3.0398,3.0398,3.0737,3.2333,3.4979,3.4298,3.3682,3.3088,3.2687,3.2265,3.1861,3.1861,3.1861,3.1861,3.1861,3.1861,3.1825,3.1513,3.1434,3.1464,3.1409,3.1464,3.1431,3.068,3.0368,3.0157,2.9462,2.9104,2.8994,2.8994,2.8773,2.8515,2.8515,2.8334,2.8093,2.8037,2.801,2.7982,2.7926,2.7666,2.7204,2.6536,2.6145,2.5671,2.4862,2.4222,2.3284,2.171,2.1278,2.0991,2.0601,2.04,2.0193,1.9839,1.9747,1.969,1.969,1.9196,1.8897,1.8897,1.8403,1.8104,1.8104,1.8104,1.8104,1.8104,1.8104,1.8104,1.8104,1.8627,1.8897,1.8912,1.9435,1.9125,1.7183,1.7576,1.8164,1.9492,1.9531,2.0234,0.0,0.0,2.3213,2.4594,2.5087,2.5273,2.5291,2.5388,2.5473,2.5502,2.538,2.5841,2.739,2.6444,2.5934,2.6899,2.8797,3.0128,3.0378,3.0229,3.0186,3.0379,3.0398,3.0398,3.0398,3.0398,3.0398,3.0398,3.0398,3.0398,3.0398,3.0398,3.0398,3.0417,3.191,3.2814,3.3224,3.4291,3.4581,3.4207,3.3795,3.3587,3.3532,3.3532,3.3532,3.3532,3.3532,3.3532,3.3348,3.1916,3.1542,3.1712,3.1489,3.1712,3.2013,3.1455,3.0937,3.0485,3.0176,2.9586,2.8994,2.8994,2.8952,2.8929,2.8929,2.8905,2.8791,2.842,2.8324,2.8264,2.7964,2.7869,2.7689,2.7274,2.7151,2.6754,2.5673,2.5423,2.485,2.3358,2.2209,2.1521,2.146,2.0765,2.028,2.0246,1.9909,1.969,1.969,1.9615,1.957,1.957,1.951,1.9465,1.9465,1.9465,1.9465,1.9465,1.9465,1.9465,1.9465,1.954,1.957,1.957,1.966,1.9361,2.1143,2.0982,0.0,0.0,2.2539,2.2734,2.4492,2.4355,2.4196,2.5418,2.5687,2.5703,2.5703,2.5703,2.5681,0.0,2.5432,2.6242,2.8974,2.7879,2.6982,2.7465,2.864,2.9671,3.0344,3.039,3.0398,3.0398,3.0398,3.0398,3.0398,3.0398,3.0398,3.0398,3.0398,3.0398,3.0398,3.1052,3.1379,3.1398,3.2429,3.343,3.4416,3.4759,3.4775,3.4569,3.4416,3.4213,3.4018,3.4018,3.3935,3.3815,3.3961,3.4018,3.3969,3.3284,3.3101,3.3216,3.328,3.3475,3.3524,3.2791,3.231,3.189,3.1292,3.0466,2.9714,2.9714,2.9365,2.8994,2.8994,2.8994,2.8952,2.8773,2.8749,2.8725,2.8558,2.836,2.8139,2.7974,2.7776,2.7425,2.6702,2.6244,2.5654,2.4811,2.3513,2.2395,2.1708,2.129,2.0862,2.0333,2.0158,1.9929,1.9711,1.969,1.969,1.969,1.969,1.969,1.969,1.969,1.969,1.969,1.969,1.969,1.969,1.969,1.969,1.969,1.969,1.9244,2.3223,0.0,0.0,2.4102,2.457,2.4766,2.4766,2.4766,2.4941,2.5566,2.5703,2.5703,2.5703,2.5703,0.0,2.5703,2.6332,2.7716,3.0183,2.9487,2.8341,2.7311,2.7533,2.8283,2.9583,3.014,3.0398,3.0398,3.0398,3.0544,3.0852,3.0871,3.1006,3.1333,3.1179,3.1102,3.1102,3.191,3.2333,3.2333,3.2968,3.393,3.5147,3.5005,3.4888,3.4812,3.4734,3.4551,3.4334,3.4334,3.4237,3.4062,3.4265,3.4334,3.4357,3.4427,3.4449,3.447,3.4634,3.4812,3.4794,3.3998,3.3502,3.3077,3.2347,3.1422,3.0567,3.027,2.9787,2.9292,2.9049,2.8994,2.8994,2.8994,2.8994,2.8994,2.8994,2.8773,2.854,2.842,2.821,2.7908,2.753,2.6944,2.6346,2.5848,2.474,2.3557,2.2269,2.182,2.1259,2.0366,2.0314,2.0158,1.9711,1.969,1.969,1.969,1.969,1.969,1.969,1.969,1.969,1.969,1.969,1.969,1.969,1.969,1.9603,1.9479,1.9479,1.8893,0.0,0.0,2.4336,2.4394,2.5039,2.5664,2.5664,2.5664,2.5664,2.5684,2.5703,2.5703,2.5703,2.5703,2.5703,2.5703,2.8535,3.0762,3.0879,3.0827,2.9473,2.5813,2.538,2.6082,0.0,2.9448,3.0398,3.0398,3.0398,3.0891,3.1999,3.2057,3.2557,3.3667,3.3134,3.2814,3.2814,3.2852,3.2872,3.2891,3.3737,3.418,3.4257,3.484,3.5088,3.507,3.4813,3.4694,3.4674,3.4674,3.4674,3.4674,3.4674,3.4674,3.4714,3.4981,3.5069,3.5053,3.4793,3.5034,3.5383,3.4832,3.4244,3.3665,3.3128,3.2415,3.1529,3.0488,3.0173,2.9989,2.9195,2.8994,2.8994,2.8994,2.8994,2.8994,2.8994,2.8994,2.8863,2.8471,2.8394,2.829,2.7954,2.7542,2.7026,2.6298,2.5794,2.5017,2.3515,2.2315,2.1259,2.0366,2.0314,2.0158,1.9711,1.969,1.969,1.969,1.969,1.969,1.969,1.969,1.969,1.969,1.969,1.969,1.969,1.969,1.9442,1.893,1.893,1.8341,0.0,0.0,2.4613,2.5759,2.5839,2.5781,2.6367,2.6074,2.5703,2.5703,2.5703,2.5703,2.5703,2.5703,2.5703,2.5703,2.8633,3.0898,3.0898,3.0901,3.0,2.7576,2.7643,0.0,0.0,0.0,0.0,3.041,3.1441,3.198,3.1833,3.2711,3.3211,3.3211,3.3006,3.2891,3.2891,3.3468,3.3757,3.3776,3.4641,3.5064,3.5084,3.5264,3.5369,3.5369,3.5273,3.5122,3.4963,3.4963,3.487,3.4714,3.4908,3.4963,3.4999,3.5273,3.5369,3.5354,3.5254,3.5354,3.546,3.5289,3.498,3.463,3.4452,3.3556,3.2523,3.2168,3.1537,3.0925,3.065,3.021,2.9806,2.9806,2.9402,2.8994,2.8994,2.8994,2.8952,2.8839,2.8797,2.87,2.829,2.7936,2.7285,2.5979,2.4856,2.3951,2.346,2.2618,2.1823,2.1228,2.091,2.0583,2.0124,1.9839,1.969,1.969,1.969,1.969,1.969,1.969,1.969,1.969,1.969,1.969,1.969,1.9332,1.908,1.8893,1.8535,1.7987,2.5126,2.5208,2.5069,2.6512,2.644,2.6094,2.6366,2.6035,2.5664,2.5703,2.5703,2.5703,2.5703,2.5703,2.6113,2.7363,2.8926,3.0195,3.0801,3.0898,3.0479,2.9355,2.9571,0.0,0.0,0.0,0.0,3.041,3.1788,3.2461,3.2141,3.359,3.4225,3.3833,3.3833,3.3833,3.3833,3.4372,3.4661,3.4661,3.5238,3.5493,3.5493,3.5493,3.5493,3.5493,3.5493,3.5398,3.5239,3.5239,3.5138,3.4999,3.519,3.5239,3.5254,3.5432,3.5493,3.5493,3.5493,3.5493,3.5493,3.5493,3.5383,3.5223,3.5122,3.4396,3.3515,3.3105,3.2421,3.1751,3.1458,3.1017,3.0558,3.0265,2.9824,2.9342,2.9049,2.8994,2.8994,2.8994,2.8994,2.8929,2.8658,2.8228,2.7461,2.6179,2.4966,2.4002,2.346,2.2987,2.2421,2.1675,2.1244,2.0829,2.0348,1.9929,1.969,1.969,1.969,1.969,1.969,1.969,1.969,1.969,1.969,1.9603,1.9406,1.908,1.8688,1.8341,1.7987,1.7544,2.5425,2.5648,2.5829,2.666,2.6832,2.6601,2.5822,2.5625,2.5625,2.5684,2.5703,2.5644,0.0,0.0,2.6777,3.0098,2.9394,2.9004,3.0664,3.0898,3.0898,0.0,0.0,0.0,0.0,0.0,0.0,3.0525,0.0,3.2422,3.2929,3.4571,3.5495,3.5507,3.5493,3.5493,3.5493,3.5493,3.5493,3.5493,3.5493,3.5493,3.5493,3.5493,3.5493,3.5493,3.5493,3.5493,3.5493,3.5493,3.5493,3.5493,3.5493,3.5493,3.5493,3.5493,3.5493,3.5493,3.5493,3.5493,3.5493,3.5493,3.5493,3.5446,3.5207,3.4944,3.4484,3.3421,3.2895,3.2537,3.174,3.1501,3.128,3.0503,3.0265,2.9989,2.9214,2.9012,2.8994,2.8994,2.8994,2.8994,2.8952,2.836,2.7636,2.6808,2.6099,2.5135,2.3697,2.3444,2.2958,2.1804,2.1276,2.0829,2.0382,1.9945,1.969,1.969,1.969,1.969,1.969,1.969,1.969,1.9639,1.9639,1.9406,1.8855,1.8817,1.8302,1.7312,1.7271,1.6993,2.6259,2.6916,2.7412,2.764,2.7198,2.668,2.6528,2.6034,2.5625,2.5684,2.5703,2.4922,0.0,0.0,0.0,2.6875,2.8828,0.0,3.084,3.0898,0.0,0.0,0.0,3.1664,3.153,3.2066,0.0,0.0,3.2942,3.35,3.3853,3.4911,3.5507,3.5507,3.5493,3.5493,3.5493,3.5493,3.5493,3.5493,3.5493,3.5493,3.5493,3.5493,3.5493,3.5493,3.5493,3.5493,3.5493,3.5493,3.5493,3.5493,3.5493,3.5493,3.5493,3.5493,3.5493,3.5493,3.5493,3.5493,3.5493,3.5493,3.5493,3.5493,3.5417,3.5207,3.4943,3.466,3.4373,3.4064,3.3613,3.304,3.2493,3.2077,3.1072,3.0136,2.9953,2.9439,2.8994,2.8994,2.8994,2.8834,2.8299,2.8037,2.7636,2.6808,2.6539,2.6082,2.5169,2.4086,2.3279,2.2958,2.1773,2.0959,2.0829,2.0139,1.969,1.969,1.969,1.969,1.969,1.969,1.953,1.9132,1.9095,1.8855,1.8302,1.7907,1.7585,1.7312,1.6879,1.6637,2.7512,2.8161,2.8406,2.8038,2.7591,2.7054,2.6379,2.5885,2.5574,2.5682,2.3281,0.0,0.0,0.0,0.0,0.0,0.0,0.0,3.0312,3.0664,3.1035,0.0,3.1836,0.0,3.2487,3.2907,3.3244,0.0,3.3808,3.4039,3.418,3.5026,3.5493,3.5493,3.5493,3.5493,3.5493,3.5493,3.5493,3.5493,3.5493,3.5493,3.5493,3.5493,3.5493,3.5493,0.0,3.5493,3.5493,3.5493,3.5493,3.5493,3.5493,3.5493,3.5493,3.5493,3.5493,3.5493,3.5493,3.5493,3.5493,3.5493,3.5493,3.5493,3.5493,3.5304,3.5105,3.5105,3.4908,3.4653,3.4486,3.3975,3.3408,3.2884,3.1998,3.1164,3.0797,3.0099,2.9439,2.9067,2.8863,2.8558,2.801,2.7736,2.7409,2.6774,2.6691,2.6539,2.6133,2.5084,2.4239,2.3917,2.2911,2.207,2.1536,2.0864,2.0279,1.9741,1.969,1.969,1.969,1.969,1.9442,1.8893,1.8893,1.8535,1.7747,1.7463,1.7188,1.6951,1.6637,1.6522,2.8749,2.9233,2.9052,2.813,2.7896,2.7448,2.5726,2.5062,2.4868,2.4993,0.0,1.6387,1.9648,0.0,2.1347,2.3627,0.0,2.8887,2.9355,3.0176,3.1094,3.207,3.2285,3.2648,3.3404,3.3509,3.3776,3.4443,3.441,3.4372,3.4372,3.5084,3.5493,3.5493,3.5493,3.5493,3.5493,3.5493,3.5493,3.5493,3.5493,3.5493,3.5493,3.5493,3.5493,3.5493,3.5493,3.5493,3.5493,3.5493,3.5493,3.5493,3.5493,3.5493,3.5493,3.5493,3.5493,3.5493,3.5493,3.5493,3.5493,3.5493,3.5493,3.5493,3.5493,3.5354,3.5138,3.5138,3.4981,3.4812,3.4754,3.451,3.4078,3.3324,3.2884,3.2412,3.1715,3.0834,2.9965,2.9222,2.8705,2.829,2.788,2.753,2.7178,2.6758,2.6691,2.6691,2.6691,2.6065,2.5355,2.4695,2.4196,2.3473,2.2324,2.1768,2.1008,1.9891,1.9735,1.969,1.969,1.969,1.9406,1.8817,1.8779,1.8263,1.7188,1.7188,1.6951,1.6522,1.6522,1.6559,2.8864,2.9636,2.9802,2.828,2.7887,2.7285,2.4956,2.2808,0.0,0.0,0.0,1.6035,1.8066,1.9629,0.0,2.3557,0.0,0.0,0.0,0.0,3.043,0.0,0.0,0.0,0.0,0.0,0.0,0.0,0.0,3.5334,3.5276,3.543,3.5493,3.5493,3.5493,3.5493,3.5493,3.5493,3.5493,3.5493,3.5493,3.5493,3.5493,3.5493,3.5493,3.5493,3.5493,0.0,3.5493,3.5493,3.5493,3.5493,3.5493,3.5493,3.5493,3.5493,3.5493,3.5493,3.5493,3.5493,3.5493,3.5493,3.5493,3.5493,3.5493,3.5479,3.5432,3.5432,3.5403,3.5304,3.5088,3.4813,3.4513,3.4101,3.329,3.2577,3.243,3.1237,3.0064,2.9588,2.8905,2.8192,2.753,2.7365,2.7178,2.6758,2.6691,2.6691,2.6691,2.6065,2.5558,2.5423,2.4496,2.3637,2.2962,2.2067,2.1209,2.058,2.0004,1.969,1.969,1.969,1.9244,1.8263,1.8263,1.7706,1.6637,1.6637,1.6595,1.6522,1.6522,1.6773,2.8883,2.9752,2.9994,2.8321,2.7901,2.7209,2.4543,0.0,0.0,0.0,0.0,1.5664,1.6484,0.0,0.0,0.0,0.0,0.0,0.0,0.0,0.0,0.0,0.0,0.0,0.0,0.0,0.0,0.0,0.0,3.5622,3.5526,3.5493,3.5545,3.5603,3.5545,3.5526,3.5565,3.5526,3.5493,3.5493,3.5493,3.5493,3.5493,3.5493,3.5493,3.5493,3.5493,0.0,3.5493,3.5493,3.5493,3.5493,3.5493,3.5493,3.5493,3.5493,3.5493,3.5493,3.5493,3.5493,3.5493,3.5493,3.5493,3.5493,3.5493,3.5493,3.5493,3.5493,3.5493,3.546,3.5354,3.4999,3.4653,3.4508,3.3839,3.3109,3.2706,3.1532,3.0366,2.9737,2.8629,2.7718,2.7348,2.7115,2.6939,2.6725,2.647,2.6332,2.6332,2.5789,2.5504,2.578,2.5067,2.4229,2.3333,2.2795,2.1993,2.079,2.0408,2.0064,1.969,1.969,1.9207,1.8145,1.8106,1.7585,1.6522,1.6823,1.681,1.6491,1.6729,1.6803,2.8818,2.9598,2.9763,2.8264,2.7892,2.7084,2.3947,2.1724,0.0,0.0,1.5526,1.5469,1.5644,0.0,0.0,0.0,0.0,0.0,0.0,0.0,0.0,0.0,0.0,0.0,0.0,0.0,0.0,0.0,0.0,0.0,3.5545,3.5534,3.5586,3.5699,3.5592,3.5573,3.5622,3.5584,3.5545,3.5545,3.5545,3.5545,3.5526,3.5526,3.5526,3.5493,3.5493,0.0,3.5493,3.5493,3.5493,3.5493,3.5493,3.5493,3.5493,3.5493,3.5493,3.5493,3.5493,3.5493,3.5493,3.5493,3.5493,3.5493,3.5493,3.5493,3.5493,3.5493,3.5493,3.5493,3.5432,3.507,3.4674,3.4548,3.4136,3.3623,3.2999,3.1947,3.0856,2.9926,2.8553,2.7463,2.7195,2.6906,2.6691,2.6691,2.6297,2.6013,2.6013,2.5411,2.5182,2.5615,2.5373,2.4766,2.3709,2.3499,2.2755,2.1225,2.0991,2.0677,2.0139,1.9983,1.9449,1.8479,1.8371,1.7807,1.6886,1.7338,1.7235,1.6653,1.6967,1.6857,2.8679,2.9156,2.8998,2.8126,2.7898,2.6804,2.2645,0.0,0.0,1.7023,1.5919,1.5644,1.6426,1.6777,0.0,0.0,0.0,0.0,0.0,0.0,0.0,0.0,0.0,0.0,0.0,0.0,0.0,0.0,0.0,0.0,3.5674,3.5679,3.5679,3.5713,3.5689,3.5679,3.568,3.568,3.568,3.568,3.568,3.5661,3.5603,3.5603,3.5565,3.5493,3.5493,0.0,0.0,3.5493,3.5493,3.5493,3.5493,3.5493,3.5493,3.5493,3.5493,3.5493,3.5493,3.5493,3.5493,3.5493,3.5493,3.5493,3.5493,3.5493,3.5493,3.5493,3.5493,3.5446,3.5207,3.4926,3.4569,3.4005,3.3842,3.377,3.3715,3.2738,3.1582,3.0434,2.9197,2.7956,2.6927,2.6725,2.6691,2.6691,2.6297,2.6013,2.6013,2.5105,2.4511,2.4552,2.495,2.4957,2.4337,2.3763,2.3154,2.2544,2.1934,2.1575,2.1515,2.0921,2.0343,1.9735,1.9208,1.8617,1.8053,1.8103,1.7735,1.7075,1.7061,1.6985,2.7274,2.7984,2.8165,2.733,2.7121,2.614,2.2417,0.0,1.9693,1.7175,1.5992,1.5508,1.5859,1.6348,1.7207,1.875,1.9729,2.115,0.0,0.0,0.0,0.0,0.0,0.0,0.0,0.0,0.0,0.0,0.0,0.0,3.5889,3.5762,3.5762,3.5889,3.5762,3.5743,3.5811,3.5741,3.5708,3.5708,3.5708,3.5689,3.566,3.5618,3.5603,3.5565,3.5526,0.0,0.0,3.5493,3.5493,3.5493,3.5493,3.5493,3.5493,3.5493,3.5493,3.5493,3.5493,3.5493,3.5493,3.5493,3.5493,3.5493,3.5493,3.5493,3.5493,3.5493,3.5383,3.5223,3.5122,3.4755,3.4307,3.3895,3.3807,3.3807,3.3807,3.2669,3.1385,3.048,2.9079,2.776,2.686,2.6691,2.6691,2.6691,2.6016,2.554,2.554,2.4592,2.3921,2.3921,2.4116,2.4158,2.3964,2.3679,2.3292,2.2739,2.2428,2.1921,2.1111,2.0862,2.0302,1.9369,1.9112,1.8727,1.8204,1.8543,1.8154,1.712,1.7289,1.6941,2.5918,2.686,2.7369,2.6745,2.6419,2.5351,0.0,0.0,1.9304,1.6795,1.5819,1.5391,1.5391,1.5898,1.6699,1.7812,1.8695,2.0134,2.2705,0.0,0.0,0.0,0.0,0.0,0.0,0.0,0.0,0.0,0.0,0.0,3.5996,3.5871,3.5848,3.5996,3.5851,3.5828,3.5937,3.5848,3.5792,3.5792,3.5792,3.5773,3.5768,3.567,3.5618,3.5603,3.5545,0.0,0.0,3.5493,3.5493,3.5493,3.5493,3.5493,3.5493,3.5493,3.5493,3.5493,3.5493,3.5493,3.5493,3.5493,3.5493,3.5493,3.5417,3.5432,3.5493,3.5398,3.5122,3.4832,3.4832,3.4467,3.4043,3.3842,3.3807,3.378,3.3652,3.2625,3.1402,3.03,2.904,2.7858,2.686,2.6691,2.6691,2.6691,2.5855,2.5221,2.5221,2.4266,2.3595,2.3595,2.3595,2.3595,2.3595,2.3595,2.3314,2.2755,2.2683,2.2191,2.1025,2.0837,2.0364,1.9548,1.936,1.9028,1.8681,1.8809,1.837,1.7229,1.7254,1.6684,2.4889,2.5956,2.66,2.6601,2.5947,2.4438,0.0,1.9692,1.8383,1.5838,1.5359,1.5391,1.5391,1.541,1.5977,1.7715,1.873,2.0172,2.2639,0.0,0.0,0.0,0.0,0.0,0.0,0.0,0.0,0.0,0.0,0.0,3.5996,3.5996,3.5996,3.5996,3.5996,3.5996,3.5996,3.5996,3.5996,3.5996,3.5996,3.5957,3.5898,3.5753,3.566,3.5603,0.0,0.0,0.0,3.5493,3.5493,3.5493,3.5493,3.5493,3.5493,3.5493,3.5493,3.5493,3.5493,3.5493,3.5493,3.5493,3.5493,3.5446,3.519,3.5289,3.5446,3.519,3.4676,3.42,3.42,3.3993,3.3788,3.3807,3.3807,3.3707,3.3302,3.284,3.1908,2.9984,2.9264,2.8484,2.6962,2.6691,2.6691,2.6691,2.5855,2.5221,2.5221,2.4266,2.3595,2.3595,2.3595,2.3595,2.3595,2.3595,2.3319,2.274,2.2694,2.2392,2.173,2.1099,2.0782,2.0782,2.0131,1.9786,1.9786,1.9085,1.8317,1.7556,1.6866,1.6083,2.1746,2.2496,2.2976,2.2427,2.2504,2.1966,1.9158,1.8831,1.8377,1.5827,1.5321,1.5355,1.539,1.5391,1.6172,1.8516,1.9044,0.0,0.0,0.0,0.0,0.0,0.0,0.0,0.0,0.0,0.0,0.0,0.0,0.0,3.5996,3.5996,3.5996,3.5996,3.5996,3.5996,3.5996,3.5996,3.5996,3.5996,3.5996,3.5996,3.5957,3.5773,3.5679,0.0,0.0,0.0,3.5493,3.5493,3.5493,3.5493,3.5493,3.5493,3.5493,3.5493,3.5493,3.5493,3.5493,3.5493,3.5493,3.5493,3.5493,3.5493,3.5398,3.5304,3.5122,3.4617,3.4338,3.4171,3.3986,3.385,3.3807,3.3807,3.3807,3.368,3.3273,3.2809,3.2066,3.0646,3.0052,2.9262,2.7723,2.7171,2.6809,2.631,2.5335,2.4657,2.4657,2.4032,2.3595,2.3595,2.3231,2.2965,2.2965,2.2965,2.2725,2.2053,2.2007,2.1724,2.1113,2.0894,2.0597,2.0156,1.9411,1.9044,1.9044,1.8286,1.7578,1.681,1.6083,1.5342,0.0,2.0427,2.0927,2.0427,2.0427,2.0062,1.817,1.7958,1.7613,1.5734,1.5341,1.5361,1.539,1.5403,1.6152,1.8437,1.9025,0.0,0.0,0.0,0.0,0.0,0.0,0.0,0.0,0.0,0.0,0.0,0.0,0.0,3.5996,3.5996,3.5996,3.5996,3.5996,3.5996,3.5996,3.5996,3.5996,3.5996,3.5996,3.5996,3.5996,3.5792,3.5698,0.0,0.0,3.5493,0.0,3.5493,3.5493,3.5493,3.5493,3.5493,3.5493,3.5493,3.5493,3.5493,3.5493,3.5493,3.5493,3.5493,3.5432,3.5354,3.5354,3.5155,3.487,3.4489,3.4218,3.3993,3.3842,3.3807,3.3807,3.3807,3.368,3.3465,3.3045,3.2583,3.1882,3.0678,3.0043,2.9306,2.8129,2.7238,2.655,2.6145,2.5124,2.4389,2.4389,2.3906,2.3508,2.3275,2.292,2.2512,2.2035,2.2207,2.2067,2.139,2.1342,2.1064,2.0446,2.0396,2.0093,1.9423,1.8927,1.8555,1.8274,1.7523,1.681,1.6093,1.5633,1.4991,0.0,1.9311,0.0,0.0,1.9369,1.86,1.7809,1.7092,0.0,1.5553,1.5386,1.5424,1.5553,1.553,1.6093,1.7969,0.0,0.0,0.0,0.0,0.0,0.0,0.0,0.0,0.0,0.0,0.0,0.0,0.0,0.0,3.5996,3.5996,3.5996,3.5996,3.5996,3.5996,3.5996,3.5996,3.5996,3.5996,3.5996,3.5996,3.5996,3.5792,3.5698,0.0,0.0,3.5493,3.5493,3.5493,3.5493,3.5493,3.5493,3.5493,3.5493,3.5493,3.5493,3.5493,3.5493,3.5493,3.5493,3.5493,3.532,3.5122,3.5105,3.4926,3.4713,3.4674,3.426,3.3815,3.3788,3.3807,3.3788,3.3762,3.3465,3.3075,3.255,3.2092,3.1489,3.037,2.958,2.8908,2.8273,2.7022,2.6145,2.6214,2.5205,2.4385,2.4385,2.3852,2.329,2.2694,2.2603,2.2081,2.0845,2.1245,2.128,2.0696,2.0597,2.0283,1.9695,1.9631,1.9307,1.8661,1.8555,1.8178,1.7468,1.6765,1.6093,1.541,1.541,1.4942,1.4772,0.0,1.7234,1.658,1.6753,1.6888,0.0,1.6221,1.6291,0.0,0.0,0.0,0.0,0.0,0.0,0.0,0.0,0.0,0.0,0.0,0.0,0.0,0.0,0.0,0.0,0.0,0.0,0.0,0.0,3.5996,3.5996,3.5996,3.5996,3.5996,3.5996,3.5996,3.5996,3.5996,3.5996,3.5996,3.5996,3.5996,3.5996,3.5792,3.5698,0.0,3.5565,3.5493,3.5493,3.5493,3.5493,3.5493,3.5493,3.5493,3.5493,3.5493,3.5493,3.5493,3.5493,3.5493,3.5493,3.5493,3.5446,3.5369,3.5155,3.4926,3.4653,3.4379,3.4218,3.4068,3.3868,3.3807,3.3734,3.3419,3.3273,3.2965,3.2127,3.1897,3.1645,3.107,3.0436,2.9781,2.9057,2.7933,2.6957,2.6439,2.5312,2.4402,2.3908,2.3301,2.268,2.1993,2.15,2.0917,2.0029,2.0067,1.9864,1.923,1.8638,1.8263,1.8112,1.8112,1.8058,1.7841,1.7302,1.6641,1.5911,1.5748,1.5584,1.541,1.541,1.4736,1.2632,1.4286,1.5888,1.5811,1.6157,1.6394,1.5996,0.0,0.0,0.0,0.0,0.0,0.0,0.0,0.0,0.0,0.0,0.0,0.0,0.0,0.0,0.0,0.0,0.0,0.0,0.0,0.0,0.0,0.0,3.5996,3.5996,3.5996,3.5996,3.5996,3.5996,3.5996,3.5996,3.5996,3.5996,3.5996,3.5996,3.5996,3.5996,3.5792,3.5698,0.0,3.5565,3.5493,3.5493,3.5493,3.5493,3.5493,3.5493,3.5493,3.5493,3.5493,3.5493,3.5493,3.5493,3.5493,3.5493,3.5493,3.5417,3.5289,3.5138,3.4926,3.4632,3.4292,3.4099,3.3986,3.3842,3.368,3.3465,3.3243,3.2872,3.2433,3.195,3.1456,3.1033,3.0821,3.0029,2.9302,2.8934,2.7847,2.6902,2.655,2.5665,2.483,2.4173,2.3529,2.2852,2.2079,2.1488,2.0887,2.0202,1.9874,1.9221,1.8244,1.7852,1.7578,1.7578,1.7578,1.7413,1.709,1.6368,1.5806,1.541,1.541,1.541,1.542,1.5615,1.4906,1.1699,1.3566,1.5524,1.6003,1.642,1.6683,1.6611,0.0,0.0,0.0,0.0,0.0,0.0,0.0,0.0,0.0,0.0,0.0,0.0,0.0,0.0,0.0,0.0,0.0,0.0,0.0,0.0,0.0,0.0,3.5996,3.5996,3.5996,3.5996,3.5996,3.5996,3.5996,3.5996,3.5996,3.5996,3.5996,3.5996,3.5996,3.5996,3.5792,3.5698,3.5699,0.0,0.0,3.5493,3.5493,3.5493,3.5493,3.5493,3.5493,3.5493,3.5493,3.5493,3.5493,3.5493,3.546,3.5432,3.5432,3.5273,3.5016,3.4981,3.4813,3.4551,3.4152,3.3968,3.3842,3.3734,3.3465,3.3166,3.3014,3.24,3.1806,3.1768,3.1027,3.0293,3.0293,2.9216,2.8347,2.8497,2.7411,2.6627,2.6744,2.6072,2.5339,2.4611,2.392,2.3181,2.2364,2.1771,2.1168,2.0723,1.9821,1.8826,1.7712,1.7567,1.7467,1.7356,1.7356,1.7043,1.6379,1.57,1.541,1.541,1.541,1.5449,1.5518,1.5889,1.5244,1.3017,1.4963,1.6065,1.4716,1.6009,1.7413,1.6746,0.0,0.0,0.0,0.0,0.0,0.0,0.0,0.0,0.0,0.0,0.0,0.0,0.0,0.0,0.0,0.0,0.0,0.0,0.0,0.0,0.0,0.0,3.5996,3.5996,3.5996,3.5996,3.5996,3.5996,3.5996,3.5996,3.5996,3.5996,3.5996,3.5996,3.5996,3.5996,3.5792,3.5698,3.5699,0.0,3.5493,3.5493,3.5493,3.5493,3.5493,3.5493,3.5493,3.5493,3.5493,3.5493,3.5493,3.5493,3.5354,3.5155,3.5155,3.4981,3.4714,3.4405,3.4292,3.4152,3.3524,3.3723,3.4025,3.3429,3.3243,3.3014,3.2196,3.1915,3.1696,3.1389,3.0781,3.0293,3.0293,2.931,2.8482,2.8496,2.7923,2.744,2.746,2.6314,2.5271,2.4584,2.3363,2.2365,2.169,2.0908,2.0394,2.0418,1.9,1.802,1.7956,1.7525,1.696,1.6367,1.6307,1.6078,1.5584,1.5468,1.541,1.541,1.541,1.5596,1.5957,1.6096,1.5864,1.1632,1.3558,1.5161,1.4833,1.736,1.9701,1.889,0.0,0.0,0.0,0.0,0.0,0.0,0.0,0.0,0.0,0.0,0.0,0.0,0.0,0.0,0.0,0.0,0.0,0.0,0.0,0.0,0.0,0.0,0.0,3.5976,3.5996,3.5996,3.5996,3.5996,3.5996,3.5996,3.5996,3.5996,3.5996,3.5996,3.5996,3.5996,3.5792,3.5698,3.5699,0.0,3.5493,3.5493,3.5493,3.5493,3.5493,3.5493,3.5493,3.5493,3.5339,3.519,3.507,3.507,3.4981,3.487,3.487,3.4675,3.4401,3.4265,3.3956,3.3588,3.3284,3.3411,3.3533,3.2965,3.2631,3.2315,3.188,3.1623,3.1317,3.0821,3.0251,2.9717,2.9406,2.8638,2.7993,2.7993,2.776,2.7458,2.7086,2.646,2.5615,2.453,2.3508,2.2605,2.1795,2.1068,2.0476,2.013,1.9321,1.8362,1.7346,1.7082,1.6787,1.6426,1.6426,1.6328,1.6133,1.6123,1.6123,1.6123,1.6123,1.623,1.6436,1.667,1.6503,1.0721,1.2587,1.4612,1.5487,0.0,2.081,2.0815,0.0,0.0,0.0,0.0,0.0,0.0,0.0,0.0,0.0,0.0,0.0,0.0,0.0,0.0,0.0,0.0,0.0,0.0,0.0,0.0,0.0,0.0,0.0,3.5351,3.5391,3.5488,3.5684,3.5703,3.5781,3.5996,3.5996,3.5996,3.5996,3.5982,3.5985,3.5965,3.5762,3.5678,3.568,3.5565,3.5493,3.5493,3.5493,3.5493,3.5493,3.5432,3.5369,3.5289,3.5088,3.4889,3.4694,3.4694,3.4653,3.4572,3.4572,3.4375,3.4099,3.4006,3.3616,3.3136,3.2934,3.2872,3.2777,3.2451,3.2057,3.1752,3.1514,3.1223,3.0821,3.0208,2.9629,2.9042,2.8606,2.7993,2.7625,2.7625,2.7473,2.7152,2.6563,2.6229,2.5563,2.4452,2.3712,2.2961,2.2015,2.1313,2.0515,1.9465,1.9517,1.886,1.7115,1.6967,1.6992,1.6885,1.6885,1.6836,1.6665,1.6665,1.6665,1.6665,1.6665,1.6787,1.6894,1.7227,1.7016,1.2274,1.3985,1.5511,1.6382,1.7405,0.0,2.1175,2.1027,0.0,0.0,0.0,0.0,0.0,0.0,0.0,0.0,0.0,0.0,0.0,0.0,0.0,0.0,0.0,0.0,0.0,0.0,0.0,0.0,0.0,0.0,3.3574,3.3594,3.3965,3.4766,3.4785,3.5176,3.5996,3.5996,3.5996,3.5996,3.5937,3.5913,3.5894,3.5695,3.5611,3.5603,3.5545,3.5493,3.5493,3.5493,3.5493,3.5479,3.5223,3.4981,3.4773,3.4753,3.4733,3.4694,3.4694,3.4508,3.4242,3.4242,3.4043,3.3762,3.339,3.3243,3.3014,3.2161,3.188,3.188,3.1861,3.1825,3.1551,3.0649,3.0377,3.0208,2.9585,2.9012,2.8559,2.8511,2.7993,2.7625,2.7625,2.7034,2.6563,2.651,2.5342,2.4408,2.4292,2.3623,2.2834,2.2002,2.1141,1.9955,1.8287,1.887,1.8916,1.7988,1.792,1.7744,1.7353,1.7334,1.7148,1.6738,1.6665,1.6665,1.6665,1.6665,1.6943,1.7334,1.7373,1.7588,1.1099,1.3304,1.5614,1.6484,1.8123,0.0,0.0,0.0,0.0,0.0,0.0,0.0,0.0,0.0,0.0,0.0,0.0,0.0,0.0,0.0,0.0,0.0,0.0,0.0,0.0,0.0,0.0,0.0,0.0,0.0,3.3379,3.3398,3.3555,3.3887,3.3887,3.4043,3.4375,3.4884,3.5133,3.5133,3.5642,3.5853,3.5776,3.5661,3.5603,3.5603,3.5545,3.5493,3.5493,3.532,3.5239,3.5223,3.4963,3.4655,3.4379,3.4379,3.4284,3.4136,3.4136,3.4062,3.3961,3.3961,3.3725,3.3408,3.3243,3.2809,3.2264,3.188,3.164,3.1411,3.1411,3.1411,3.124,3.046,3.0293,3.0038,2.9042,2.8654,2.8367,2.7993,2.776,2.7458,2.6982,2.6669,2.6176,2.5287,2.4681,2.4118,2.3603,2.3305,2.2823,2.2013,2.0655,1.9309,1.8076,1.8269,1.8337,1.8008,1.8008,1.7939,1.7783,1.7773,1.7695,1.7529,1.7529,1.7529,1.7529,1.7529,1.7607,1.7773,1.7773,1.7571,1.1113,1.3418,1.6016,0.0,0.0,0.0,2.2071,0.0,0.0,0.0,0.0,0.0,0.0,0.0,0.0,0.0,0.0,0.0,0.0,0.0,0.0,0.0,0.0,0.0,0.0,0.0,0.0,0.0,0.0,0.0,0.0,3.2617,3.2734,3.3008,3.299,3.308,3.3376,3.3885,3.4268,3.4499,3.5103,3.5488,3.568,3.5603,3.5584,3.5584,3.5526,3.5446,3.5369,3.519,3.4999,3.4794,3.4614,3.4334,3.4074,3.4074,3.3884,3.3606,3.3606,3.3504,3.339,3.339,3.3196,3.2952,3.2809,3.2332,3.1789,3.166,3.1411,3.1151,3.0975,3.0918,3.0699,2.9935,2.9717,2.9451,2.8463,2.8238,2.8091,2.766,2.7408,2.7086,2.6563,2.6122,2.5453,2.4452,2.406,2.3708,2.3198,2.3078,2.2689,2.1616,1.9944,1.8654,1.8076,1.8008,1.8008,1.8008,1.8008,1.8008,1.8008,1.8008,1.8008,1.8008,1.8008,1.8008,1.8008,1.8008,1.8008,1.8008,1.8008,1.7647,1.2891,1.4766,0.0,0.0,0.0,0.0,0.0,0.0,0.0,0.0,0.0,0.0,0.0,0.0,0.0,0.0,0.0,0.0,0.0,0.0,0.0,0.0,0.0,0.0,0.0,0.0,0.0,0.0,0.0,0.0,0.0,3.0898,3.1289,3.2168,3.2054,3.2413,3.3272,3.3219,3.3552,3.4289,3.4289,3.4737,3.5603,3.5545,3.5493,3.5493,3.5493,3.5354,3.5105,3.5088,3.4755,3.4218,3.42,3.4018,3.3788,3.3788,3.3522,3.3184,3.3184,3.289,3.2484,3.2484,3.2484,3.2417,3.1915,3.1789,3.1733,3.1329,3.119,3.1055,3.0435,3.0293,2.9978,2.8779,2.8511,2.8319,2.771,2.7625,2.7625,2.7575,2.6982,2.651,2.6457,2.5287,2.4292,2.4292,2.359,2.3078,2.3078,2.3078,2.2433,2.0782,1.9044,1.8008,1.8008,1.8008,1.8008,1.8008,1.8008,1.8008,1.8008,1.8008,1.8008,1.8008,1.8008,1.8008,1.8008,1.8008,1.8008,1.8008,1.8008,1.8008,1.2148,0.0,0.0,0.0,0.0,0.0,0.0,0.0,0.0,0.0,0.0,0.0,0.0,0.0,0.0,0.0,0.0,0.0,0.0,0.0,0.0,0.0,0.0,0.0,0.0,0.0,0.0,0.0,0.0,0.0,0.0,3.0803,3.0881,3.1133,3.1061,3.1137,3.1395,3.1937,3.2331,3.2551,3.3064,3.4083,3.5545,3.5526,3.5493,3.5493,3.5304,3.5155,3.507,3.4636,3.4242,3.3884,3.3607,3.3458,3.3332,3.2996,3.2809,3.2713,3.2713,3.2616,3.2484,3.2484,3.2282,3.1986,3.1861,3.1603,3.1351,3.123,3.0878,3.0435,2.9805,2.9361,2.8966,2.8606,2.8511,2.8319,2.771,2.7625,2.7458,2.693,2.6669,2.6176,2.5119,2.4567,2.4118,2.3543,2.3245,2.3078,2.3078,2.3078,2.2433,2.0782,2.0139,1.9299,1.8076,1.8008,1.8008,1.8008,1.8008,1.8008,1.8008,1.8008,1.8008,1.8008,1.8008,1.8008,1.8008,1.8008,1.8008,1.8008,1.8008,1.7647,1.3574,0.0,0.0,0.0,0.0,0.0,0.0,0.0,0.0,0.0,0.0,0.0,0.0,0.0,0.0,0.0,0.0,0.0,0.0,0.0,0.0,0.0,0.0,0.0,0.0,0.0,0.0,0.0,0.0,0.0,0.0,3.0719,3.0665,3.066,3.0588,3.0559,3.0564,3.1013,3.136,3.1615,3.2056,3.2948,3.4209,3.4634,3.5009,3.532,3.4925,3.4736,3.4696,3.4242,3.3935,3.3762,3.3361,3.3214,3.3136,3.2681,3.2384,3.2196,3.2196,3.2109,3.1986,3.1986,3.1787,3.1565,3.1565,3.1372,3.1151,3.0918,3.0559,3.0123,2.9271,2.8779,2.8415,2.8189,2.814,2.8042,2.7675,2.7357,2.7034,2.6563,2.6014,2.5342,2.4452,2.406,2.3662,2.3185,2.3078,2.3078,2.3078,2.2823,2.2249,2.1227,2.0526,1.9694,1.8596,1.8202,1.8008,1.8008,1.8008,1.8008,1.8008,1.8008,1.8008,1.8008,1.8008,1.8008,1.8008,1.8008,1.8008,1.8008,1.8008,1.7716,0.0,0.0,0.0,0.0,0.0,0.0,0.0,0.0,0.0,0.0,0.0,0.0,0.0,0.0,0.0,0.0,0.0,0.0,0.0,0.0,0.0,0.0,0.0,0.0,0.0,0.0,0.0,0.0,0.0,0.0,0.0,3.064,3.0599,3.0595,3.0525,3.0475,3.0444,3.0386,3.0624,3.1161,3.1161,3.1485,3.2127,3.3175,3.4118,3.4884,3.4314,3.412,3.4147,3.3902,3.3807,3.3762,3.3302,3.3154,3.3075,3.2583,3.2109,3.1752,3.1752,3.1507,3.119,3.119,3.119,3.119,3.119,3.119,3.1055,3.0477,3.0251,2.9935,2.8779,2.8463,2.8271,2.771,2.7625,2.7575,2.7509,2.6982,2.6457,2.6336,2.5231,2.4292,2.4176,2.3603,2.3078,2.3078,2.3078,2.3078,2.3078,2.2445,2.2002,2.2002,2.059,1.9552,1.9365,1.8654,1.8202,1.8134,1.8144,1.8076,1.8008,1.8008,1.8008,1.8008,1.8008,1.8008,1.8008,1.8008,1.8008,1.8008,1.8008,1.8008,0.0,0.0,0.0,0.0,0.0,0.0,0.0,0.0,0.0,0.0,0.0,0.0,0.0,0.0,0.0,0.0,0.0,0.0,0.0,0.0,0.0,0.0,0.0,0.0,0.0,0.0,0.0,0.0,0.0,0.0,3.0621,3.0563,3.0516,3.0525,3.0467,3.0318,3.0109,3.0089,3.0064,3.0047,3.0047,3.0464,3.1297,3.2145,3.2883,3.3449,3.3318,3.3499,3.3876,3.3815,3.3807,3.3734,3.2934,3.2648,3.255,3.175,3.1428,3.1312,3.1312,3.1252,3.119,3.119,3.119,3.119,3.119,3.119,3.1055,3.0477,2.9935,2.9406,2.8701,2.814,2.776,2.7625,2.7625,2.7458,2.6878,2.6616,2.6176,2.5007,2.4509,2.4118,2.3484,2.3185,2.3078,2.3078,2.3078,2.3078,2.3078,2.2944,2.2823,2.2823,2.2506,2.153,1.9748,1.9879,1.9759,1.9044,1.9044,1.8721,1.8008,1.8008,1.8008,1.8008,1.8008,1.8008,1.8008,1.8008,1.8008,1.8008,1.8008,1.8008,0.0,0.0,0.0,0.0,0.0,0.0,0.0,0.0,0.0,0.0,0.0,0.0,0.0,0.0,0.0,0.0,0.0,0.0,0.0,0.0,0.0,0.0,0.0,0.0,0.0,0.0,0.0,0.0,0.0,3.0583,3.0544,3.0487,3.0448,3.0448,3.0286,3.0136,2.9999,2.9908,2.9765,2.957,2.957,2.9738,3.0087,3.1427,3.2091,3.2242,3.2053,3.2334,3.293,3.2723,3.2852,3.3118,3.2433,3.2161,3.2109,3.1466,3.119,3.119,3.119,3.119,3.119,3.119,3.119,3.119,3.119,3.1015,3.0658,3.0038,2.9451,2.8826,2.8238,2.786,2.7524,2.7152,2.7086,2.6982,2.6563,2.596,2.5231,2.4452,2.4002,2.3603,2.3185,2.3078,2.3078,2.3078,2.3078,2.3078,2.3078,2.3078,2.3078,2.3078,2.3078,2.2628,2.1404,2.1089,2.0579,1.9552,1.9365,1.8911,1.8008,1.8008,1.8008,1.8008,1.8008,1.8008,1.8008,1.8008,1.8008,1.8008,1.8008,1.8008,0.0,0.0,0.0,0.0,0.0,0.0,0.0,0.0,0.0,0.0,0.0,0.0,0.0,0.0,0.0,0.0,0.0,0.0,0.0,0.0,0.0,0.0,0.0,0.0,0.0,0.0,0.0,0.0,0.0,3.0487,3.0487,3.0417,3.0367,3.0323,3.0122,2.9969,2.9893,2.9731,2.9533,2.933,2.933,2.9203,2.9053,3.0535,3.1154,3.1064,3.0803,3.1062,3.1696,3.1484,3.1753,3.229,3.1934,3.1789,3.1752,3.1351,3.119,3.119,3.119,3.119,3.119,3.119,3.119,3.119,3.1072,3.0699,3.0166,2.9451,2.8873,2.8383,2.776,2.7625,2.7408,2.6669,2.6404,2.6283,2.6176,2.5175,2.4234,2.4118,2.3543,2.3078,2.3078,2.3078,2.3078,2.3078,2.3078,2.3078,2.3078,2.3078,2.3078,2.3078,2.3078,2.3078,2.3078,2.2237,2.1215,2.0063,1.9683,1.9044,1.8008,1.8008,1.8008,1.8008,1.8008,1.8008,1.8008,1.8008,1.794,1.7794,1.794,1.7794,0.0,0.0,0.0,0.0,0.0,0.0,0.0,0.0,0.0,0.0,0.0,0.0,0.0,0.0,0.0,0.0,0.0,0.0,0.0,0.0,0.0,0.0,0.0,0.0,0.0,0.0,0.0,0.0,3.0506,3.0467,3.0417,3.0398,3.0299,3.0061,3.0013,2.9829,2.9474,2.9454,2.931,2.9044,2.9044,2.9021,2.8994,2.8907,2.9217,2.9835,2.9809,3.0068,3.0581,3.1178,3.1466,3.1561,3.1725,3.1789,3.1752,3.1351,3.119,3.119,3.119,3.119,3.119,3.119,3.119,3.1095,3.0576,3.0335,3.0081,2.8919,2.8559,2.8383,2.776,2.7625,2.7408,2.6669,2.6014,2.5342,2.4738,2.4452,2.4118,2.3424,2.3185,2.3078,2.3078,2.3078,2.3078,2.3078,2.3078,2.3078,2.3078,2.3078,2.3078,2.3078,2.3078,2.3078,2.3078,2.2944,2.2372,2.1215,2.0707,1.9694,1.8076,1.8008,1.8008,1.8008,1.8008,1.8008,1.8008,1.8008,1.7579,1.6784,1.7647,1.7148,0.0,0.0,0.0,0.0,0.0,0.0,0.0,0.0,0.0,0.0,0.0,0.0,0.0,0.0,0.0,0.0,0.0,0.0,0.0,0.0,0.0,0.0,0.0,0.0,0.0,0.0,0.0,0.0,3.0467,3.0417,3.0398,3.0254,3.0122,2.9999,2.978,2.957,2.9412,2.9246,2.9112,2.8994,2.8994,2.8863,2.8658,2.8471,2.8601,2.8899,2.85,2.8669,2.9239,2.9344,2.966,3.0093,3.0636,3.0871,3.0885,3.1099,3.119,3.119,3.119,3.119,3.119,3.119,3.0975,3.0658,3.0393,2.9805,2.918,2.8654,2.8286,2.7944,2.7675,2.7625,2.7408,2.6481,2.5837,2.5063,2.3884,2.3662,2.3531,2.3198,2.3078,2.3078,2.3078,2.3078,2.3078,2.3078,2.3078,2.3078,2.3078,2.3078,2.3078,2.3078,2.3078,2.3078,2.3078,2.2249,2.1479,2.0962,2.0268,1.9299,1.8076,1.8008,1.8008,1.8008,1.8008,1.8008,1.8008,1.8008,1.7501,1.6636,1.7001,1.6507,0.0,0.0,0.0,0.0,0.0,0.0,0.0,0.0,0.0,0.0,0.0,0.0,0.0,0.0,0.0,0.0,0.0,0.0,0.0,0.0,0.0,0.0,0.0,0.0,0.0,0.0,0.0,0.0,3.0362,3.0299,3.0299,3.0061,2.9908,2.9845,2.957,2.9372,2.9289,2.9089,2.8994,2.8994,2.8905,2.8682,2.8376,2.8219,2.8112,2.8084,2.7542,2.7552,2.7942,2.7827,2.8163,2.8789,2.9736,3.0108,3.0192,3.092,3.119,3.119,3.119,3.119,3.119,3.119,3.0878,3.0477,3.0166,2.9451,2.8638,2.8383,2.7959,2.7625,2.7625,2.7408,2.7004,2.6133,2.5494,2.4724,2.3412,2.3078,2.3078,2.3078,2.3078,2.3078,2.3078,2.3078,2.3078,2.3078,2.3078,2.3078,2.3078,2.3078,2.3078,2.3078,2.3078,2.3078,2.3078,2.1164,1.9944,1.9944,1.9562,1.8911,1.8008,1.8008,1.8008,1.8008,1.8008,1.8008,1.8008,1.8008,1.7501,1.6636,1.6636,1.593,0.0,0.0,0.0,0.0,0.0,0.0,0.0,0.0,0.0,0.0,0.0,0.0,0.0,0.0,0.0,0.0,0.0,0.0,0.0,0.0,0.0,0.0,0.0,0.0,0.0,0.0,0.0,0.0,3.0182,3.0013,3.0013,2.9829,2.9644,2.9434,2.9412,2.9267,2.9021,2.9017,2.8994,2.8994,2.8615,2.842,2.8394,2.7689,2.7348,2.7348,2.7334,2.7117,2.6843,2.752,2.7806,2.7992,2.9516,3.0108,3.0192,3.092,3.119,3.119,3.119,3.119,3.119,3.119,3.119,3.0935,2.9805,2.9406,2.9134,2.7993,2.7625,2.7625,2.7625,2.6901,2.6079,2.555,2.4894,2.4118,2.3305,2.3078,2.3078,2.3078,2.3078,2.3078,2.3078,2.3078,2.3078,2.3078,2.3078,2.3078,2.3078,2.3078,2.3078,2.3078,2.3078,2.3078,2.3078,2.0063,1.8144,1.8144,1.8854,1.8911,1.8008,1.8008,1.8008,1.8008,1.8008,1.8008,1.8008,1.8008,1.7501,1.6636,1.6636,1.5579,0.0,0.0,0.0,0.0,0.0,0.0,0.0,0.0,0.0,0.0,0.0,0.0,0.0,0.0,0.0,0.0,0.0,0.0,0.0,0.0,0.0,0.0,0.0,0.0,0.0,0.0,0.0,0.0,0.0,2.8403,2.8268,2.8043,2.7867,2.7811,2.8172,2.8452,2.8615,2.8386,2.8281,2.8281,2.8147,2.7946,2.7689,2.7409,2.7147,2.6906,2.6906,2.6841,2.6708,2.6996,2.7097,2.7199,2.823,2.8941,2.9465,3.0226,3.0784,3.119,3.119,3.0935,3.0699,3.1055,3.0518,2.9613,2.9451,2.8857,2.8174,2.771,2.7625,2.7625,2.7625,2.6849,2.5849,2.4894,2.4105,2.3424,2.3125,2.3078,2.3078,2.3078,2.3078,2.3078,2.3078,2.3078,2.3078,2.3078,2.3078,2.3078,2.3078,2.3078,2.3078,2.3078,2.3078,2.3078,2.3078,1.9998,1.8008,1.8008,1.8269,1.8337,1.8008,1.8008,1.8008,1.8008,1.8008,1.8008,1.8008,1.8008,1.7501,1.6636,1.6636,1.593,1.1719,0.0,0.0,0.0,0.0,0.0,0.0,0.0,0.0,0.0,0.0,0.0,0.0,0.0,0.0,0.0,0.0,0.0,0.0,0.0,0.0,0.0,0.0,0.0,0.0,0.0,0.0,0.0,0.0,0.0,2.7159,2.6823,2.6571,2.6471,2.6845,2.7302,2.7869,2.7646,2.7649,2.7897,2.7765,2.756,2.7303,2.7147,2.6954,2.6691,2.6691,2.6691,2.6691,2.6691,2.6691,2.6776,2.752,2.8146,2.8721,2.9736,3.0412,3.083,3.0891,3.0601,3.0251,3.0518,2.9613,2.8432,2.8717,2.8222,2.7625,2.7625,2.7625,2.7625,2.7625,2.6625,2.5301,2.4163,2.3484,2.3078,2.3078,2.3078,2.3078,2.3078,2.3078,2.3078,2.3078,2.3078,2.3078,2.3078,2.3078,2.3078,2.3078,2.3078,2.3078,2.3078,2.3078,2.3078,2.3078,2.0322,1.8586,1.8586,1.8202,1.8008,1.8008,1.8008,1.8008,1.8008,1.8008,1.8008,1.8008,1.8008,1.7647,1.707,1.6775,1.614,0.0,0.0,0.0,0.0,0.0,0.0,0.0,0.0,0.0,0.0,0.0,0.0,0.0,0.0,0.0,0.0,0.0,0.0,0.0,0.0,0.0,0.0,0.0,0.0,0.0,0.0,0.0,0.0,2.6965,2.6823,2.6805,2.6286,2.5889,2.5575,2.5549,2.5932,2.6738,2.6729,2.7101,2.7833,2.7452,2.7269,2.7272,2.6873,2.6691,2.6691,2.6691,2.6691,2.6691,2.6691,2.6691,2.6776,2.7503,2.7772,2.7958,2.9499,3.0074,3.0078,3.0212,3.0133,2.9859,2.948,2.8575,2.7625,2.7625,2.7625,2.7625,2.7625,2.7625,2.7575,2.7509,2.6011,2.4355,2.3352,2.3078,2.3078,2.3078,2.3078,2.3078,2.3078,2.3078,2.3078,2.3078,2.3078,2.3078,2.3078,2.3078,2.3078,2.3078,2.3078,2.3078,2.3078,2.3078,2.3078,2.2944,2.0951,1.9683,1.9672,1.8586,1.8008,1.8008,1.8008,1.8008,1.8008,1.8008,1.8008,1.8008,1.8008,1.8008,1.8008,1.707,1.6351,1.0469,0.0,0.0,0.0,0.0,0.0,0.0,0.0,0.0,0.0,0.0,0.0,0.0,0.0,0.0,0.0,0.0,0.0,0.0,0.0,0.0,0.0,0.0,0.0,0.0,0.0,0.0,0.0,2.4967,2.4744,2.46,2.4217,2.423,2.4726,2.4506,2.4758,2.5572,2.5259,2.5506,2.623,2.6104,2.6362,2.6873,2.6758,2.6691,2.6691,2.6691,2.6691,2.6691,2.6691,2.6691,2.6708,2.6911,2.7334,2.784,2.8262,2.885,2.9457,2.9477,2.8925,2.8257,2.8823,2.8352,2.7625,2.7625,2.7625,2.7625,2.7625,2.7625,2.7122,2.491,2.4469,2.4355,2.3352,2.3078,2.3078,2.3078,2.3078,2.3078,2.3078,2.3078,2.3078,2.3078,2.3078,2.3078,2.3078,2.3078,2.3078,2.3078,2.3078,2.3078,2.3078,2.3078,2.2113,1.9617,2.0009,1.9814,1.8519,1.8134,1.8008,1.8008,1.8008,1.8008,1.8008,1.8008,1.8008,1.8008,1.8008,1.8008,1.8008,1.7998,1.8168,1.1602,1.1708,0.0,0.0,0.0,0.0,0.0,0.0,0.0,0.0,0.0,0.0,0.0,0.0,0.0,0.0,0.0,0.0,0.0,0.0,0.0,0.0,0.0,0.0,0.0,2.4595,2.4368,2.4192,2.3848,2.3559,2.33,2.3093,2.3175,2.3493,2.3333,2.3618,2.4368,2.4168,2.4408,2.5135,2.5456,2.5828,2.6251,2.6556,2.6691,2.6691,2.6691,2.6691,2.6691,2.6691,2.6691,2.6691,2.647,2.6669,2.7052,2.7155,2.7679,2.8362,2.8117,2.7799,2.7455,2.7257,2.7385,2.7509,2.6864,2.6692,2.6692,2.6692,2.624,2.5301,2.3577,2.3518,2.3859,2.3245,2.3078,2.3078,2.3078,2.3078,2.3078,2.3078,2.3078,2.3078,2.3078,2.3078,2.3078,2.3078,2.1916,2.0951,2.0951,2.0951,2.0951,2.0951,2.2237,2.1729,1.8259,1.9365,1.9748,1.8586,1.8202,1.8008,1.8008,1.8008,1.8008,1.8008,1.8008,1.8008,1.8008,1.8008,1.8008,1.8008,1.8388,1.8824,1.3398,1.3203,1.3531,0.0,0.0,0.0,1.6471,1.6272,0.0,0.0,0.0,0.0,0.0,0.0,0.0,0.0,0.0,0.0,0.0,0.0,0.0,0.0,0.0,0.0,2.4476,2.4155,2.3888,2.3653,2.3346,2.2996,2.2686,2.266,2.2537,2.2237,2.2265,2.2558,2.3139,2.3245,2.363,2.4326,2.5002,2.5406,2.5507,2.6234,2.6573,2.6573,2.6657,2.6657,2.6624,2.6624,2.6624,2.659,2.6139,2.5961,2.5934,2.6099,2.6518,2.696,2.6533,2.6723,2.6941,2.5516,2.6036,2.6956,2.5748,2.5177,2.4997,2.5134,2.415,2.3078,2.3078,2.3078,2.3078,2.3078,2.3078,2.3078,2.3078,2.3078,2.3005,2.2628,2.2811,2.3078,2.3078,2.3078,2.3078,2.3078,2.0193,1.8008,1.8008,1.8008,1.8008,1.8008,2.0707,2.1279,1.8269,1.8911,1.942,1.9177,1.8462,1.8008,1.8008,1.8008,1.8008,1.8008,1.8008,1.794,1.7862,1.794,1.8018,1.8095,1.8478,1.8921,1.5156,1.541,1.5662,1.4537,0.0,0.0,0.0,1.5465,0.0,0.0,0.0,0.0,0.0,0.0,0.0,0.0,0.0,0.0,0.0,0.0,0.0,0.0,0.0,0.0,2.4137,2.3886,2.3635,2.3305,2.2996,2.266,2.2388,2.2388,2.2175,2.1748,2.2106,2.2041,2.1455,2.2161,2.2706,2.3054,2.3563,2.4137,2.4729,2.5473,2.5812,2.5862,2.6437,2.6487,2.6156,2.6156,2.6156,2.612,2.6049,2.5726,2.5351,2.542,2.5552,2.5733,2.5656,2.5418,2.5213,2.5407,2.4986,2.4491,2.4941,2.3743,2.2424,2.3334,2.3305,2.3078,2.3078,2.3078,2.3078,2.3078,2.3078,2.3078,2.3078,2.3078,2.2298,1.9552,2.1215,2.3078,2.3078,2.3078,2.3078,2.3078,2.0193,1.8008,1.8008,1.8008,1.8008,1.8008,1.8586,1.8721,1.8076,1.8202,1.8337,1.8269,1.8066,1.8008,1.8008,1.8008,1.8008,1.8008,1.8008,1.7647,1.6853,1.7647,1.8193,1.8486,1.8921,1.9389,1.7051,1.7012,1.7225,1.6675,0.0,0.0,0.0,0.0,0.0,0.0,0.0,0.0,0.0,0.0,0.0,0.0,0.0,0.0,0.0,0.0,0.0,0.0,0.0,0.0,2.3866,2.3464,2.3087,2.2773,2.2368,2.2091,2.1957,2.1781,2.1554,2.1306,2.1524,2.1462,2.0991,2.1415,2.1718,2.1858,2.2455,2.296,2.3324,2.4067,2.4595,2.4924,2.5287,2.5491,2.5615,2.5615,2.5449,2.5221,2.5221,2.5028,2.4776,2.4511,2.4456,2.4524,2.4524,2.4323,2.4178,2.4492,2.4178,2.3652,2.3759,2.2697,2.1656,2.2485,2.2723,2.2786,2.3002,2.3078,2.3078,2.3078,2.3078,2.3078,2.3078,2.1791,2.0063,1.8337,1.9354,2.0579,2.0579,2.0579,2.0579,2.0579,1.91,1.8008,1.8008,1.8008,1.8008,1.8008,1.8008,1.8008,1.8008,1.8008,1.8008,1.8008,1.8008,1.8008,1.8008,1.8008,1.8008,1.8008,1.8008,1.7442,1.6367,1.6385,1.6643,1.7097,1.755,1.7966,0.0,0.0,0.0,0.0,0.0,1.6663,0.0,0.0,0.0,1.7977,0.0,0.0,0.0,0.0,0.0,0.0,0.0,0.0,0.0,0.0,0.0,0.0,0.0,0.0,2.3372,2.2604,2.2131,2.2175,2.1499,2.1226,2.1475,2.1181,2.0959,2.0862,2.0959,2.0926,2.0764,2.091,2.0959,2.0862,2.1551,2.1889,2.1905,2.2662,2.3288,2.3815,2.4088,2.4463,2.4875,2.5003,2.4752,2.4282,2.4348,2.4348,2.4184,2.3752,2.3595,2.3595,2.3595,2.3595,2.3595,2.3465,2.3314,2.3017,2.2421,2.1852,2.143,2.187,2.2121,2.2397,2.2927,2.3078,2.3078,2.3078,2.3078,2.2944,2.2237,1.9933,1.8008,1.8008,1.8008,1.8008,1.8008,1.8008,1.8008,1.8008,1.8008,1.8008,1.8008,1.8008,1.8008,1.8008,1.8008,1.8008,1.8008,1.8008,1.8008,1.8008,1.8008,1.8008,1.8008,1.8008,1.8008,1.8008,1.7794,1.7135,1.6237,1.5157,1.5075,1.5716,1.6097,1.6492,0.0,0.0,0.0,0.0,2.0087,0.0,0.0,0.0,1.7252,1.6862,0.0,0.0,0.0,0.0,0.0,0.0,0.0,0.0,0.0,0.0,0.0,0.0,0.0,0.0,0.0,2.0881,2.0511,2.1589,2.0208,1.9796,2.099,2.1023,2.0797,2.0382,2.0797,2.0632,1.9854,2.0599,2.0797,2.0382,2.0909,2.1119,2.1135,2.1889,2.2292,2.2403,2.3654,2.3988,2.3655,2.4262,2.4184,2.3767,2.4184,2.4116,2.3681,2.3638,2.3595,2.3595,2.3595,2.3595,2.3508,2.2965,2.203,2.1086,2.1037,2.0914,2.0819,2.084,2.1443,2.2176,2.289,2.3078,2.3078,2.3078,2.3078,2.2237,1.9233,1.8269,1.8008,1.8008,1.8008,1.8008,1.8008,1.8008,1.8008,1.8008,1.8008,1.8008,1.8008,1.8008,1.8008,1.8008,1.8008,1.8008,1.8008,1.8008,1.8008,1.8008,1.8008,1.8008,1.8008,1.8008,1.8008,1.8008,1.6872,1.6386,1.6624,1.5032,1.4901,1.6112,1.6445,1.6812,0.0,0.0,0.0,0.0,0.0,0.0,1.7286,0.0,1.7285,0.0,0.0,0.0,0.0,0.0,0.0,0.0,0.0,0.0,0.0,0.0,0.0,0.0,0.0,0.0,0.0,0.0,0.0,0.0,1.9447,1.9238,2.0035,2.0162,2.0139,1.9965,2.0139,2.0085,1.969,2.005,2.0139,1.9929,2.0139,2.0243,2.0258,2.057,2.091,2.1342,2.1914,2.2494,2.3021,2.3295,2.3477,2.3595,2.3478,2.3478,2.3595,2.3595,2.3595,2.3595,2.3595,2.3377,2.292,2.1941,2.1224,2.0759,2.0359,2.0168,2.0263,2.0702,2.0778,2.1117,2.2723,2.3078,2.3078,2.3078,2.3078,2.2175,1.8721,1.8008,1.8008,1.8008,1.8008,1.8008,1.8008,1.8008,1.8008,1.8008,1.8008,1.8008,1.8008,1.8008,1.8008,1.8008,1.8008,1.8008,1.8008,1.8008,1.8008,1.8008,1.8008,1.8008,1.8008,1.8008,1.8008,1.8008,1.6962,1.6203,1.56,1.4638,1.4351,1.467,1.4837,1.509,2.4043,0.0,0.0,0.0,0.0,0.0,0.0,0.0,0.0,0.0,0.0,0.0,0.0,0.0,1.7991,1.7741,0.0,1.7079,0.0,0.0,0.0,0.0,0.0,0.0,0.0,0.0,0.0,0.0,0.0,1.8259,1.9291,1.9394,1.9459,1.9479,1.9479,1.9406,1.9244,1.9244,1.9244,1.9244,1.9406,1.9479,1.9479,1.9639,1.9959,2.0438,2.0632,2.1168,2.1939,2.2295,2.261,2.2849,2.2563,2.2665,2.3069,2.3069,2.3069,2.3069,2.3069,2.2665,2.2035,2.1175,2.0696,2.0459,1.9952,1.9798,1.9911,2.0476,2.0238,2.0175,2.1807,2.1922,2.1729,2.1729,2.1729,2.1026,1.8519,1.8008,1.8008,1.8008,1.8008,1.8008,1.8008,1.8008,1.8008,1.8008,1.8008,1.8008,1.8008,1.8008,1.8008,1.8008,1.8008,1.8008,1.8008,1.8008,1.8008,1.8008,1.8008,1.8008,1.8008,1.8008,1.7871,1.7669,1.6666,1.5646,1.4613,1.4206,1.3895,1.3768,1.3768,1.3881,0.0,0.0,0.0,2.1465,0.0,0.0,0.0,0.0,1.7765,0.0,0.0,0.0,0.0,1.9561,1.8684,1.7837,1.7702,0.0,0.0,0.0,0.0,0.0,0.0,0.0,0.0,0.0,0.0,0.0,1.6469,1.6435,1.9054,1.8906,1.8791,1.8916,1.893,1.8688,1.8185,1.8145,1.8145,1.8185,1.8688,1.893,1.893,1.9442,1.969,1.975,2.0423,2.0439,2.0085,2.1254,2.1451,2.1028,2.1536,2.1744,2.1744,2.1744,2.1744,2.1744,2.1744,2.139,2.0894,2.1042,2.0547,1.985,1.9798,1.9798,1.9811,1.9836,1.9823,1.9823,1.9899,1.9015,1.8134,1.8134,1.8134,1.8144,1.8008,1.8008,1.8008,1.8008,1.8008,1.8008,1.8008,1.8008,1.8008,1.8008,1.8008,1.8008,1.8008,1.8008,1.8008,1.8008,1.8008,1.8008,1.8008,1.8008,1.8008,1.8008,1.8008,1.8008,1.8008,1.8008,1.7618,1.675,1.5517,1.4594,1.4132,1.3788,1.3801,1.4075,1.4075,1.4082,0.0,0.0,2.5156,2.2832,0.0,0.0,0.0,0.0,0.0,0.0,0.0,0.0,0.0,1.9581,1.8703,1.7837,1.7253,1.6087,0.0,0.0,0.0,0.0,0.0,0.0,0.0,0.0,0.0,0.0,1.5695,0.0,1.8439,1.8302,1.839,1.8864,1.8574,1.8302,1.8106,1.8106,1.8106,1.8106,1.8302,1.838,1.838,1.8574,1.865,1.8664,1.8878,1.914,1.9417,2.0189,2.0645,2.0909,2.1029,2.1113,2.1161,2.1568,2.1697,2.1649,2.1245,2.0979,2.0746,2.0346,2.0055,1.9798,1.9798,1.9798,1.9798,1.9798,1.837,1.689,1.689,1.742,1.8008,1.8008,1.8008,1.8008,1.8008,1.8008,1.8008,1.8008,1.8008,1.8008,1.8008,1.8008,1.8008,1.8008,1.8008,1.8008,1.8008,1.8008,1.8008,1.8008,1.8008,1.8008,1.8008,1.8008,1.8008,1.8008,1.5649,1.4227,1.4227,1.5324,1.5724,1.5442,1.5142,1.4931,1.4753,1.4213,1.3988,1.4088,1.4088,1.4088,2.5703,2.5703,0.0,2.3536,2.2286,0.0,1.8814,0.0,0.0,0.0,0.0,0.0,0.0,1.9934,1.8811,1.8198,1.7154,1.5598,0.0,1.2994,0.0,0.0,0.0,0.0,0.0,0.0,1.4135,1.5201,1.4953,0.0,0.0,1.7711,1.7755,1.8219,1.7956,1.7706,1.7544,1.7544,1.7544,1.7544,1.7706,1.7827,1.7827,1.8027,1.8106,1.8106,1.8106,1.8247,1.8494,1.9282,1.9719,1.998,2.0296,2.0446,2.0497,2.0904,2.1037,2.0939,2.0257,2.0232,2.0346,1.9952,1.9798,1.9579,1.8543,1.8263,1.8263,1.8263,1.6845,1.541,1.541,1.6699,1.8008,1.8008,1.8008,1.8008,1.8008,1.8008,1.8008,1.8008,1.7442,1.7226,1.7862,1.7442,1.7226,1.7872,1.8008,1.8008,1.8008,1.6793,1.6507,1.7872,1.8008,1.7432,1.6079,1.7226,1.8008,1.8008,1.5084,1.3521,1.3815,1.4471,1.4797,1.4919,1.5046,1.4962,1.476,1.4316,1.4088,1.4088,1.4088,1.4088]},{"header":{"parameterUnit":"m.s-1","parameterCategory":1,"la1":30.6,"la2":29.2853,"lo1":-89.7004,"lo2":-87.6739,"dy":0.0162,"dx":0.0183,"nx":112,"ny":82,"refTime":"2024-06-06T06:00:00:Z","depth":0,"parameterNumber":3,"parameterNumberName":"V-component_of_WINDS"},"data":[0.0,0.0,0.0,0.0,0.0,0.0,0.0,0.0,0.0,0.0,0.0,0.0,0.0,0.0,0.0,0.0,0.0,0.0,0.0,0.0,0.0,0.0,0.0,0.0,0.0,0.0,0.0,0.0,0.0,0.0,0.0,0.0,0.0,0.0,0.0,0.0,0.0,0.0,0.0,0.0,0.0,0.0,0.0,0.0,0.0,0.0,0.0,0.0,0.0,0.0,0.0,0.0,0.0,0.0,0.0,0.0,0.0,0.0,0.0,0.0,0.0,0.0,0.0,0.0,0.0,0.0,0.0,0.0,0.0,0.0,0.0,0.0,0.0,0.0,0.0,0.0,0.0,0.0,0.0,0.0,0.0,0.0,0.0,0.0,0.0,0.0,0.0,0.0,0.0,0.0,0.0,-1.3916,-1.5711,-1.6789,-1.6789,-1.5719,-1.405,-1.1696,0.0,0.0,0.0,0.0,0.0,0.0,0.0,0.0,0.0,0.0,0.0,0.0,0.0,0.0,0.0,0.0,0.0,0.0,0.0,0.0,0.0,0.0,0.0,0.0,0.0,0.0,0.0,0.0,0.0,0.0,0.0,0.0,0.0,0.0,0.0,0.0,0.0,0.0,0.0,0.0,0.0,0.0,0.0,0.0,0.0,0.0,0.0,0.0,0.0,0.0,0.0,0.0,0.0,0.0,0.0,0.0,0.0,0.0,0.0,0.0,0.0,0.0,0.0,0.0,0.0,0.0,0.0,0.0,0.0,0.0,0.0,0.0,0.0,0.0,0.0,0.0,0.0,0.0,0.0,0.0,0.0,0.0,0.0,0.0,0.0,0.0,0.0,0.0,0.0,0.0,0.0,0.0,0.0,0.0,0.0,0.0,0.0,0.0,0.0,0.0,0.0,0.0,0.0,0.0,-1.2066,-1.5181,-1.628,-1.6789,-1.6789,-1.5599,-1.3957,-1.1881,0.0,0.0,0.0,0.0,0.0,0.0,0.0,0.0,0.0,0.0,0.0,0.0,0.0,0.0,0.0,0.0,0.0,0.0,0.0,0.0,0.0,0.0,0.0,0.0,0.0,0.0,0.0,0.0,0.0,0.0,0.0,0.0,0.0,0.0,0.0,0.0,0.0,0.0,0.0,0.0,0.0,0.0,0.0,0.0,0.0,0.0,0.0,0.0,0.0,0.0,0.0,0.0,0.0,0.0,0.0,0.0,0.0,0.0,0.0,0.0,0.0,0.0,0.0,0.0,0.0,0.0,0.0,0.0,0.0,0.0,0.0,0.0,0.0,0.0,0.0,0.0,0.0,0.0,0.0,0.0,0.0,0.0,0.0,0.0,0.0,0.0,0.0,0.0,0.0,0.0,0.0,0.0,0.0,0.0,0.0,0.0,0.0,0.0,0.0,0.0,0.0,0.0,0.0,-1.18,-1.323,-1.6022,-1.6453,-1.6528,-1.6528,-1.5805,-1.4345,-1.1939,-1.1256,0.0,0.0,0.0,0.0,0.0,0.0,0.0,0.0,0.0,0.0,0.0,0.0,0.0,0.0,0.0,0.0,0.0,0.0,0.0,0.0,0.0,0.0,0.0,0.0,0.0,0.0,0.0,0.0,0.0,0.0,0.0,0.0,0.0,0.0,0.0,0.0,0.0,0.0,0.0,0.0,0.0,0.0,0.0,0.0,0.0,0.0,0.0,0.0,0.0,0.0,0.0,0.0,0.0,0.0,0.0,0.0,0.0,0.0,0.0,0.0,0.0,0.0,0.0,0.0,0.0,0.0,0.0,0.0,0.0,0.0,0.0,0.0,0.0,0.0,0.0,0.0,0.0,0.0,0.0,0.0,0.0,0.0,0.0,0.0,0.0,0.0,0.0,0.0,0.0,0.0,0.0,0.0,0.0,0.0,0.0,0.0,0.0,0.0,0.0,0.0,0.0,0.0,-1.3293,-1.4327,-1.6453,-1.6448,-1.6301,-1.6301,-1.5695,-1.4303,-1.1939,-1.1118,0.0,0.0,0.0,0.0,0.0,0.0,0.0,0.0,0.0,0.0,0.0,0.0,0.0,0.0,0.0,0.0,0.0,0.0,0.0,0.0,0.0,0.0,0.0,0.0,0.0,0.0,0.0,0.0,0.0,0.0,0.0,0.0,0.0,0.0,0.0,0.0,0.0,0.0,0.0,0.0,0.0,0.0,0.0,0.0,0.0,0.0,0.0,0.0,0.0,0.0,0.0,0.0,0.0,0.0,0.0,0.0,0.0,0.0,0.0,0.0,0.0,0.0,0.0,0.0,0.0,0.0,0.0,0.0,0.0,0.0,0.0,0.0,0.0,0.0,0.0,0.0,0.0,0.0,0.0,0.0,0.0,0.0,0.0,0.0,0.0,0.0,0.0,0.0,0.0,0.0,0.0,0.0,0.0,0.0,0.0,0.0,0.0,0.0,0.0,0.0,0.0,0.0,-1.326,-1.4763,-1.62,-1.6313,-1.6301,-1.6301,-1.4845,-1.3331,-1.1895,-1.0244,0.0,0.0,0.0,0.0,0.0,0.0,0.0,0.0,0.0,0.0,0.0,0.0,0.0,0.0,0.0,0.0,0.0,0.0,0.0,0.0,0.0,0.0,0.0,0.0,0.0,0.0,0.0,0.0,0.0,0.0,0.0,0.0,0.0,0.0,0.0,0.0,0.0,0.0,0.0,0.0,0.0,0.0,0.0,0.0,0.0,0.0,0.0,0.0,0.0,0.0,0.0,0.0,0.0,0.0,0.0,0.0,0.0,0.0,0.0,0.0,0.0,0.0,0.0,0.0,0.0,0.0,0.0,0.0,0.0,0.0,0.0,0.0,0.0,0.0,0.0,0.0,0.0,0.0,0.0,0.0,0.0,0.0,0.0,0.0,0.0,0.0,0.0,0.0,0.0,0.0,0.0,0.0,0.0,0.0,0.0,0.0,0.0,0.0,0.0,0.0,0.0,0.0,-1.2637,-1.4035,0.0,-1.5983,-1.5983,-1.5983,-1.5014,-1.3675,-1.191,0.0,0.0,0.0,0.0,0.0,0.0,0.0,0.0,0.0,0.0,0.0,0.0,0.0,0.0,0.0,0.0,0.0,0.0,0.0,0.0,0.0,0.0,0.0,0.0,0.0,0.0,0.0,0.0,0.0,0.0,0.0,0.0,0.0,0.0,0.0,0.0,0.0,0.0,0.0,0.0,0.0,0.0,0.0,0.0,0.0,0.0,0.0,0.0,0.0,0.0,0.0,0.0,0.0,0.0,0.0,0.0,0.0,0.0,0.0,0.0,0.0,0.0,0.0,0.0,0.0,0.0,0.0,0.0,0.0,0.0,0.0,0.0,0.0,0.0,0.0,0.0,0.0,0.0,0.0,0.0,0.0,0.0,0.0,0.0,0.0,0.0,0.0,0.0,0.0,0.0,0.0,0.0,0.0,0.0,0.0,0.0,0.0,0.0,0.0,0.0,0.0,0.0,-1.1249,-1.2352,-1.3689,0.0,-1.5799,-1.5799,-1.5799,-1.4809,-1.3456,-1.1807,0.0,0.0,0.0,0.0,0.0,0.0,0.0,0.0,0.0,0.0,0.0,0.0,0.0,0.0,0.0,0.0,0.0,0.0,0.0,0.0,0.0,0.0,0.0,0.0,0.0,0.0,0.0,0.0,0.0,0.0,0.0,0.0,0.0,0.0,0.0,0.0,0.0,0.0,0.0,0.0,0.0,0.0,0.0,0.0,0.0,0.0,0.0,0.0,0.0,0.0,0.0,0.0,0.0,0.0,0.0,0.0,0.0,0.0,0.0,0.0,0.0,0.0,0.0,0.0,0.0,0.0,0.0,0.0,0.0,0.0,0.0,0.0,0.0,0.0,0.0,0.0,0.0,0.0,0.0,0.0,0.0,0.0,0.0,0.0,0.0,0.0,0.0,0.0,0.0,0.0,0.0,0.0,0.0,0.0,0.0,0.0,0.0,0.0,0.0,0.0,0.0,0.0,-1.1285,-1.2551,-1.3926,-1.562,-1.5799,-1.5799,-1.5799,-1.397,-1.2424,0.0,0.0,0.0,0.0,0.0,0.0,0.0,0.0,0.0,0.0,0.0,0.0,0.0,0.0,0.0,0.0,0.0,0.0,0.0,0.0,0.0,0.0,0.0,0.0,0.0,0.0,0.0,0.0,0.0,0.0,0.0,0.0,0.0,0.0,0.0,0.0,0.0,0.0,0.0,0.0,0.0,0.0,0.0,0.0,0.0,0.0,0.0,0.0,0.0,0.0,0.0,0.0,0.0,0.0,0.0,0.0,0.0,0.0,0.0,0.0,0.0,0.0,0.0,0.0,0.0,0.0,0.0,0.0,0.0,0.0,0.0,0.0,0.0,0.0,0.0,0.0,0.0,0.0,0.0,0.0,0.0,0.0,0.0,0.0,0.0,0.0,0.0,0.0,0.0,0.0,0.0,0.0,0.0,0.0,0.0,0.0,0.0,0.0,0.0,0.0,0.0,0.0,0.0,-1.0684,-1.2291,-1.3818,-1.5154,-1.5329,-1.5448,-1.577,-1.3919,-1.2384,-1.1563,0.0,0.0,0.0,0.0,0.0,0.0,0.0,0.0,0.0,0.0,0.0,0.0,0.0,0.0,0.0,0.0,0.0,0.0,0.0,0.0,0.0,0.0,0.0,0.0,0.0,0.0,0.0,0.0,0.0,0.0,0.0,0.0,0.0,0.0,0.0,0.0,0.0,0.0,0.0,0.0,0.0,0.0,0.0,0.0,0.0,0.0,0.0,0.0,0.0,0.0,0.0,0.0,0.0,0.0,0.0,0.0,0.0,0.0,0.0,0.0,0.0,0.0,0.0,0.0,0.0,0.0,0.0,0.0,0.0,0.0,0.0,0.0,0.0,0.0,0.0,0.0,0.0,0.0,0.0,0.0,0.0,0.0,0.0,0.0,0.0,0.0,0.0,0.0,0.0,0.0,0.0,0.0,0.0,0.0,0.0,0.0,0.0,0.0,0.0,0.0,0.0,0.0,-1.0438,-1.2113,-1.3628,-1.4746,-1.5013,-1.5195,-1.5507,-1.394,-1.2482,-1.1456,0.0,0.0,0.0,0.0,0.0,0.0,0.0,0.0,0.0,0.0,0.0,0.0,0.0,0.0,0.0,0.0,0.0,0.0,0.0,0.0,0.0,0.0,0.0,0.0,0.0,0.0,0.0,0.0,0.0,0.0,0.0,0.0,0.0,0.0,0.0,0.0,0.0,0.0,0.0,0.0,0.0,0.0,0.0,0.0,0.0,0.0,0.0,0.0,0.0,0.0,0.0,0.0,0.0,0.0,0.0,0.0,0.0,0.0,0.0,0.0,0.0,0.0,0.0,0.0,0.0,0.0,0.0,0.0,0.0,0.0,0.0,0.0,0.0,0.0,0.0,0.0,0.0,0.0,0.0,0.0,0.0,0.0,0.0,0.0,0.0,0.0,0.0,0.0,0.0,0.0,0.0,0.0,0.0,0.0,0.0,0.0,0.0,0.0,0.0,0.0,0.0,0.0,-1.0419,-1.1987,-1.3369,-1.4337,-1.4783,-1.5013,-1.5104,-1.3941,-1.2656,-1.1372,0.0,0.0,0.0,0.0,0.0,0.0,0.0,0.0,0.0,0.0,0.0,0.0,0.0,0.0,0.0,0.0,0.0,0.0,0.0,0.0,0.0,0.0,0.0,0.0,0.0,0.0,0.0,0.0,0.0,0.0,0.0,0.0,0.0,0.0,0.0,0.0,0.0,0.0,0.0,0.0,0.0,0.0,0.0,0.0,0.0,0.0,0.0,0.0,0.0,0.0,0.0,0.0,0.0,0.0,0.0,0.0,0.0,0.0,0.0,0.0,-0.3251,0.0,0.0,0.0,0.0,0.0,0.0,0.0,0.0,0.0,0.0,0.0,0.0,0.0,0.0,0.0,0.0,0.0,0.0,0.0,0.0,0.0,0.0,0.0,0.0,0.0,0.0,0.0,0.0,0.0,0.0,0.0,0.0,0.0,0.0,0.0,0.0,0.0,0.0,0.0,0.0,0.0,-0.9957,-1.1788,-1.3245,-1.3952,-1.4084,-1.4406,-1.5043,-1.355,-1.237,-1.1844,-1.007,0.0,0.0,0.0,0.0,0.0,0.0,0.0,0.0,0.0,0.0,0.0,0.0,0.0,0.0,0.0,0.0,0.0,0.0,0.0,0.0,0.0,0.0,0.0,0.0,0.0,0.0,0.0,0.0,0.0,0.0,0.0,0.0,0.0,0.0,0.0,0.0,0.0,0.0,0.0,0.0,0.0,0.0,0.0,0.0,0.0,0.0,0.0,0.0,0.0,0.0,0.0,0.0,0.0,0.0,0.0,0.0,0.0,0.0,0.0,0.0,-0.342,0.0,0.0,0.0,0.0,0.0,0.0,0.0,0.0,0.0,0.0,0.0,0.0,0.0,0.0,0.0,0.0,0.0,0.0,0.0,0.0,0.0,0.0,0.0,0.0,0.0,0.0,0.0,0.0,0.0,0.0,0.0,0.0,0.0,0.0,0.0,0.0,0.0,0.0,0.0,0.0,-1.0608,-1.236,-1.3749,-1.433,-1.4517,-1.4733,-1.5156,-1.3866,-1.2732,-1.2026,-1.0411,0.0,0.0,0.0,0.0,0.0,0.0,0.0,0.0,0.0,0.0,0.0,0.0,0.0,0.0,0.0,0.0,0.0,0.0,0.0,0.0,0.0,0.0,0.0,0.0,0.0,0.0,0.0,0.0,0.0,0.0,0.0,0.0,0.0,0.0,0.0,0.0,0.0,0.0,0.0,0.0,0.0,0.0,0.0,0.0,0.0,0.0,0.0,0.0,0.0,0.0,0.0,0.0,0.0,-0.4499,-0.4509,-0.455,-0.581,-0.6742,-0.7264,-0.6334,-0.4817,-0.3117,-0.415,0.0,0.0,0.0,0.0,0.0,0.0,0.0,0.0,0.0,0.0,0.0,0.0,0.0,0.0,0.0,0.0,0.0,0.0,0.0,0.0,0.0,0.0,0.0,0.0,-1.0137,-1.0158,0.0,0.0,0.0,0.0,0.0,0.0,0.0,0.0,0.0,0.0,0.0,0.0,-1.1588,-1.3116,-1.4336,-1.4955,-1.5069,-1.5162,-1.5332,-1.4265,-1.3214,-1.2245,-1.0926,-0.929,0.0,0.0,0.0,0.0,0.0,0.0,0.0,0.0,0.0,0.0,0.0,0.0,0.0,0.0,0.0,0.0,0.0,0.0,0.0,0.0,0.0,0.0,0.0,0.0,0.0,0.0,0.0,0.0,0.0,0.0,0.0,0.0,-0.1998,-0.253,0.0,0.0,0.0,0.0,0.0,0.0,0.0,0.0,0.0,0.0,0.0,0.0,0.0,-0.3463,-0.3463,-0.4021,-0.4361,-0.4515,-0.6939,-0.81,-0.8017,-0.5297,-0.5686,-0.8564,-0.8388,0.0,-0.2881,-0.452,0.0,0.0,0.0,0.0,0.0,0.0,0.0,0.0,0.0,0.0,0.0,0.0,0.0,0.0,0.0,0.0,0.0,0.0,0.0,0.0,0.0,0.0,-1.0804,-1.0658,-1.1035,-1.1644,0.0,-1.1028,-0.9658,-0.9667,-0.901,0.0,0.0,0.0,0.0,0.0,0.0,0.0,-1.2165,-1.3355,-1.447,-1.5494,-1.4792,-1.4598,-1.5399,-1.4132,-1.3148,-1.2894,-1.1938,-1.0797,-0.9516,-0.9077,0.0,0.0,0.0,0.0,0.0,0.0,0.0,0.0,0.0,0.0,0.0,0.0,0.0,0.0,0.0,0.0,0.0,0.0,0.0,0.0,0.0,0.0,0.0,0.0,0.0,0.0,0.0,0.0,0.0,-0.193,-0.2198,-0.2661,-0.2459,-0.1896,0.0,0.0,0.0,0.0,0.0,0.0,0.0,0.0,0.0,-0.3729,-0.3986,-0.4127,-0.4127,-0.5967,-0.6091,-0.4519,-0.7444,-0.8804,-0.8738,-0.7203,-0.7345,-0.8804,-0.8804,-0.7765,-0.618,-0.6955,-0.6425,-0.5018,0.0,0.0,0.0,0.0,-0.3751,-0.4825,-0.548,-0.8084,0.0,-0.9316,0.0,0.0,0.0,0.0,0.0,0.0,0.0,0.0,0.0,0.0,-1.1799,-1.1949,-1.2155,-1.2655,-1.3795,-1.2999,-1.2005,0.0,-1.1707,-1.1136,-0.9625,0.0,0.0,0.0,0.0,0.0,-1.3609,-1.4488,-1.5296,-1.6083,-1.5672,-1.5384,-1.5479,-1.4616,-1.3726,-1.3041,-1.2404,-1.1399,-0.9956,-0.9667,-0.8763,0.0,0.0,0.0,0.0,0.0,0.0,0.0,0.0,0.0,0.0,0.0,0.0,0.0,0.0,0.0,0.0,0.0,0.0,0.0,0.0,0.0,0.0,0.0,0.0,0.0,0.0,0.0,0.0,-0.2299,-0.251,-0.273,-0.2862,-0.2304,0.0,0.0,0.0,0.0,0.0,0.0,-0.4464,-0.5222,-0.5281,-0.4515,-0.5226,-0.5605,-0.5605,-0.7717,-0.7717,-0.5605,-0.7771,-0.8804,-0.8804,-0.8804,-0.8804,-0.8804,-0.8804,-0.8804,-0.8804,-0.8804,-0.8283,-0.7346,-0.6319,-0.5241,-0.4242,-0.4242,-0.5616,-0.7602,-0.8497,-1.0387,-1.195,-0.9569,-0.838,-0.7752,-0.7335,0.0,0.0,0.0,0.0,-1.0429,-1.1047,-1.1807,-1.248,-1.2803,-1.2881,-1.32,-1.4247,-1.4147,-1.3876,0.0,-1.3961,-1.3418,-1.1353,0.0,0.0,0.0,0.0,-1.337,-1.489,-1.5442,-1.5948,-1.6617,-1.6365,-1.5997,-1.5612,-1.4925,-1.4119,-1.3102,-1.2755,-1.1971,-1.0608,-1.0408,-0.9617,-0.8077,0.0,0.0,0.0,0.0,0.0,0.0,0.0,0.0,0.0,0.0,0.0,0.0,0.0,0.0,0.0,0.0,0.0,0.0,0.0,0.0,0.0,0.0,0.0,0.0,0.0,0.0,0.0,0.0,0.0,-0.3001,-0.3303,0.0,0.0,0.0,0.0,-0.349,-0.3534,-0.3852,-0.4484,-0.7122,-0.7337,-0.457,-0.7176,-0.8593,-0.8593,-0.8752,-0.8752,-0.8586,-0.8752,-0.8804,-0.8804,-0.8804,-0.8804,-0.8804,-0.8804,-0.8804,-0.8804,-0.8804,-0.8771,-0.8717,-0.8632,-0.8547,-0.8469,-0.8469,-0.856,-0.8724,-0.8784,-0.9718,-1.0669,-0.9263,-0.839,-0.7882,-0.7882,-0.8112,0.0,0.0,-1.0061,-1.1387,-1.1701,-1.2297,-1.2852,-1.2871,-1.2881,-1.3065,-1.3684,-1.3794,-1.4178,0.0,-1.479,-1.4047,-1.3896,0.0,-1.3283,-1.3846,-1.3972,-1.4412,-1.5505,-1.568,-1.61,-1.7164,-1.6337,-1.5734,-1.571,-1.4706,-1.3869,-1.322,-1.316,-1.2885,-1.2316,-1.1789,-1.096,-0.9805,-0.875,0.0,0.0,0.0,0.0,0.0,0.0,0.0,0.0,0.0,0.0,0.0,0.0,0.0,0.0,0.0,0.0,0.0,0.0,0.0,0.0,0.0,0.0,0.0,0.0,0.0,0.0,0.0,0.0,-0.3527,-0.3592,0.0,-0.3655,-0.3801,-0.3963,-0.4155,-0.4199,-0.4292,-0.4508,-0.5496,-0.555,-0.4515,-0.5496,-0.6902,-0.8804,-0.8804,-0.8804,-0.8804,-0.8804,-0.8804,-0.8804,-0.8804,-0.9218,-0.9893,-0.9138,-0.9239,-0.9933,-0.9933,-0.9492,-0.8844,-0.9225,-0.9372,-0.9372,-0.9372,-0.9372,-0.9372,-0.9372,-1.0163,-1.0988,-1.0038,-0.918,-0.849,-0.849,-0.9197,-0.9979,-1.0108,-1.1226,-1.2368,-1.2472,-1.2715,-1.2881,-1.2881,-1.2881,-1.3065,-1.3684,-1.3815,-1.4182,-1.5393,-1.5326,-1.4976,-1.4663,-1.4714,-1.4764,-1.4639,-1.4916,-1.5379,-1.6132,-1.622,-1.638,-1.6727,-1.646,-1.5939,-1.5235,-1.4828,-1.4199,-1.3261,-1.2872,-1.2422,-1.1902,-1.1337,-1.0508,-0.9415,-0.9025,-0.8085,0.0,0.0,0.0,0.0,0.0,0.0,0.0,0.0,0.0,0.0,0.0,0.0,0.0,0.0,0.0,0.0,0.0,0.0,0.0,0.0,0.0,0.0,0.0,0.0,0.0,0.0,-0.3609,-0.3826,-0.3883,-0.4022,-0.4306,-0.445,-0.4515,-0.4491,-0.4519,-0.4519,-0.4519,-0.4519,-0.4519,-0.4519,-0.5441,-0.7054,-0.9392,-0.9399,-0.9399,-0.9399,-0.9399,-0.9399,-0.9399,-0.9399,-0.982,-1.0577,-0.974,-0.984,-1.0624,-1.0624,-1.0027,-0.9232,-0.9559,-0.9806,-0.998,-0.998,-0.9893,-0.9773,-0.9706,-1.0168,-1.0675,-1.0214,-0.9632,-0.9105,-0.9105,-0.9882,-1.0817,-1.1072,-1.2032,-1.2938,-1.325,-1.3203,-1.3096,-1.3096,-1.2988,-1.3017,-1.342,-1.3515,-1.3779,-1.4812,-1.5309,-1.5548,-1.5461,-1.5731,-1.5856,-1.548,-1.5731,-1.6107,-1.6471,-1.6522,-1.6522,-1.6522,-1.6522,-1.6145,-1.5268,-1.5016,-1.4513,-1.3559,-1.2994,-1.2441,-1.1889,-1.1312,-1.0571,-0.9654,-0.9289,-0.8361,-0.6874,0.0,0.0,0.0,0.0,0.0,0.0,0.0,0.0,0.0,0.0,0.0,0.0,0.0,0.0,0.0,0.0,0.0,0.0,0.0,0.0,0.0,0.0,0.0,-0.3368,-0.3717,-0.3975,-0.3829,-0.4199,-0.4367,-0.4035,-0.4292,-0.4519,-0.4519,-0.4519,-0.4519,-0.4519,-0.4519,-0.4525,-0.4546,-0.722,-0.9293,-1.0611,-1.0624,-1.0624,-1.0624,-1.0624,-1.0624,-1.0624,-1.0624,-1.0624,-1.0624,-1.0624,-1.0624,-1.0624,-1.0624,-1.0403,-0.9973,-0.9786,-1.0053,-1.0611,-1.0618,-1.0383,-0.9967,-0.978,-0.9706,-0.9699,-0.9699,-0.9693,-0.9686,-0.9686,-1.0186,-1.085,-1.1615,-1.2355,-1.3086,-1.3863,-1.3776,-1.3525,-1.3525,-1.3213,-1.292,-1.292,-1.291,-1.3085,-1.3705,-1.4732,-1.5732,-1.638,-1.6479,-1.6522,-1.6522,-1.6522,0.0,-1.6522,-1.6522,-1.6522,-1.6522,-1.6522,-1.6296,-1.5743,-1.5191,-1.4676,-1.4123,-1.3521,-1.2935,-1.2429,-1.1876,-1.1312,-1.0706,-0.9654,-0.8575,-0.7481,0.0,0.0,0.0,0.0,0.0,0.0,0.0,0.0,0.0,0.0,0.0,0.0,0.0,0.0,0.0,0.0,0.0,0.0,0.0,0.0,0.0,0.0,-0.4195,-0.3775,-0.3985,-0.4209,-0.427,-0.444,-0.4474,-0.4367,-0.4453,-0.4519,-0.4519,-0.4519,-0.4519,-0.4519,-0.4519,-0.4721,-0.5164,-0.5923,-0.7714,-1.0555,-1.0624,-1.0624,-1.0624,-1.0624,-1.0624,-1.0624,-1.0624,-1.0624,-1.0624,-1.0624,-1.0624,-1.0624,-1.0624,-1.0557,-1.0456,-1.0341,-1.0287,-1.0267,-1.0481,-1.0557,-1.0456,-1.0403,-1.018,-1.0,-1.0,-0.986,-0.9686,-0.9686,-1.0186,-1.0736,-1.0956,-1.1911,-1.2977,-1.3195,-1.3553,-1.3965,-1.3965,-1.3877,-1.3789,-1.3789,-1.3555,-1.3521,-1.4125,-1.4275,-1.4641,-1.5676,-1.6194,-1.6522,-1.6522,-1.6522,0.0,-1.6522,-1.6522,-1.6522,-1.6522,-1.6522,-1.6296,-1.5743,-1.5191,-1.4676,-1.4123,-1.3157,-1.2534,-1.2416,-1.1876,-1.1312,-1.0706,-1.0031,-0.9529,0.0,0.0,0.0,0.0,0.0,0.0,0.0,0.0,0.0,0.0,0.0,0.0,0.0,0.0,0.0,0.0,0.0,0.0,0.0,0.0,0.0,0.0,-0.4292,-0.4436,-0.4206,-0.4246,-0.4368,-0.4508,-0.4519,-0.4514,-0.4582,-0.4538,-0.4565,-0.4634,-0.4777,-0.49,-0.49,-0.49,-0.5061,-0.5418,-0.5428,-0.6404,-0.8415,-0.9843,-1.0624,-1.0624,-1.0624,-1.0624,-1.0624,-1.0624,-1.0624,-1.0624,-1.0624,-1.0624,-1.0624,-1.0624,-1.0624,0.0,0.0,0.0,0.0,0.0,-1.0624,-1.0624,-1.0624,-1.0448,-1.0301,-1.0301,-1.0187,-1.0053,-1.0053,-1.034,-1.0744,-1.1086,-1.2017,-1.3006,-1.3357,-1.3914,-1.4404,-1.4404,-1.4268,-1.4077,-1.4077,-1.3945,-1.3814,-1.4013,-1.4045,0.0,-1.4755,-1.5555,-1.6194,-1.6479,-1.6522,-1.6522,-1.6522,-1.6522,-1.6522,-1.6522,-1.6522,-1.6384,-1.607,-1.553,0.0,0.0,0.0,-1.2893,-1.2429,-1.1876,0.0,0.0,0.0,0.0,0.0,0.0,0.0,0.0,-0.9303,-0.9516,0.0,0.0,0.0,0.0,0.0,0.0,0.0,0.0,0.0,0.0,0.0,0.0,0.0,0.0,0.0,0.0,-0.4519,-0.4519,-0.4519,-0.4519,-0.4519,-0.4519,-0.449,-0.4549,-0.466,-0.4622,-0.4634,-0.4825,-0.5186,-0.5428,-0.5428,0.0,0.0,0.0,0.0,-0.5428,-0.5428,-0.8479,-1.0231,-1.0624,-1.0624,-1.0624,-1.0624,-1.0759,-1.0819,-1.0819,-1.0708,-1.0688,-1.0688,-1.0668,-1.0719,-1.0648,-1.0651,-1.0624,-1.0624,-1.0624,-1.0624,-1.0624,-1.0624,0.0,0.0,-1.0624,-1.0624,-1.0624,-1.0624,-1.0624,-1.0744,-1.1469,-1.2266,-1.3,-1.3726,-1.4252,-1.4628,-1.4741,-1.4385,-1.4169,-1.4223,-1.4184,-1.4092,-1.373,-1.4033,-1.4278,-1.3926,-1.4766,-1.5688,-1.6194,-1.6337,-1.638,-1.638,-1.6479,-1.6522,-1.6522,0.0,0.0,-1.6522,-1.6019,-1.5492,-1.5029,-1.4488,-1.3745,-1.273,-1.2215,-1.1927,-1.1864,-1.1864,-1.1864,-1.1864,-1.2354,-1.263,-1.2642,-1.1086,-1.091,0.0,0.0,0.0,0.0,0.0,0.0,0.0,0.0,0.0,0.0,0.0,0.0,0.0,0.0,0.0,-0.4481,-0.4519,-0.4519,-0.4519,-0.4519,-0.4519,-0.4519,-0.4619,-0.4637,-0.4568,-0.4684,-0.4774,-0.4602,-0.5084,-0.5428,-0.5428,-0.5428,-0.5428,-0.5428,-0.5428,-0.5428,-0.5428,-0.6079,-0.7832,-1.0624,0.0,0.0,-1.0658,-1.1536,-1.1964,-1.1944,-1.163,-1.1496,-1.1483,-1.1323,-1.1263,-1.1209,-1.0742,-1.0624,-1.0624,-1.0624,-1.0624,-1.0624,-1.0624,-1.0624,-1.0624,-1.0624,-1.0624,-1.0624,-1.0624,-1.0624,0.0,-1.0807,-1.1413,-1.2081,-1.2197,-1.2821,-1.3502,-1.4155,-1.4277,-1.4338,-1.4984,-1.4902,-1.4639,-1.4551,-1.4356,-1.416,-1.425,-1.4628,-1.4926,-1.5017,-1.5466,-1.5764,-1.5764,-1.6194,-1.6522,-1.6522,-1.6522,-1.6522,-1.6522,-1.6019,-1.5643,-1.5542,-1.5054,-1.4664,-1.445,-1.4324,-1.406,-1.3619,-1.3607,-1.3607,-1.3607,-1.372,-1.3997,-1.4412,-1.3644,-1.3405,0.0,0.0,0.0,0.0,0.0,0.0,0.0,0.0,0.0,0.0,0.0,-0.1178,0.0,0.0,-0.4294,-0.446,-0.4581,-0.4632,-0.4632,-0.4652,-0.467,-0.4619,-0.4686,-0.4736,-0.4783,-0.4856,-0.4882,-0.4925,-0.5253,-0.5428,-0.5428,-0.5428,-0.5428,-0.5428,-0.5428,-0.5428,-0.5428,-0.5428,-0.6272,-0.8027,-0.8027,-0.8127,-0.8503,-1.1149,-1.1825,-1.1046,-1.1514,-1.1663,-1.1563,-1.1463,-1.1423,-1.1396,-1.1102,-1.0995,-1.0995,-1.0995,-1.0995,-1.0995,-1.0995,-1.0995,-1.0969,-1.0822,-1.0775,-1.0755,-1.0665,-1.0624,-1.0624,-1.0624,-1.1163,-1.1834,-1.1834,-1.2389,-1.313,-1.3485,-1.3606,-1.3734,-1.4085,-1.4354,-1.4448,-1.4242,-1.4323,-1.4424,-1.4274,-1.4181,-1.4244,-1.4651,-1.4971,-1.5276,-1.5543,-1.5864,-1.6194,-1.6466,-1.6522,-1.6522,-1.6522,-1.6019,-1.5693,-1.5693,-1.5218,-1.4916,-1.4916,-1.4916,-1.4777,-1.4513,-1.45,-1.45,-1.45,-1.4777,-1.5054,-1.5279,-1.5279,-1.5285,0.0,0.0,0.0,0.0,0.0,0.0,0.0,0.0,-0.3087,-0.1256,-0.0424,-0.0444,-0.1897,-0.2729,-0.3528,-0.4353,-0.4646,-0.4768,-0.4717,-0.4831,-0.4876,-0.4706,-0.4766,-0.4875,-0.5058,-0.5014,-0.5104,-0.5411,-0.5428,-0.5428,-0.5428,-0.5428,-0.5428,-0.5428,-0.5428,-0.5428,-0.5428,-0.5428,-0.5428,-0.5428,-0.542,-0.5701,-0.6325,-0.9916,-1.0863,-0.988,-1.1255,-1.1744,-1.1597,-1.1597,-1.1597,-1.1597,-1.1597,-1.1597,-1.1583,-1.147,-1.1286,-1.1142,-1.1354,-1.1142,-1.0823,-1.1015,-1.0903,-1.0679,-1.0651,-1.0665,-1.0624,-1.0624,-1.1045,-1.1593,-1.1593,-1.2027,-1.2581,-1.2704,-1.2765,-1.2826,-1.2948,-1.3494,-1.3936,-1.374,-1.4269,-1.4598,-1.4282,-1.3984,-1.3922,-1.437,-1.4488,-1.4698,-1.5174,-1.5443,-1.5776,-1.6281,-1.6423,-1.6522,-1.6522,-1.6107,-1.5856,-1.5856,-1.5442,-1.5191,-1.5191,-1.5191,-1.5191,-1.5191,-1.5191,-1.5191,-1.5191,-1.563,-1.5856,-1.5869,-1.6308,-1.6552,0.2875,0.146,0.0,0.0,0.0,0.0,0.0,0.0,-0.1166,-0.3511,-0.1864,-0.0055,-0.0276,-0.0388,-0.1335,-0.4039,-0.4532,-0.4615,-0.483,-0.4901,-0.4865,-0.4803,-0.4948,-0.5042,-0.5084,-0.5262,-0.5391,-0.5425,-0.5428,-0.5428,-0.5428,-0.5428,-0.5428,-0.5428,-0.5428,-0.5428,-0.5428,-0.5428,-0.5428,-0.5432,-0.5627,-0.5786,-0.5933,-0.7838,-0.9266,-1.0295,-1.1636,-1.2225,-1.2204,-1.2204,-1.2204,-1.2204,-1.2204,-1.2204,-1.2138,-1.1617,-1.0861,-1.0227,-1.1073,-1.0227,-0.9029,-1.0754,-1.0577,-0.9832,-1.0686,-1.0768,-1.0624,-1.0624,-1.0681,-1.0744,-1.0744,-1.0807,-1.1052,-1.1772,-1.195,-1.2143,-1.2818,-1.307,-1.3356,-1.3972,-1.4209,-1.4375,-1.4673,-1.4678,-1.4419,-1.3759,-1.381,-1.3909,-1.4003,-1.4949,-1.5632,-1.5676,-1.6194,-1.6522,-1.6522,-1.6459,-1.6421,-1.6421,-1.6371,-1.6333,-1.6333,-1.6333,-1.6333,-1.6333,-1.6333,-1.6333,-1.6333,-1.6396,-1.6421,-1.6421,-1.6497,-1.6756,0.3349,0.1743,0.0,0.0,0.0,0.0,0.0,0.0,-0.037,-0.161,-0.0897,0.0,0.0,0.0,-0.0392,0.0,-0.2617,-0.3571,-0.4719,-0.4979,-0.5001,-0.4966,-0.505,-0.5165,-0.5282,-0.5359,-0.5428,-0.5428,-0.5428,-0.5428,-0.5428,-0.5428,-0.5428,-0.5428,-0.5428,-0.5428,-0.5428,-0.5545,-0.5603,-0.5607,-0.5718,-0.5895,-0.6146,-0.7626,-0.8832,-0.975,-1.0276,-1.087,-1.1465,-1.1465,-1.1768,-1.2224,-1.1694,-1.1465,-1.1366,-1.1137,-1.0755,-1.0394,-1.0254,-0.9599,-0.9061,-0.9713,-0.9955,-1.0055,-1.0318,-1.0565,-1.0815,-1.0815,-1.0688,-1.0624,-1.0624,-1.0624,-1.0681,-1.1045,-1.1108,-1.117,-1.1538,-1.1965,-1.2381,-1.2749,-1.3174,-1.3673,-1.4347,-1.4249,-1.4147,-1.4253,-1.3919,-1.3657,-1.3763,-1.4226,-1.4812,-1.5531,-1.582,-1.6139,-1.6466,-1.6522,-1.6522,-1.6522,-1.6522,-1.6522,-1.6522,-1.6522,-1.6522,-1.6522,-1.6522,-1.6522,-1.6522,-1.6522,-1.6522,-1.6522,-1.6522,-1.6951,0.3574,0.0,0.0,0.0,0.0,0.0,0.0,0.0,0.0,0.0,0.0,0.0,0.0,0.0,0.0,0.0,-0.092,-0.206,-0.3372,-0.4473,-0.5061,-0.4939,-0.4917,-0.5051,-0.5216,-0.5315,-0.5428,-0.5428,-0.5428,-0.5386,-0.544,-0.5443,-0.5467,-0.5525,-0.5498,-0.5484,-0.5484,-0.5627,-0.5701,-0.5701,-0.5813,-0.5983,-0.6276,-0.76,-0.8456,-0.8922,-0.9145,-0.9744,-1.0415,-1.0415,-1.0795,-1.1397,-1.064,-1.0415,-1.034,-1.0034,-0.9959,-0.9884,-0.9442,-0.8922,-0.8514,-0.8872,-0.9212,-0.9641,-0.9967,-1.0361,-1.0749,-1.0943,-1.0842,-1.0661,-1.0645,-1.0624,-1.0624,-1.0624,-1.0624,-1.0624,-1.0624,-1.1045,-1.1531,-1.1772,-1.2266,-1.294,-1.3726,-1.3803,-1.3935,-1.4402,-1.414,-1.3807,-1.3713,-1.3768,-1.4272,-1.5487,-1.5588,-1.582,-1.6466,-1.6522,-1.6522,-1.6522,-1.6522,-1.6522,-1.6522,-1.6522,-1.6522,-1.6522,-1.6522,-1.6522,-1.6522,-1.6522,-1.6595,-1.671,-1.671,-1.7312,0.0,0.0,0.0,0.0,0.0,0.0,0.0,0.0,0.0,0.0,0.0,0.0,0.0,0.0,0.0,0.0,-0.0062,-0.0067,-0.0135,-0.3036,-0.4932,-0.4551,-0.4532,-0.4599,0.0,-0.5192,-0.5428,-0.5428,-0.5428,-0.5447,-0.557,-0.558,-0.5668,-0.5785,-0.5768,-0.5786,-0.5786,-0.5793,-0.5796,-0.58,-0.5949,-0.6027,-0.604,-0.7247,-0.7859,-0.7936,-0.8841,-0.9296,-0.9372,-0.9372,-0.9372,-0.9372,-0.9372,-0.9372,-0.9221,-0.8237,-0.7855,-0.8012,-0.8998,-0.8008,-0.6718,-0.8685,-0.8459,-0.7772,-0.9813,-1.0143,-1.0093,-1.0797,-1.0982,-1.0915,-1.0698,-1.0624,-1.0624,-1.0624,-1.0624,-1.0624,-1.0624,-1.0624,-1.0863,-1.1648,-1.1834,-1.2081,-1.2887,-1.3657,-1.4069,-1.369,-1.4298,-1.4443,-1.3645,-1.3675,-1.4272,-1.5487,-1.5588,-1.582,-1.6466,-1.6522,-1.6522,-1.6522,-1.6522,-1.6522,-1.6522,-1.6522,-1.6522,-1.6522,-1.6522,-1.6522,-1.6522,-1.6522,-1.6752,-1.7271,-1.7271,-1.7867,0.0,0.0,0.3077,0.3506,0.175,0.0,0.0,0.0,0.0,0.0,0.0,0.0,0.0,0.0,0.0,0.0,0.0,0.0,0.0,-0.1012,-0.2427,-0.4306,-0.4626,0.0,0.0,0.0,0.0,-0.5362,-0.5473,-0.5567,-0.5613,-0.5694,-0.5781,-0.5781,-0.582,-0.58,-0.58,-0.5901,-0.5952,-0.5956,-0.6108,-0.6183,-0.6186,-0.6615,-0.6795,-0.6795,-0.7176,-0.7706,-0.8313,-0.8313,-0.8694,-0.9221,-0.8542,-0.8313,-0.8161,-0.7176,-0.6795,-0.6872,-0.7173,-0.6872,-0.6412,-0.7099,-0.7435,-0.7757,-0.843,-0.9385,-1.0255,-1.053,-1.0936,-1.1256,-1.1156,-1.0995,-1.0848,-1.0848,-1.0701,-1.0624,-1.0624,-1.0624,-1.0681,-1.0926,-1.0982,-1.1233,-1.2081,-1.2879,-1.3604,-1.4327,-1.4134,-1.3828,-1.3545,-1.3323,-1.3505,-1.4318,-1.4778,-1.5231,-1.5864,-1.6281,-1.6522,-1.6522,-1.6522,-1.6522,-1.6522,-1.6522,-1.6522,-1.6522,-1.6522,-1.6522,-1.6522,-1.6879,-1.7105,-1.7312,-1.7666,-1.8224,0.1867,0.2872,0.4027,0.4854,0.3422,0.1425,0.0288,0.0,0.0,0.0,0.0,0.0,0.0,0.0,0.0,0.0,0.0,0.0,0.0,0.0,-0.0732,-0.2633,-0.4024,0.0,0.0,0.0,0.0,-0.5362,-0.5534,-0.5651,-0.5667,-0.5772,-0.5881,-0.5966,-0.5966,-0.5966,-0.5966,-0.6061,-0.6112,-0.6112,-0.6213,-0.6338,-0.6338,-0.6338,-0.6338,-0.6338,-0.6338,-0.6641,-0.7249,-0.7249,-0.7629,-0.8161,-0.748,-0.7249,-0.7173,-0.6567,-0.6338,-0.6338,-0.6338,-0.6338,-0.6338,-0.6338,-0.6718,-0.7326,-0.7706,-0.8815,-1.0087,-1.0359,-1.1006,-1.1557,-1.145,-1.1289,-1.1122,-1.1015,-1.0855,-1.0752,-1.0645,-1.0624,-1.0624,-1.0624,-1.0624,-1.0744,-1.1288,-1.2274,-1.3468,-1.4811,-1.4414,-1.3857,-1.3545,-1.3271,-1.3273,-1.3742,-1.4329,-1.4926,-1.5543,-1.6139,-1.6522,-1.6522,-1.6522,-1.6522,-1.6522,-1.6522,-1.6522,-1.6522,-1.6522,-1.6595,-1.6795,-1.7105,-1.7504,-1.7867,-1.8224,-1.865,0.523,0.412,0.3114,0.4222,0.4731,0.4094,0.0958,0.0112,0.0,0.0,0.0,0.0,0.0,0.0,0.0,0.0,0.0,0.0,0.0,0.0,0.0,0.0,0.0,0.0,0.0,0.0,0.0,-0.5382,0.0,-0.5644,-0.5806,-0.594,-0.6099,-0.6261,-0.6338,-0.6338,-0.6338,-0.6338,-0.6338,-0.6338,-0.6338,-0.6338,-0.6338,-0.6338,-0.6338,-0.6338,-0.6338,-0.6338,-0.6338,-0.6338,-0.6338,-0.6338,-0.6338,-0.6338,-0.6338,-0.6338,-0.6338,-0.6338,-0.6338,-0.6338,-0.6338,-0.6338,-0.6338,-0.649,-0.7403,-0.8389,-0.9401,-1.0059,-1.1006,-1.1682,-1.1474,-1.1388,-1.1308,-1.1102,-1.1015,-1.0915,-1.0705,-1.0631,-1.0624,-1.0624,-1.0624,-1.0624,-1.0681,-1.1965,-1.3554,-1.5167,-1.5068,-1.4512,-1.3682,-1.3535,-1.3591,-1.3757,-1.4351,-1.4926,-1.5499,-1.6151,-1.6522,-1.6522,-1.6522,-1.6522,-1.6522,-1.6522,-1.6522,-1.6552,-1.6552,-1.6795,-1.7353,-1.7394,-1.7907,-1.8893,-1.893,-1.9207,0.5342,0.4928,0.4587,0.4874,0.4796,0.4465,0.3787,0.1763,0.0,0.0,0.0,0.0,0.0,0.0,0.0,0.0,0.0,0.0,0.0,0.0,0.0,0.0,0.0,-0.1867,-0.3453,-0.4792,0.0,0.0,-0.5734,-0.5832,-0.5969,-0.6156,-0.6261,-0.6261,-0.6338,-0.6338,-0.6338,-0.6338,-0.6338,-0.6338,-0.6338,-0.6338,-0.6338,-0.6338,-0.6338,-0.6338,-0.6338,-0.6338,-0.6338,-0.6338,-0.6338,-0.6338,-0.6338,-0.6338,-0.6338,-0.6338,-0.6338,-0.6338,-0.6338,-0.6338,-0.6338,-0.6338,-0.6338,-0.6338,-0.6644,-0.7403,-0.8228,-0.8401,-0.921,-1.009,-1.076,-1.0815,-1.0793,-1.1517,-1.1309,-1.0969,-1.0902,-1.0715,-1.0624,-1.0624,-1.0624,-1.0996,-1.2158,-1.2704,-1.3554,-1.5167,-1.5322,-1.5059,-1.4531,-1.3906,-1.3508,-1.3591,-1.4275,-1.4744,-1.4926,-1.5876,-1.6522,-1.6522,-1.6522,-1.6522,-1.6522,-1.6522,-1.668,-1.7076,-1.7118,-1.7353,-1.7907,-1.8302,-1.8612,-1.8893,-1.9332,-1.9566,0.5348,0.5283,0.5137,0.5197,0.4927,0.471,0.4711,0.3293,0.162,0.028,0.0,0.0,0.0,0.0,0.0,0.0,0.0,0.0,0.0,0.0,0.0,0.0,0.0,0.0,-0.2914,-0.4845,-0.5937,0.0,-0.5885,-0.5925,-0.6027,-0.6176,-0.6338,-0.6338,-0.6338,-0.6338,-0.6338,-0.6338,-0.6338,-0.6338,-0.6338,-0.6338,-0.6338,-0.6338,-0.6338,-0.6338,0.0,-0.6338,-0.6338,-0.6338,-0.6338,-0.6338,-0.6338,-0.6338,-0.6338,-0.6338,-0.6338,-0.6338,-0.6338,-0.6338,-0.6338,-0.6338,-0.6338,-0.6338,-0.6338,-0.7022,-0.7783,-0.7783,-0.8542,-0.9448,-0.997,-1.0387,-1.0694,-1.1162,-1.1331,-1.1343,-1.1209,-1.0955,-1.0715,-1.0651,-1.0863,-1.1538,-1.2765,-1.3304,-1.3965,-1.5225,-1.541,-1.5322,-1.5088,-1.4482,-1.3994,-1.3809,-1.4456,-1.4886,-1.494,-1.5865,-1.6421,-1.6491,-1.6522,-1.6522,-1.6522,-1.6522,-1.6752,-1.7312,-1.7312,-1.7666,-1.8458,-1.8727,-1.9006,-1.9244,-1.9566,-1.969,0.5328,0.5286,0.5188,0.5341,0.5107,0.484,0.4478,0.4306,0.3384,0.06,0.0,0.0,0.0,0.0,-0.014,-0.0516,0.0,0.0,0.0,0.0,0.0,0.0,0.0,-0.0712,-0.2482,-0.4635,-0.5956,-0.5996,-0.6067,-0.6061,-0.6061,-0.6186,-0.6338,-0.6338,-0.6338,-0.6338,-0.6338,-0.6338,-0.6338,-0.6338,-0.6338,-0.6338,-0.6338,-0.6338,-0.6338,-0.6338,-0.6338,-0.6338,-0.6338,-0.6338,-0.6338,-0.6338,-0.6338,-0.6338,-0.6338,-0.6338,-0.6338,-0.6338,-0.6338,-0.6338,-0.6338,-0.6338,-0.6338,-0.6338,-0.6338,-0.6872,-0.7629,-0.7629,-0.8237,-0.8922,-0.9069,-0.9814,-1.0582,-1.0507,-1.1162,-1.1797,-1.1543,-1.1223,-1.0981,-1.0853,-1.138,-1.2081,-1.3,-1.3726,-1.4451,-1.5294,-1.541,-1.541,-1.541,-1.5049,-1.4639,-1.4258,-1.4755,-1.5171,-1.5415,-1.5961,-1.6414,-1.6616,-1.6559,-1.6522,-1.6522,-1.6522,-1.6795,-1.7394,-1.7435,-1.7947,-1.9006,-1.9006,-1.9244,-1.969,-1.969,-1.9735,0.535,0.5359,0.5322,0.5178,0.5043,0.475,0.4232,0.3307,0.0,0.0,0.0,0.0,0.0,0.0,0.0,-0.3311,0.0,0.0,0.0,0.0,0.0,0.0,0.0,0.0,0.0,0.0,0.0,0.0,0.0,-0.623,-0.622,-0.6247,-0.6338,-0.6338,-0.6338,-0.6338,-0.6338,-0.6338,-0.6338,-0.6338,-0.6338,-0.6338,-0.6338,-0.6338,-0.6338,-0.6338,-0.6338,0.0,-0.6338,-0.6338,-0.6338,-0.6338,-0.6338,-0.6338,-0.6338,-0.6338,-0.6338,-0.6338,-0.6338,-0.6338,-0.6338,-0.6338,-0.6338,-0.6338,-0.6338,-0.6416,-0.6567,-0.6567,-0.6721,-0.7022,-0.7859,-0.8841,-0.9734,-1.0507,-1.1301,-1.1857,-1.1804,-1.1369,-1.1166,-1.1804,-1.1825,-1.2258,-1.3726,-1.4094,-1.4451,-1.5294,-1.541,-1.541,-1.541,-1.5049,-1.4756,-1.4678,-1.4938,-1.535,-1.6003,-1.618,-1.657,-1.7192,-1.6785,-1.6522,-1.6522,-1.6522,-1.6951,-1.7947,-1.7947,-1.8496,-1.9566,-1.9566,-1.9603,-1.969,-1.969,-1.9989,0.5353,0.538,0.5356,0.5058,0.4857,0.4614,0.4328,0.0,0.0,0.0,0.0,0.0,0.0,0.0,0.0,0.0,0.0,0.0,0.0,0.0,0.0,0.0,0.0,0.0,0.0,0.0,0.0,0.0,0.0,-0.6281,-0.6264,-0.6338,-0.6268,-0.6278,-0.6268,-0.6264,-0.6271,-0.6264,-0.6338,-0.6338,-0.6338,-0.6338,-0.6338,-0.6338,-0.6338,-0.6338,-0.6338,0.0,-0.6338,-0.6338,-0.6338,-0.6338,-0.6338,-0.6338,-0.6338,-0.6338,-0.6338,-0.6338,-0.6338,-0.6338,-0.6338,-0.6338,-0.6338,-0.6338,-0.6338,-0.6338,-0.6338,-0.6338,-0.6338,-0.6412,-0.6872,-0.8161,-0.9448,-0.9895,-1.1077,-1.2051,-1.1904,-1.1868,-1.1961,-1.2166,-1.2672,-1.3295,-1.4085,-1.4569,-1.4932,-1.5352,-1.5748,-1.5979,-1.5979,-1.6115,-1.6092,-1.5721,-1.6124,-1.6574,-1.703,-1.71,-1.7183,-1.7368,-1.7124,-1.6835,-1.6522,-1.6522,-1.6993,-1.8066,-1.8106,-1.8612,-1.969,-2.0049,-2.0034,-1.9741,-2.0658,-2.1124,0.5276,0.5352,0.5315,0.5047,0.4793,0.4532,0.433,0.3782,0.0,0.0,0.0169,0.0,0.0,0.0,0.0,0.0,0.0,0.0,0.0,0.0,0.0,0.0,0.0,0.0,0.0,0.0,0.0,0.0,0.0,0.0,-0.6268,-0.5867,-0.5796,-0.6295,-0.5876,-0.5873,-0.6281,-0.6274,-0.6268,-0.6268,-0.6268,-0.6268,-0.6264,-0.6264,-0.6264,-0.6338,-0.6338,0.0,-0.6338,-0.6338,-0.6338,-0.6338,-0.6338,-0.6338,-0.6338,-0.6338,-0.6338,-0.6338,-0.6338,-0.6338,-0.6338,-0.6338,-0.6338,-0.6338,-0.6338,-0.6338,-0.6338,-0.6338,-0.6338,-0.6338,-0.6567,-0.7936,-0.9372,-0.9825,-1.1174,-1.2238,-1.2011,-1.2423,-1.2781,-1.2626,-1.3543,-1.4372,-1.446,-1.4991,-1.541,-1.541,-1.6036,-1.6492,-1.6492,-1.7302,-1.7633,-1.7034,-1.7357,-1.7747,-1.8029,-1.795,-1.7858,-1.7731,-1.7614,-1.735,-1.6898,-1.6992,-1.7512,-1.8479,-1.8613,-1.918,-2.0124,-2.0662,-2.0723,-2.0291,-2.1716,-2.2269,0.5057,0.5272,0.5375,0.5149,0.4982,0.4666,0.384,0.0,0.0,0.1714,0.0765,0.0,0.0,0.0,0.0,0.0,0.0,0.0,0.0,0.0,0.0,0.0,0.0,0.0,0.0,0.0,0.0,0.0,0.0,0.0,-0.621,-0.446,-0.4302,-0.6217,-0.4382,-0.4302,-0.6291,-0.6291,-0.6291,-0.6291,-0.6291,-0.6288,-0.6278,-0.6278,-0.6271,-0.6338,-0.6338,0.0,0.0,-0.6338,-0.6338,-0.6338,-0.6338,-0.6338,-0.6338,-0.6338,-0.6338,-0.6338,-0.6338,-0.6338,-0.6338,-0.6338,-0.6338,-0.6338,-0.6338,-0.6338,-0.6338,-0.6338,-0.6338,-0.649,-0.7403,-0.8466,-0.975,-1.1626,-1.215,-1.2291,-1.2271,-1.2813,-1.3324,-1.3709,-1.4319,-1.4943,-1.5234,-1.5352,-1.541,-1.541,-1.6036,-1.6492,-1.6492,-1.7743,-1.8555,-1.8501,-1.7961,-1.7884,-1.859,-1.8152,-1.8172,-1.8833,-1.8405,-1.8103,-1.8053,-1.8591,-1.9137,-1.9735,-2.033,-2.0951,-2.1515,-2.1575,-2.1803,-2.2152,-2.2335,-2.2954,0.4809,0.506,0.5156,0.4942,0.4782,0.4492,0.3902,0.0,0.2593,0.105,0.0349,0.0,0.0,0.0,0.0,0.0,-0.1207,-0.2597,0.0,0.0,0.0,0.0,0.0,0.0,0.0,0.0,0.0,0.0,0.0,0.0,-0.251,-0.2893,-0.2893,-0.251,-0.2893,-0.2891,-0.2504,-0.3756,-0.4384,-0.4384,-0.4384,-0.4382,-0.4457,-0.5721,-0.6278,-0.6271,-0.6264,0.0,0.0,-0.6338,-0.6338,-0.6338,-0.6338,-0.6338,-0.6338,-0.6338,-0.6338,-0.6338,-0.6338,-0.6338,-0.6338,-0.6338,-0.6338,-0.6338,-0.6338,-0.6338,-0.6338,-0.6338,-0.6718,-0.7326,-0.7706,-0.8988,-1.0571,-1.2003,-1.2305,-1.2305,-1.2305,-1.3199,-1.3974,-1.3891,-1.4817,-1.5546,-1.543,-1.541,-1.541,-1.541,-1.6415,-1.7146,-1.7146,-1.8447,-1.9371,-1.9371,-1.9097,-1.9044,-1.9319,-1.9175,-1.9031,-1.8995,-1.8819,-1.8722,-1.876,-1.895,-1.952,-2.05,-2.0766,-2.1167,-2.1695,-2.2099,-2.2319,-2.2412,-2.3579,-2.4308,0.4628,0.4797,0.4949,0.4776,0.4599,0.4356,0.0,0.0,0.2971,0.0843,0.0173,0.0,0.0,0.0,0.0,0.0,-0.143,-0.283,-0.3596,0.0,0.0,0.0,0.0,0.0,0.0,0.0,0.0,0.0,0.0,0.0,-0.0079,-0.1409,-0.1487,-0.0079,-0.1409,-0.1486,-0.0,-0.1487,-0.2189,-0.2189,-0.2189,-0.2188,-0.2266,-0.438,-0.5721,-0.6278,-0.6268,0.0,0.0,-0.6338,-0.6338,-0.6338,-0.6338,-0.6338,-0.6338,-0.6338,-0.6338,-0.6338,-0.6338,-0.6338,-0.6338,-0.6338,-0.6338,-0.6338,-0.6644,-0.6567,-0.6338,-0.6641,-0.7706,-0.8685,-0.8685,-0.9965,-1.1391,-1.215,-1.2305,-1.2378,-1.2666,-1.3765,-1.4643,-1.4371,-1.536,-1.6084,-1.5508,-1.541,-1.541,-1.541,-1.6631,-1.7578,-1.7578,-1.8874,-1.9798,-1.9798,-1.9798,-1.9798,-1.9798,-1.9798,-1.9737,-1.952,-1.9544,-1.9633,-1.9865,-2.0035,-2.0543,-2.1427,-2.1596,-2.1889,-2.2263,-2.2918,-2.3197,-2.3284,-2.4756,-2.5448,0.4501,0.4635,0.481,0.4691,0.4575,0.4364,0.0,0.3605,0.3159,0.1595,0.0603,0.0,0.0,0.0,0.0,0.0,-0.0041,-0.0969,-0.3636,0.0,0.0,0.0,0.0,0.0,0.0,0.0,0.0,0.0,0.0,0.0,-0.0,-0.0,-0.0,-0.0,-0.0,-0.0,-0.0,-0.0,-0.0,-0.0,-0.0,-0.0,-0.0078,-0.2187,-0.43,-0.6278,0.0,0.0,0.0,-0.6338,-0.6338,-0.6338,-0.6338,-0.6338,-0.6338,-0.6338,-0.6338,-0.6338,-0.6338,-0.6338,-0.6338,-0.6338,-0.6338,-0.649,-0.748,-0.7099,-0.649,-0.748,-0.921,-1.0783,-1.0783,-1.1539,-1.2298,-1.2305,-1.2305,-1.2519,-1.3455,-1.445,-1.5219,-1.5278,-1.6055,-1.6445,-1.5566,-1.541,-1.541,-1.541,-1.6631,-1.7578,-1.7578,-1.8874,-1.9798,-1.9798,-1.9798,-1.9798,-1.9798,-1.9798,-2.0093,-2.0746,-2.0795,-2.1064,-2.1635,-2.2331,-2.268,-2.268,-2.326,-2.358,-2.358,-2.4101,-2.4641,-2.5189,-2.5726,-2.6245,0.3883,0.4017,0.4103,0.3955,0.3968,0.3873,0.3378,0.332,0.3075,0.1873,0.1239,0.0704,0.0101,0.0,0.0,0.0,-0.0831,0.0,0.0,0.0,0.0,0.0,0.0,0.0,0.0,0.0,0.0,0.0,0.0,0.0,0.0,0.0,0.0,0.0,0.0,0.0,0.0,0.0,0.0,0.0,0.0,0.0,-0.0078,-0.2188,-0.4302,0.0,0.0,0.0,-0.6338,-0.6338,-0.6338,-0.6338,-0.6338,-0.6338,-0.6338,-0.6338,-0.6338,-0.6338,-0.6338,-0.6338,-0.6338,-0.6338,-0.6338,-0.6338,-0.6641,-0.7022,-0.7706,-0.9357,-1.0335,-1.0938,-1.162,-1.207,-1.2305,-1.2305,-1.2305,-1.2592,-1.3528,-1.4522,-1.5295,-1.5615,-1.6487,-1.6894,-1.6006,-1.6326,-1.6509,-1.6202,-1.7413,-1.8328,-1.8328,-1.9202,-1.9798,-1.9798,-2.0194,-2.0497,-2.0497,-2.0497,-2.0733,-2.139,-2.1438,-2.1724,-2.2346,-2.2603,-2.2875,-2.329,-2.3864,-2.4158,-2.4158,-2.4712,-2.5221,-2.5762,-2.6245,-2.6708,0.0,0.3602,0.369,0.3602,0.3602,0.3537,0.3245,0.3207,0.3026,0.2281,0.1986,0.1648,0.111,0.0471,0.0,0.0,-0.1706,0.0,0.0,0.0,0.0,0.0,0.0,0.0,0.0,0.0,0.0,0.0,0.0,0.0,0.0,0.0,0.0,0.0,0.0,0.0,0.0,0.0,0.0,0.0,0.0,0.0,-0.0079,-0.2189,-0.4304,0.0,0.0,-0.6338,0.0,-0.6338,-0.6338,-0.6338,-0.6338,-0.6338,-0.6338,-0.6338,-0.6338,-0.6338,-0.6338,-0.6338,-0.6338,-0.6338,-0.6567,-0.6872,-0.6872,-0.7553,-0.8613,-0.989,-1.0789,-1.1539,-1.215,-1.2305,-1.2305,-1.2305,-1.2592,-1.3098,-1.4027,-1.5021,-1.5896,-1.6398,-1.6825,-1.7091,-1.6818,-1.6855,-1.6995,-1.7223,-1.8087,-1.8715,-1.8715,-1.9359,-1.9901,-2.0144,-2.0547,-2.0993,-2.1465,-2.1259,-2.1403,-2.2053,-2.21,-2.2392,-2.3009,-2.3054,-2.3319,-2.3879,-2.4225,-2.4511,-2.4697,-2.5259,-2.5762,-2.6262,-2.6539,-2.6906,0.0,0.3405,0.0,0.0,0.3415,0.328,0.3261,0.3168,0.0,0.2673,0.2609,0.2616,0.2673,0.1325,0.014,0.0039,0.0,0.0,0.0,0.0,0.0,0.0,0.0,0.0,0.0,0.0,0.0,0.0,0.0,0.0,0.0,0.0,0.0,0.0,0.0,0.0,0.0,0.0,0.0,0.0,0.0,0.0,-0.0079,-0.2189,-0.4304,0.0,0.0,-0.6338,-0.6338,-0.6338,-0.6338,-0.6338,-0.6338,-0.6338,-0.6338,-0.6338,-0.6338,-0.6338,-0.6338,-0.6338,-0.6338,-0.6338,-0.6945,-0.7706,-0.7783,-0.8466,-0.9301,-0.9372,-1.072,-1.2224,-1.2298,-1.2305,-1.2298,-1.2372,-1.3098,-1.3954,-1.5092,-1.6,-1.6743,-1.7358,-1.7164,-1.7113,-1.7925,-1.7381,-1.7223,-1.8441,-1.8736,-1.8881,-1.8881,-1.9488,-2.0156,-2.0795,-2.0894,-2.1417,-2.2649,-2.2193,-2.2132,-2.2785,-2.2875,-2.3128,-2.3681,-2.3709,-2.3948,-2.443,-2.4511,-2.4792,-2.5297,-2.5815,-2.6262,-2.6691,-2.6691,-2.6956,0.2605,0.0,0.3039,0.2924,0.2954,0.2978,0.0,0.2933,0.2763,0.0,0.0,0.0,0.0,0.0,0.0,0.0,0.0,0.0,0.0,0.0,0.0,0.0,0.0,0.0,0.0,0.0,0.0,0.0,0.0,0.0,0.0,0.0,0.0,0.0,0.0,0.0,0.0,0.0,0.0,0.0,0.0,0.0,-0.0079,-0.2189,-0.4304,0.0,-0.6271,-0.6338,-0.6338,-0.6338,-0.6338,-0.6338,-0.6338,-0.6338,-0.6338,-0.6338,-0.6338,-0.6338,-0.6338,-0.6338,-0.6338,-0.6338,-0.649,-0.6795,-0.7553,-0.8466,-0.9448,-1.0265,-1.0789,-1.1316,-1.2077,-1.2305,-1.2445,-1.3164,-1.3528,-1.4163,-1.593,-1.6428,-1.6826,-1.7668,-1.8288,-1.8609,-1.8512,-1.9288,-1.9947,-1.9923,-2.0134,-2.0385,-2.0874,-2.0706,-2.0782,-2.1424,-2.1974,-2.2529,-2.3245,-2.3186,-2.336,-2.396,-2.4399,-2.4681,-2.4816,-2.4816,-2.4855,-2.5012,-2.5411,-2.5872,-2.635,-2.647,-2.659,-2.6691,-2.6691,-2.7425,0.2256,0.2551,0.2801,0.2788,0.2849,0.2854,0.2749,0.0,0.0,0.0,0.0,0.0,0.0,0.0,0.0,0.0,0.0,0.0,0.0,0.0,0.0,0.0,0.0,0.0,0.0,0.0,0.0,0.0,0.0,0.0,0.0,0.0,0.0,0.0,0.0,0.0,0.0,0.0,0.0,0.0,0.0,0.0,-0.0079,-0.2189,-0.4304,0.0,-0.6271,-0.6338,-0.6338,-0.6338,-0.6338,-0.6338,-0.6338,-0.6338,-0.6338,-0.6338,-0.6338,-0.6338,-0.6338,-0.6338,-0.6338,-0.6338,-0.6644,-0.7099,-0.7629,-0.8466,-0.9523,-1.0484,-1.1162,-1.162,-1.215,-1.2592,-1.3098,-1.36,-1.4378,-1.5296,-1.6367,-1.7257,-1.8007,-1.8519,-1.9131,-1.9672,-2.0072,-2.0419,-2.083,-2.1214,-2.1157,-2.1301,-2.1957,-2.1561,-2.1686,-2.2963,-2.3145,-2.3402,-2.397,-2.4217,-2.4491,-2.4768,-2.5028,-2.5221,-2.5221,-2.5221,-2.5335,-2.5577,-2.6068,-2.6436,-2.6691,-2.6691,-2.6691,-2.6708,-2.7046,-2.7887,0.2037,0.224,0.2493,0.2822,0.2932,0.2904,0.2742,0.0,0.0,0.0,0.0,0.0,0.0,0.0,0.0,0.0,0.0,0.0,0.0,0.0,0.0,0.0,0.0,0.0,0.0,0.0,0.0,0.0,0.0,0.0,0.0,0.0,0.0,0.0,0.0,0.0,0.0,0.0,0.0,0.0,0.0,0.0,-0.0079,-0.2189,-0.4304,-0.6295,0.0,0.0,-0.6338,-0.6338,-0.6338,-0.6338,-0.6338,-0.6338,-0.6338,-0.6338,-0.6338,-0.6338,-0.6338,-0.6412,-0.6567,-0.6567,-0.7176,-0.8084,-0.8237,-0.8841,-0.9744,-1.0932,-1.1613,-1.215,-1.2445,-1.3098,-1.3738,-1.4099,-1.5367,-1.6645,-1.6802,-1.8094,-1.9299,-1.9299,-1.9799,-2.0595,-2.167,-2.132,-2.118,-2.2243,-2.2072,-2.2027,-2.275,-2.2404,-2.2779,-2.4621,-2.4393,-2.4351,-2.4807,-2.5484,-2.5794,-2.5651,-2.5561,-2.5535,-2.561,-2.561,-2.5749,-2.6085,-2.6521,-2.6691,-2.6691,-2.6691,-2.6759,-2.6877,-2.752,-2.8371,0.1829,0.1507,0.1476,0.2694,0.3112,0.3149,0.2765,0.0,0.0,0.0,0.0,0.0,0.0,0.0,0.0,0.0,0.0,0.0,0.0,0.0,0.0,0.0,0.0,0.0,0.0,0.0,0.0,0.0,0.0,0.0,0.0,0.0,0.0,0.0,0.0,0.0,0.0,0.0,0.0,0.0,0.0,0.0,-0.0079,-0.2189,-0.4304,-0.6295,0.0,-0.6338,-0.6338,-0.6338,-0.6338,-0.6338,-0.6338,-0.6338,-0.6338,-0.6338,-0.6338,-0.6338,-0.6338,-0.6872,-0.7553,-0.7553,-0.8237,-0.9221,-1.011,-1.0484,-1.0932,-1.2785,-1.2191,-1.1385,-1.3084,-1.36,-1.4099,-1.579,-1.6349,-1.6853,-1.7579,-1.8586,-1.9299,-1.9299,-2.0523,-2.1658,-2.1865,-2.2311,-2.272,-2.294,-2.3077,-2.336,-2.4054,-2.4193,-2.4514,-2.5396,-2.5819,-2.6103,-2.6134,-2.7134,-2.7748,-2.765,-2.7115,-2.7011,-2.7375,-2.741,-2.716,-2.659,-2.6657,-2.6691,-2.6691,-2.6691,-2.7012,-2.7638,-2.7739,-2.8767,0.1713,0.1605,0.1493,0.1953,0.2633,0.3209,0.3204,0.0,0.0,0.0,0.0,0.0,0.0,0.0,0.0,0.0,0.0,0.0,0.0,0.0,0.0,0.0,0.0,0.0,0.0,0.0,0.0,0.0,0.0,0.0,0.0,0.0,0.0,0.0,0.0,0.0,0.0,0.0,0.0,0.0,0.0,0.0,-0.0079,-0.2189,-0.4304,-0.6295,0.0,-0.6338,-0.6338,-0.6338,-0.6338,-0.6338,-0.6338,-0.6338,-0.6338,-0.6949,-0.748,-0.7936,-0.7936,-0.8237,-0.8613,-0.8613,-0.9291,-1.019,-1.064,-1.1527,-1.2558,-1.3448,-1.3077,-1.2705,-1.4163,-1.4871,-1.55,-1.6419,-1.6991,-1.7628,-1.8519,-1.9365,-2.0139,-2.059,-2.1678,-2.2567,-2.2567,-2.2884,-2.3245,-2.3649,-2.3825,-2.4307,-2.5402,-2.532,-2.5663,-2.7035,-2.7088,-2.7172,-2.7454,-2.7981,-2.8411,-2.8586,-2.8289,-2.8216,-2.845,-2.845,-2.8281,-2.7943,-2.7926,-2.7926,-2.7926,-2.7926,-2.8112,-2.8467,-2.8873,-2.9619,0.1602,0.1797,0.1665,0.1117,0.0,0.2786,0.3297,0.0,0.0,0.0,0.0,0.0,0.0,0.0,0.0,0.0,0.0,0.0,0.0,0.0,0.0,0.0,0.0,0.0,0.0,0.0,0.0,0.0,0.0,0.0,0.0,0.0,0.0,0.0,0.0,0.0,0.0,0.0,0.0,-0.0,-0.1021,-0.1492,-0.1492,-0.3129,-0.4776,-0.6291,-0.6271,-0.6338,-0.6338,-0.6338,-0.6338,-0.6338,-0.6567,-0.6795,-0.7099,-0.7859,-0.8618,-0.9296,-0.9296,-0.9448,-0.9669,-0.9669,-1.0346,-1.1162,-1.1378,-1.2485,-1.381,-1.4235,-1.4378,-1.4593,-1.5305,-1.607,-1.6706,-1.7111,-1.7755,-1.8519,-1.9431,-2.0268,-2.1101,-2.1753,-2.2567,-2.3078,-2.3078,-2.3258,-2.3603,-2.4234,-2.4567,-2.5231,-2.6336,-2.622,-2.6648,-2.8306,-2.8155,-2.8237,-2.8994,-2.8935,-2.9042,-2.9495,-2.9536,-2.9431,-2.9245,-2.9245,-2.9161,-2.9011,-2.9011,-2.9011,-2.9011,-2.9011,-2.9076,-2.9262,-2.9837,-3.0384,0.148,0.181,0.1528,0.0393,0.076,0.0,0.2553,0.2303,0.0,0.0,0.0,0.0,0.0,0.0,0.0,0.0,0.0,0.0,0.0,0.0,0.0,0.0,0.0,0.0,0.0,0.0,0.0,0.0,0.0,0.0,0.0,0.0,0.0,0.0,0.0,0.0,0.0,0.0,0.0,-0.0079,-0.3936,-0.5849,-0.5846,-0.5973,-0.6119,-0.6278,-0.6268,-0.6338,-0.6338,-0.6338,-0.6338,-0.6416,-0.7326,-0.8237,-0.9074,-0.915,-0.9226,-0.9296,-0.9296,-0.9895,-1.0714,-1.0714,-1.1391,-1.2372,-1.3237,-1.36,-1.4099,-1.586,-1.6419,-1.6419,-1.6498,-1.6567,-1.7042,-1.869,-1.9166,-1.9431,-2.0333,-2.1175,-2.1815,-2.1877,-2.2567,-2.3078,-2.3078,-2.3708,-2.4234,-2.4292,-2.5453,-2.6404,-2.651,-2.7056,-2.77,-2.8415,-2.8965,-2.9724,-3.0891,-3.0493,-3.0419,-3.0999,-3.1038,-3.0734,-3.0057,-3.0023,-2.9702,-2.8991,-2.9011,-2.9011,-2.9011,-2.9011,-2.9347,-3.0023,-3.0091,-3.0463,0.0557,0.0668,0.0579,0.0108,0.0237,0.0,0.0,0.0,0.0,0.0,0.0,0.0,0.0,0.0,0.0,0.0,0.0,0.0,0.0,0.0,0.0,0.0,0.0,0.0,0.0,0.0,0.0,0.0,0.0,0.0,0.0,0.0,0.0,0.0,0.0,0.0,0.0,-0.2592,-0.3925,-0.3925,-0.5565,-0.6322,-0.6308,-0.6288,-0.6278,-0.6278,-0.6268,-0.6338,-0.6338,-0.6945,-0.7249,-0.7326,-0.8313,-0.9367,-1.0265,-1.0265,-1.0645,-1.1174,-1.1174,-1.1397,-1.1694,-1.1694,-1.2358,-1.3244,-1.36,-1.4522,-1.5649,-1.6419,-1.7001,-1.7501,-1.7501,-1.7501,-1.7765,-1.9034,-1.9299,-1.9694,-2.1101,-2.169,-2.2063,-2.2567,-2.2884,-2.3245,-2.3767,-2.4118,-2.4624,-2.5508,-2.6122,-2.6669,-2.7152,-2.7408,-2.781,-2.8431,-2.9361,-3.0309,-3.1151,-3.1015,-3.0975,-3.119,-3.119,-3.1072,-3.0801,-3.0784,-3.0649,-3.0362,-3.0362,-3.0362,-3.0362,-3.0362,-3.0497,-3.0784,-3.0784,-3.1057,0.0,0.0,0.0,0.0,0.0,0.0,0.2271,0.0,0.0,0.0,0.0,0.0,0.0,0.0,0.0,0.0,0.0,0.0,0.0,0.0,0.0,0.0,0.0,0.0,0.0,0.0,0.0,0.0,0.0,0.0,0.0,0.0,0.0,0.0,-0.108,-0.1734,-0.1676,-0.401,-0.5504,-0.6238,-0.619,-0.6257,-0.6291,-0.6278,-0.6274,-0.6274,-0.6264,-0.649,-0.6795,-0.748,-0.8161,-0.8836,-0.9518,-1.0415,-1.1236,-1.1236,-1.1916,-1.2732,-1.2732,-1.2945,-1.3237,-1.3237,-1.3665,-1.4243,-1.4522,-1.5508,-1.6636,-1.6922,-1.7501,-1.8076,-1.8337,-1.8395,-1.8721,-1.9814,-2.0139,-2.0526,-2.1939,-2.2261,-2.2445,-2.3005,-2.3305,-2.3649,-2.4234,-2.4681,-2.5342,-2.6336,-2.6721,-2.7034,-2.7524,-2.7625,-2.7894,-2.8685,-2.9848,-3.074,-3.1151,-3.119,-3.119,-3.119,-3.119,-3.119,-3.119,-3.119,-3.119,-3.119,-3.119,-3.119,-3.119,-3.119,-3.119,-3.119,-3.119,-3.1351,0.0,0.0,0.0,0.0,0.0,0.0,0.0,0.0,0.0,0.0,0.0,0.0,0.0,0.0,0.0,0.0,0.0,0.0,0.0,0.0,0.0,0.0,0.0,0.0,0.0,0.0,0.0,0.0,0.0,0.0,0.0,-0.0,-0.0068,-0.007,-0.3511,-0.5351,-0.5419,-0.3638,-0.3823,-0.5969,-0.5969,-0.6125,-0.6278,-0.6268,-0.6338,-0.6338,-0.6338,-0.6872,-0.7783,-0.7859,-0.8988,-1.0789,-1.0783,-1.1465,-1.2298,-1.2298,-1.2952,-1.3745,-1.3745,-1.4386,-1.5234,-1.5234,-1.5234,-1.5376,-1.6349,-1.6636,-1.6784,-1.7725,-1.8008,-1.8202,-1.911,-1.9299,-1.9748,-2.1491,-2.1877,-2.2125,-2.2944,-2.3078,-2.3078,-2.3138,-2.3767,-2.4292,-2.435,-2.5508,-2.651,-2.651,-2.7137,-2.7625,-2.7625,-2.7625,-2.8076,-2.9271,-3.0477,-3.119,-3.119,-3.119,-3.119,-3.119,-3.119,-3.119,-3.119,-3.119,-3.119,-3.119,-3.119,-3.119,-3.119,-3.119,-3.119,-3.119,-3.119,-3.119,0.0,0.0,0.0,0.0,0.0,0.0,0.0,0.0,0.0,0.0,0.0,0.0,0.0,0.0,0.0,0.0,0.0,0.0,0.0,0.0,0.0,0.0,0.0,0.0,0.0,0.0,0.0,0.0,0.0,0.0,0.0,-0.2424,-0.3792,-0.3823,-0.3608,-0.4099,-0.5395,-0.4987,-0.5121,-0.5813,-0.583,-0.601,-0.6268,-0.6264,-0.6338,-0.6338,-0.7022,-0.7553,-0.7936,-0.9362,-1.0714,-1.1916,-1.2565,-1.3011,-1.3382,-1.4091,-1.4522,-1.4736,-1.4736,-1.495,-1.5234,-1.5234,-1.5658,-1.621,-1.6498,-1.707,-1.7647,-1.794,-1.8462,-1.911,-2.0009,-2.0655,-2.1239,-2.1753,-2.1877,-2.2125,-2.2944,-2.3078,-2.3245,-2.3826,-2.4118,-2.4624,-2.5673,-2.6229,-2.6669,-2.7203,-2.7458,-2.7625,-2.7625,-2.7625,-2.8076,-2.9271,-2.9717,-3.0293,-3.1151,-3.119,-3.119,-3.119,-3.119,-3.119,-3.119,-3.119,-3.119,-3.119,-3.119,-3.119,-3.119,-3.119,-3.119,-3.119,-3.119,-3.1351,0.0,0.0,0.0,0.0,0.0,0.0,0.0,0.0,0.0,0.0,0.0,0.0,0.0,0.0,0.0,0.0,0.0,0.0,0.0,0.0,0.0,0.0,0.0,0.0,0.0,0.0,0.0,0.0,0.0,0.0,0.0,-0.35,-0.4651,-0.5406,-0.4367,-0.4295,-0.5389,-0.5538,-0.5812,-0.6145,-0.6231,-0.6554,-0.7116,-0.6889,-0.6805,-0.6945,-0.8385,-0.8983,-0.9135,-1.0714,-1.1768,-1.2372,-1.331,-1.3673,-1.381,-1.4807,-1.5446,-1.579,-1.579,-1.6009,-1.6298,-1.6298,-1.6724,-1.7139,-1.7139,-1.7569,-1.8076,-1.8395,-1.8911,-1.9562,-2.0782,-2.1491,-2.2002,-2.2322,-2.2384,-2.2506,-2.3017,-2.3365,-2.3708,-2.4234,-2.4794,-2.5453,-2.6336,-2.6721,-2.71,-2.7509,-2.7625,-2.7625,-2.7625,-2.781,-2.8222,-2.895,-2.9451,-3.0038,-3.0797,-3.1055,-3.119,-3.119,-3.119,-3.119,-3.119,-3.119,-3.119,-3.119,-3.119,-3.119,-3.119,-3.119,-3.119,-3.119,-3.119,-3.1312,0.0,0.0,0.0,0.0,0.0,0.0,0.0,0.0,0.0,0.0,0.0,0.0,0.0,0.0,0.0,0.0,0.0,0.0,0.0,0.0,0.0,0.0,0.0,0.0,0.0,0.0,0.0,0.0,0.0,0.0,0.0,-0.383,-0.3689,-0.5326,-0.5382,-0.5442,-0.5505,-0.5495,-0.6022,-0.698,-0.698,-0.7486,-0.8383,-0.7812,-0.772,-0.8134,-1.0002,-1.084,-1.1013,-1.1922,-1.2305,-1.2372,-1.3455,-1.3818,-1.3954,-1.5021,-1.6009,-1.6706,-1.6706,-1.7285,-1.8008,-1.8008,-1.8008,-1.8008,-1.8008,-1.8008,-1.8202,-1.9044,-1.9365,-1.9814,-2.1491,-2.1939,-2.2187,-2.2944,-2.3078,-2.3138,-2.3185,-2.3767,-2.435,-2.4452,-2.5563,-2.651,-2.6616,-2.7152,-2.7625,-2.7625,-2.7625,-2.7625,-2.7625,-2.8091,-2.8415,-2.8415,-2.9406,-3.0107,-3.0251,-3.074,-3.1055,-3.1095,-3.1112,-3.1151,-3.119,-3.119,-3.119,-3.119,-3.119,-3.119,-3.119,-3.119,-3.119,-3.119,-3.119,-3.119,0.0,0.0,0.0,0.0,0.0,0.0,0.0,0.0,0.0,0.0,0.0,0.0,0.0,0.0,0.0,0.0,0.0,0.0,0.0,0.0,0.0,0.0,0.0,0.0,0.0,0.0,0.0,0.0,0.0,0.0,-0.5399,-0.5046,-0.497,-0.5382,-0.5372,-0.5756,-0.64,-0.6396,-0.6872,-0.7771,-0.7771,-0.795,-0.824,-0.8238,-0.8811,-0.9829,-1.0266,-1.1046,-1.1996,-1.2224,-1.2305,-1.2445,-1.4235,-1.4879,-1.5092,-1.6793,-1.751,-1.7716,-1.7716,-1.7862,-1.8008,-1.8008,-1.8008,-1.8008,-1.8008,-1.8008,-1.8202,-1.9044,-1.9814,-2.059,-2.1628,-2.2384,-2.2884,-2.3078,-2.3078,-2.3245,-2.3884,-2.4176,-2.4624,-2.5783,-2.6283,-2.6669,-2.7255,-2.7509,-2.7625,-2.7625,-2.7625,-2.7625,-2.7625,-2.771,-2.781,-2.781,-2.8042,-2.8701,-2.9978,-2.9892,-2.9995,-3.0477,-3.0477,-3.0699,-3.119,-3.119,-3.119,-3.119,-3.119,-3.119,-3.119,-3.119,-3.119,-3.119,-3.119,-3.119,0.0,0.0,0.0,0.0,0.0,0.0,0.0,0.0,0.0,0.0,0.0,0.0,0.0,0.0,0.0,0.0,0.0,0.0,0.0,0.0,0.0,0.0,0.0,0.0,0.0,0.0,0.0,0.0,0.0,-0.5393,-0.5386,-0.5376,-0.5369,-0.5369,-0.5818,-0.6268,-0.6719,-0.7111,-0.7767,-0.8619,-0.8619,-0.8879,-0.9342,-0.916,-0.9735,-1.0866,-1.1351,-1.2009,-1.2806,-1.3221,-1.3524,-1.3803,-1.5296,-1.586,-1.6009,-1.7442,-1.8008,-1.8008,-1.8008,-1.8008,-1.8008,-1.8008,-1.8008,-1.8008,-1.8008,-1.8269,-1.8787,-1.9694,-2.0526,-2.1428,-2.2261,-2.2763,-2.3198,-2.3603,-2.3649,-2.3767,-2.4234,-2.4851,-2.5563,-2.6336,-2.6774,-2.7152,-2.7509,-2.7625,-2.7625,-2.7625,-2.7625,-2.7625,-2.7625,-2.7625,-2.7625,-2.7625,-2.7625,-2.7944,-2.8795,-2.9027,-2.939,-3.0107,-3.0251,-3.0559,-3.119,-3.119,-3.119,-3.119,-3.119,-3.119,-3.119,-3.119,-3.119,-3.119,-3.119,-3.119,0.0,0.0,0.0,0.0,0.0,0.0,0.0,0.0,0.0,0.0,0.0,0.0,0.0,0.0,0.0,0.0,0.0,0.0,0.0,0.0,0.0,0.0,0.0,0.0,0.0,0.0,0.0,0.0,0.0,-0.5376,-0.5376,-0.5432,-0.5491,-0.562,-0.6334,-0.685,-0.7177,-0.7897,-0.8678,-0.953,-0.953,-0.9913,-1.0575,-1.0365,-1.0727,-1.1614,-1.2289,-1.2946,-1.3454,-1.4183,-1.4722,-1.5143,-1.6184,-1.6636,-1.6706,-1.7647,-1.8008,-1.8008,-1.8008,-1.8008,-1.8008,-1.8008,-1.8008,-1.8008,-1.8212,-1.8721,-1.9497,-2.0526,-2.1365,-2.2075,-2.2884,-2.3078,-2.3305,-2.4118,-2.4408,-2.4509,-2.4624,-2.5618,-2.6563,-2.6669,-2.7203,-2.7625,-2.7625,-2.7625,-2.7625,-2.7625,-2.7625,-2.7625,-2.7625,-2.7625,-2.7625,-2.7625,-2.7625,-2.7625,-2.7625,-2.8207,-2.8934,-2.9745,-3.0021,-3.0477,-3.119,-3.119,-3.119,-3.119,-3.119,-3.119,-3.119,-3.119,-3.123,-3.1291,-3.123,-3.1291,0.0,0.0,0.0,0.0,0.0,0.0,0.0,0.0,0.0,0.0,0.0,0.0,0.0,0.0,0.0,0.0,0.0,0.0,0.0,0.0,0.0,0.0,0.0,0.0,0.0,0.0,0.0,0.0,-0.5379,-0.5372,-0.5432,-0.5428,-0.5752,-0.6527,-0.6654,-0.7437,-0.8941,-0.9075,-0.9594,-1.0428,-1.0428,-1.0491,-1.0624,-1.1241,-1.1731,-1.213,-1.2195,-1.2841,-1.3856,-1.4291,-1.4506,-1.4717,-1.6078,-1.6636,-1.6706,-1.7647,-1.8008,-1.8008,-1.8008,-1.8008,-1.8008,-1.8008,-1.8008,-1.8134,-1.8921,-1.9233,-1.9628,-2.1302,-2.1815,-2.2075,-2.2884,-2.3078,-2.3305,-2.4118,-2.4794,-2.5453,-2.6068,-2.6336,-2.6669,-2.7306,-2.7509,-2.7625,-2.7625,-2.7625,-2.7625,-2.7625,-2.7625,-2.7625,-2.7625,-2.7625,-2.7625,-2.7625,-2.7625,-2.7625,-2.7625,-2.771,-2.8125,-2.8934,-2.93,-3.0038,-3.1151,-3.119,-3.119,-3.119,-3.119,-3.119,-3.119,-3.119,-3.1389,-3.1733,-3.1351,-3.1582,0.0,0.0,0.0,0.0,0.0,0.0,0.0,0.0,0.0,0.0,0.0,0.0,0.0,0.0,0.0,0.0,0.0,0.0,0.0,0.0,0.0,0.0,0.0,0.0,0.0,0.0,0.0,0.0,-0.5372,-0.5432,-0.5428,-0.5881,-0.6334,-0.6719,-0.7632,-0.8549,-0.9274,-0.9786,-1.0238,-1.0624,-1.0624,-1.0863,-1.1288,-1.1648,-1.1847,-1.2044,-1.2913,-1.3751,-1.4499,-1.5113,-1.5522,-1.5833,-1.6721,-1.7024,-1.712,-1.7775,-1.8008,-1.8008,-1.8008,-1.8008,-1.8008,-1.8008,-1.8337,-1.8787,-1.9177,-2.0009,-2.091,-2.169,-2.2199,-2.2628,-2.3017,-2.3078,-2.3305,-2.4266,-2.4951,-2.5728,-2.6878,-2.71,-2.7188,-2.7524,-2.7625,-2.7625,-2.7625,-2.7625,-2.7625,-2.7625,-2.7625,-2.7625,-2.7625,-2.7625,-2.7625,-2.7625,-2.7625,-2.7625,-2.7625,-2.8222,-2.8764,-2.9118,-2.9629,-3.0293,-3.1151,-3.119,-3.119,-3.119,-3.119,-3.119,-3.119,-3.119,-3.1411,-3.1789,-3.164,-3.1878,0.0,0.0,0.0,0.0,0.0,0.0,0.0,0.0,0.0,0.0,0.0,0.0,0.0,0.0,0.0,0.0,0.0,0.0,0.0,0.0,0.0,0.0,0.0,0.0,0.0,0.0,0.0,0.0,-0.5627,-0.5752,-0.5752,-0.6527,-0.7111,-0.7372,-0.8619,-0.9402,-0.9658,-1.0301,-1.0624,-1.0624,-1.0807,-1.1226,-1.1826,-1.2197,-1.2443,-1.2504,-1.3657,-1.4496,-1.5093,-1.5824,-1.626,-1.6621,-1.7168,-1.7383,-1.7432,-1.7852,-1.8008,-1.8008,-1.8008,-1.8008,-1.8008,-1.8008,-1.8462,-1.9044,-1.9497,-2.0526,-2.1678,-2.2075,-2.2641,-2.3078,-2.3078,-2.3305,-2.3682,-2.4584,-2.5273,-2.6054,-2.7291,-2.7625,-2.7625,-2.7625,-2.7625,-2.7625,-2.7625,-2.7625,-2.7625,-2.7625,-2.7625,-2.7625,-2.7625,-2.7625,-2.7625,-2.7625,-2.7625,-2.7625,-2.7625,-2.8996,-2.9848,-2.9848,-3.0123,-3.0559,-3.119,-3.119,-3.119,-3.119,-3.119,-3.119,-3.119,-3.119,-3.1411,-3.1789,-3.1789,-3.2127,0.0,0.0,0.0,0.0,0.0,0.0,0.0,0.0,0.0,0.0,0.0,0.0,0.0,0.0,0.0,0.0,0.0,0.0,0.0,0.0,0.0,0.0,0.0,0.0,0.0,0.0,0.0,0.0,-0.6141,-0.6654,-0.6654,-0.7437,-0.8291,-0.9139,-0.9274,-0.9722,-1.0491,-1.0561,-1.0624,-1.0624,-1.1344,-1.1772,-1.1834,-1.3356,-1.4085,-1.4085,-1.4154,-1.4647,-1.542,-1.5889,-1.6135,-1.6243,-1.7041,-1.7383,-1.7432,-1.7852,-1.8008,-1.8008,-1.8008,-1.8008,-1.8008,-1.8008,-1.8008,-1.8405,-2.0009,-2.059,-2.0974,-2.2567,-2.3078,-2.3078,-2.3078,-2.38,-2.4641,-2.5217,-2.5892,-2.6669,-2.7408,-2.7625,-2.7625,-2.7625,-2.7625,-2.7625,-2.7625,-2.7625,-2.7625,-2.7625,-2.7625,-2.7625,-2.7625,-2.7625,-2.7625,-2.7625,-2.7625,-2.7625,-2.7625,-2.9745,-3.1112,-3.1112,-3.0617,-3.0559,-3.119,-3.119,-3.119,-3.119,-3.119,-3.119,-3.119,-3.119,-3.1411,-3.1789,-3.1789,-3.2298,0.0,0.0,0.0,0.0,0.0,0.0,0.0,0.0,0.0,0.0,0.0,0.0,0.0,0.0,0.0,0.0,0.0,0.0,0.0,0.0,0.0,0.0,0.0,0.0,0.0,0.0,0.0,0.0,0.0,-0.6427,-0.6917,-0.7777,-0.8387,-0.8702,-0.9426,-1.0285,-1.1344,-1.1903,-1.2151,-1.2151,-1.2458,-1.281,-1.3356,-1.3965,-1.451,-1.4991,-1.4991,-1.5108,-1.542,-1.5586,-1.5644,-1.5703,-1.6299,-1.6709,-1.7012,-1.7451,-1.7773,-1.8008,-1.8008,-1.8405,-1.8721,-1.8202,-1.8977,-2.0257,-2.0526,-2.1353,-2.231,-2.2944,-2.3078,-2.3078,-2.3078,-2.3859,-2.4854,-2.5892,-2.6654,-2.7306,-2.756,-2.7625,-2.7625,-2.7625,-2.7625,-2.7625,-2.7625,-2.7625,-2.7625,-2.7625,-2.7625,-2.7625,-2.7625,-2.7625,-2.7625,-2.7625,-2.7625,-2.7625,-2.7625,-2.9789,-3.119,-3.119,-3.1015,-3.0975,-3.119,-3.119,-3.119,-3.119,-3.119,-3.119,-3.119,-3.119,-3.1411,-3.1789,-3.1789,-3.2127,0.0,0.0,0.0,0.0,0.0,0.0,0.0,0.0,0.0,0.0,0.0,0.0,0.0,0.0,0.0,0.0,0.0,0.0,0.0,0.0,0.0,0.0,0.0,0.0,0.0,0.0,0.0,0.0,0.0,0.0,-0.7532,-0.8586,-0.9279,-0.9504,-1.0238,-1.11,-1.1973,-1.2526,-1.2893,-1.3009,-1.3243,-1.3666,-1.4213,-1.451,-1.4864,-1.541,-1.541,-1.541,-1.541,-1.541,-1.541,-1.5459,-1.5889,-1.625,-1.6582,-1.7168,-1.7559,-1.789,-1.8287,-1.8844,-1.9365,-1.8977,-2.0257,-2.1916,-2.1542,-2.2249,-2.3078,-2.3078,-2.3078,-2.3078,-2.3078,-2.4079,-2.5412,-2.6602,-2.7255,-2.7625,-2.7625,-2.7625,-2.7625,-2.7625,-2.7625,-2.7625,-2.7625,-2.7625,-2.7625,-2.7625,-2.7625,-2.7625,-2.7625,-2.7625,-2.7625,-2.7625,-2.7625,-2.7625,-2.7625,-2.9569,-3.0781,-3.0781,-3.1055,-3.119,-3.119,-3.119,-3.119,-3.119,-3.119,-3.119,-3.119,-3.119,-3.1351,-3.1603,-3.1716,-3.2196,0.0,0.0,0.0,0.0,0.0,0.0,0.0,0.0,0.0,0.0,0.0,0.0,0.0,0.0,0.0,0.0,0.0,0.0,0.0,0.0,0.0,0.0,0.0,0.0,0.0,0.0,0.0,0.0,-0.7924,-0.8393,-0.8451,-0.9893,-1.0989,-1.1655,-1.1711,-1.1955,-1.2397,-1.2464,-1.2637,-1.3053,-1.3837,-1.4195,-1.4273,-1.505,-1.541,-1.541,-1.541,-1.541,-1.541,-1.541,-1.541,-1.5459,-1.5879,-1.6115,-1.6223,-1.7031,-1.7363,-1.7629,-1.8878,-1.9475,-1.9857,-2.0451,-2.1729,-2.3078,-2.3078,-2.3078,-2.3078,-2.3078,-2.3078,-2.3138,-2.3185,-2.4684,-2.6347,-2.7342,-2.7625,-2.7625,-2.7625,-2.7625,-2.7625,-2.7625,-2.7625,-2.7625,-2.7625,-2.7625,-2.7625,-2.7625,-2.7625,-2.7625,-2.7625,-2.7625,-2.7625,-2.7625,-2.7625,-2.7625,-2.771,-2.9102,-3.0021,-3.0005,-3.0781,-3.119,-3.119,-3.119,-3.119,-3.119,-3.119,-3.119,-3.119,-3.119,-3.119,-3.119,-3.1603,-3.244,0.0,0.0,0.0,0.0,0.0,0.0,0.0,0.0,0.0,0.0,0.0,0.0,0.0,0.0,0.0,0.0,0.0,0.0,0.0,0.0,0.0,0.0,0.0,0.0,0.0,0.0,0.0,0.0,-0.8233,-0.8823,-0.9381,-1.028,-1.0979,-1.1399,-1.1952,-1.2412,-1.275,-1.336,-1.3849,-1.4316,-1.4544,-1.4764,-1.505,-1.5294,-1.541,-1.541,-1.541,-1.541,-1.541,-1.541,-1.541,-1.542,-1.5537,-1.5781,-1.6154,-1.64,-1.7249,-1.8317,-1.8689,-1.9602,-2.0719,-2.1037,-2.2051,-2.3078,-2.3078,-2.3078,-2.3078,-2.3078,-2.3078,-2.3577,-2.5795,-2.624,-2.6347,-2.7342,-2.7625,-2.7625,-2.7625,-2.7625,-2.7625,-2.7625,-2.7625,-2.7625,-2.7625,-2.7625,-2.7625,-2.7625,-2.7625,-2.7625,-2.7625,-2.7625,-2.7625,-2.7625,-2.7625,-2.8304,-3.0064,-2.9805,-2.9935,-3.0821,-3.1095,-3.119,-3.119,-3.119,-3.119,-3.119,-3.119,-3.119,-3.119,-3.119,-3.119,-3.119,-3.1331,-3.2111,0.0,-0.0511,0.0,0.0,0.0,0.0,0.0,0.0,0.0,0.0,0.0,0.0,0.0,0.0,0.0,0.0,0.0,0.0,0.0,0.0,0.0,0.0,0.0,0.0,0.0,-0.7052,-0.78,-0.8508,-0.9214,-0.9879,-1.0618,-1.1015,-1.1429,-1.197,-1.2406,-1.2824,-1.3162,-1.3604,-1.4092,-1.4512,-1.4697,-1.4912,-1.5156,-1.5332,-1.541,-1.541,-1.541,-1.541,-1.541,-1.541,-1.541,-1.541,-1.5748,-1.6024,-1.6335,-1.6804,-1.7549,-1.833,-1.9054,-1.992,-2.0783,-2.1105,-2.2077,-2.3185,-2.3872,-2.4034,-2.4034,-2.4034,-2.4469,-2.5412,-2.7122,-2.7174,-2.6849,-2.7458,-2.7625,-2.7625,-2.7625,-2.7625,-2.7625,-2.7625,-2.7625,-2.7625,-2.7625,-2.7625,-2.7625,-2.7625,-2.8432,-2.9102,-2.9102,-2.9102,-2.9102,-2.9102,-2.8207,-2.8575,-3.0998,-3.0251,-2.9978,-3.0781,-3.1055,-3.119,-3.119,-3.119,-3.119,-3.119,-3.119,-3.119,-3.119,-3.119,-3.119,-3.119,-3.1217,-3.2117,0.0,0.0,-0.0325,0.0,0.0,0.0,-0.2867,-0.2869,0.0,0.0,0.0,0.0,0.0,0.0,0.0,0.0,0.0,0.0,0.0,0.0,0.0,0.0,0.0,0.0,-0.7717,-0.8435,-0.911,-0.9858,-1.0517,-1.1216,-1.1873,-1.1922,-1.2236,-1.2968,-1.292,-1.3155,-1.363,-1.3488,-1.3643,-1.4116,-1.4508,-1.4668,-1.4727,-1.5146,-1.5342,-1.5342,-1.5391,-1.5468,-1.5526,-1.5526,-1.5526,-1.5584,-1.6255,-1.6539,-1.6761,-1.7853,-1.814,-1.8185,-1.9634,-2.0229,-2.0394,-2.0847,-2.175,-2.3022,-2.4649,-2.5287,-2.5437,-2.5577,-2.6587,-2.7625,-2.7625,-2.7625,-2.7625,-2.7625,-2.7625,-2.7625,-2.7625,-2.7625,-2.766,-2.7944,-2.7795,-2.7625,-2.7625,-2.7625,-2.7625,-2.7625,-2.9657,-3.119,-3.119,-3.119,-3.119,-3.119,-2.93,-2.8888,-3.1015,-3.0559,-3.0192,-3.0393,-3.0878,-3.119,-3.119,-3.119,-3.119,-3.119,-3.119,-3.123,-3.1252,-3.123,-3.1207,-3.1185,-3.1369,-3.2444,0.0,0.0,-0.0239,-0.124,0.0,0.0,0.0,-0.2727,0.0,0.0,0.0,0.0,0.0,0.0,0.0,0.0,0.0,0.0,0.0,0.0,0.0,0.0,0.0,0.0,-0.8429,-0.9169,-0.985,-1.0559,-1.1216,-1.1922,-1.2666,-1.2666,-1.2997,-1.3589,-1.3152,-1.3375,-1.4471,-1.3514,-1.3442,-1.4336,-1.3949,-1.3936,-1.4277,-1.4707,-1.4902,-1.4932,-1.5264,-1.5758,-1.6265,-1.6265,-1.6265,-1.6322,-1.6436,-1.6866,-1.7424,-1.7634,-1.8395,-1.9303,-1.9598,-2.0128,-2.0692,-2.1224,-2.0966,-2.0825,-2.3055,-2.4587,-2.5796,-2.6842,-2.7408,-2.7625,-2.7625,-2.7625,-2.7625,-2.7625,-2.7625,-2.7625,-2.7625,-2.7625,-2.8158,-3.0107,-2.8934,-2.7625,-2.7625,-2.7625,-2.7625,-2.7625,-2.9657,-3.119,-3.119,-3.119,-3.119,-3.119,-3.0781,-3.0699,-3.1151,-3.1055,-3.0975,-3.1015,-3.1134,-3.119,-3.119,-3.119,-3.119,-3.119,-3.119,-3.1351,-3.1696,-3.1351,-3.1196,-3.1227,-3.2444,-3.3415,0.0,0.0,-0.0263,-0.1459,0.0,0.0,0.0,0.0,0.0,0.0,0.0,0.0,0.0,0.0,0.0,0.0,0.0,0.0,0.0,0.0,0.0,0.0,0.0,0.0,-0.9221,-1.0202,-1.1074,-1.1792,-1.2463,-1.2948,-1.3324,-1.361,-1.3931,-1.4236,-1.3978,-1.4071,-1.4698,-1.4107,-1.4037,-1.4536,-1.4444,-1.4487,-1.4716,-1.5185,-1.5519,-1.5802,-1.6032,-1.6475,-1.7034,-1.7034,-1.7246,-1.7578,-1.7578,-1.7852,-1.8167,-1.8555,-1.9107,-1.9682,-1.9682,-1.9961,-2.0288,-2.0552,-2.065,-2.1017,-2.2546,-2.4234,-2.5809,-2.6797,-2.7081,-2.7156,-2.7535,-2.7625,-2.7625,-2.7625,-2.7625,-2.7625,-2.7625,-2.8528,-2.9745,-3.0975,-3.0234,-2.939,-2.939,-2.939,-2.939,-2.939,-3.0418,-3.119,-3.119,-3.119,-3.119,-3.119,-3.119,-3.119,-3.119,-3.119,-3.119,-3.119,-3.119,-3.119,-3.119,-3.119,-3.119,-3.119,-3.119,-3.1466,-3.195,-3.2685,-3.284,-3.2496,-3.3713,-3.4883,0.0,0.0,0.0,0.0,0.0,-0.2901,0.0,0.0,0.0,-0.321,0.0,0.0,0.0,0.0,0.0,0.0,0.0,0.0,0.0,0.0,0.0,0.0,0.0,0.0,-0.9921,-1.1086,-1.2205,-1.2997,-1.3434,-1.3719,-1.3946,-1.4422,-1.4744,-1.488,-1.4744,-1.4789,-1.5017,-1.4846,-1.4744,-1.488,-1.509,-1.5185,-1.5196,-1.5648,-1.6081,-1.6521,-1.671,-1.7129,-1.7662,-1.7752,-1.8232,-1.8886,-1.8768,-1.8768,-1.898,-1.9579,-1.9798,-1.9798,-1.9798,-1.9798,-1.9798,-1.9952,-2.0809,-2.1938,-2.2519,-2.3952,-2.554,-2.6063,-2.6363,-2.6692,-2.7445,-2.7625,-2.7625,-2.7625,-2.7625,-2.771,-2.8207,-2.9832,-3.119,-3.119,-3.119,-3.119,-3.119,-3.119,-3.119,-3.119,-3.119,-3.119,-3.119,-3.119,-3.119,-3.119,-3.119,-3.119,-3.119,-3.119,-3.119,-3.119,-3.119,-3.119,-3.119,-3.119,-3.119,-3.119,-3.1291,-3.1723,-3.2388,-3.4044,-3.4464,-3.3897,-3.5119,-3.6399,0.0,0.0,0.0,0.0,-0.189,0.0,0.0,0.0,-0.3159,-0.3011,0.0,0.0,0.0,0.0,0.0,0.0,0.0,0.0,0.0,0.0,0.0,0.0,0.0,0.0,0.0,-1.1397,-1.2507,-1.3622,-1.3312,-1.3542,-1.4562,-1.4652,-1.4971,-1.5499,-1.4971,-1.5197,-1.6293,-1.5242,-1.4971,-1.5499,-1.4983,-1.4787,-1.4799,-1.5185,-1.5392,-1.5541,-1.641,-1.719,-1.7906,-1.8366,-1.898,-1.9592,-1.898,-1.9097,-1.9695,-1.9747,-1.9798,-1.9798,-1.9798,-1.9798,-1.9901,-2.0497,-2.1554,-2.2612,-2.2658,-2.3639,-2.4701,-2.4837,-2.5555,-2.6546,-2.74,-2.7625,-2.7625,-2.7625,-2.7625,-2.8207,-3.0335,-3.1015,-3.119,-3.119,-3.119,-3.119,-3.119,-3.119,-3.119,-3.119,-3.119,-3.119,-3.119,-3.119,-3.119,-3.119,-3.119,-3.119,-3.119,-3.119,-3.119,-3.119,-3.119,-3.119,-3.119,-3.119,-3.119,-3.119,-3.1731,-3.251,-3.3526,-3.4163,-3.4476,-3.4553,-3.6506,-3.754,0.0,0.0,0.0,0.0,0.0,0.0,-0.297,0.0,-0.2854,0.0,0.0,0.0,0.0,0.0,0.0,0.0,0.0,0.0,0.0,0.0,0.0,0.0,0.0,0.0,0.0,0.0,0.0,0.0,-1.3117,-1.3659,-1.469,-1.5401,-1.5876,-1.6095,-1.5876,-1.5976,-1.6522,-1.602,-1.5876,-1.6139,-1.5876,-1.5744,-1.5756,-1.5927,-1.619,-1.6525,-1.6967,-1.7653,-1.8559,-1.878,-1.9267,-1.9798,-1.9876,-1.9876,-1.9798,-1.9798,-1.9798,-1.9798,-1.9798,-2.0055,-2.0547,-2.1561,-2.2267,-2.2754,-2.3113,-2.3614,-2.4148,-2.4672,-2.4762,-2.5166,-2.7081,-2.7625,-2.7625,-2.7625,-2.7625,-2.8255,-3.0699,-3.119,-3.119,-3.119,-3.119,-3.119,-3.119,-3.119,-3.119,-3.119,-3.119,-3.119,-3.119,-3.119,-3.119,-3.119,-3.119,-3.119,-3.119,-3.119,-3.119,-3.119,-3.119,-3.119,-3.119,-3.119,-3.119,-3.119,-3.2412,-3.3407,-3.423,-3.6005,-3.6667,-3.6309,-3.7189,-3.7824,0.0,0.0,0.0,0.0,0.0,0.0,0.0,0.0,0.0,0.0,0.0,0.0,0.0,0.0,-0.3132,-0.3088,0.0,-0.3127,0.0,0.0,0.0,0.0,0.0,0.0,0.0,0.0,0.0,0.0,0.0,-1.3511,-1.4803,-1.5775,-1.6401,-1.671,-1.671,-1.6795,-1.6951,-1.6951,-1.6951,-1.6951,-1.6795,-1.671,-1.671,-1.6552,-1.6748,-1.7149,-1.7313,-1.792,-1.8821,-1.9126,-1.9568,-2.0126,-2.0766,-2.0769,-2.032,-2.032,-2.032,-2.032,-2.032,-2.0769,-2.1465,-2.2314,-2.2785,-2.3024,-2.3465,-2.3595,-2.3729,-2.4403,-2.4118,-2.4044,-2.5989,-2.7559,-2.8575,-2.8575,-2.8575,-2.9073,-3.0821,-3.119,-3.119,-3.119,-3.119,-3.119,-3.119,-3.119,-3.119,-3.119,-3.119,-3.119,-3.119,-3.119,-3.119,-3.119,-3.119,-3.119,-3.119,-3.119,-3.119,-3.119,-3.119,-3.119,-3.119,-3.119,-3.1426,-3.1876,-3.3244,-3.4531,-3.572,-3.7497,-3.8175,-3.7826,-3.7826,-3.8138,0.0,0.0,0.0,0.0,0.0,0.0,0.0,0.0,-0.3493,0.0,0.0,0.0,0.0,-0.3449,-0.3252,-0.3105,-0.3082,0.0,0.0,0.0,0.0,0.0,0.0,0.0,0.0,0.0,0.0,0.0,-1.1856,-1.2782,-1.4886,-1.5447,-1.6191,-1.7258,-1.7271,-1.7504,-1.8027,-1.8066,-1.8066,-1.8027,-1.7504,-1.7271,-1.7271,-1.6752,-1.6522,-1.6572,-1.7137,-1.769,-1.8324,-1.9476,-2.0268,-2.0845,-2.1442,-2.1649,-2.1649,-2.1649,-2.1649,-2.1649,-2.1649,-2.2053,-2.2603,-2.2466,-2.292,-2.3551,-2.3595,-2.3595,-2.361,-2.364,-2.3625,-2.3625,-2.3714,-2.741,-3.1095,-3.1095,-3.1095,-3.1112,-3.119,-3.119,-3.119,-3.119,-3.119,-3.119,-3.119,-3.119,-3.119,-3.119,-3.119,-3.119,-3.119,-3.119,-3.119,-3.119,-3.119,-3.119,-3.119,-3.119,-3.119,-3.119,-3.119,-3.119,-3.119,-3.119,-3.1948,-3.3595,-3.4246,-3.5897,-3.8566,-3.7881,-3.7918,-3.867,-3.867,-3.8689,0.0,0.0,0.0,0.0,0.0,0.0,0.0,0.0,0.0,0.0,0.0,0.0,0.0,-0.3453,-0.3256,-0.3105,-0.3042,-0.2909,0.0,0.0,0.0,0.0,0.0,0.0,0.0,0.0,0.0,0.0,-1.1092,0.0,-1.4277,-1.5562,-1.6558,-1.7286,-1.7626,-1.7907,-1.8106,-1.8106,-1.8106,-1.8106,-1.7907,-1.7827,-1.7827,-1.7626,-1.7544,-1.7558,-1.7759,-1.8163,-1.875,-1.9581,-2.0288,-2.0909,-2.1967,-2.2346,-2.23,-2.1852,-2.1697,-2.1744,-2.2193,-2.2498,-2.274,-2.3098,-2.3377,-2.3595,-2.3595,-2.3595,-2.3595,-2.3595,-2.4601,-2.564,-2.564,-2.8427,-3.119,-3.119,-3.119,-3.119,-3.119,-3.119,-3.119,-3.119,-3.119,-3.119,-3.119,-3.119,-3.119,-3.119,-3.119,-3.119,-3.119,-3.119,-3.119,-3.119,-3.119,-3.119,-3.119,-3.119,-3.119,-3.119,-3.2264,-3.2916,-3.2916,-3.3239,-3.3721,-3.428,-3.5457,-3.6497,-3.7453,-3.8016,-3.8432,-3.8707,-3.8707,-3.8707,0.0,0.0,0.0,-0.1336,-0.1607,0.0,-0.2812,0.0,0.0,0.0,0.0,0.0,0.0,-0.3695,-0.3317,-0.3414,-0.3257,-0.3174,0.0,-0.3788,0.0,0.0,0.0,0.0,0.0,0.0,-0.8368,-0.9361,-1.0277,0.0,0.0,-1.5261,-1.6557,-1.7289,-1.8034,-1.8496,-1.865,-1.865,-1.865,-1.865,-1.8496,-1.838,-1.838,-1.8185,-1.8106,-1.8106,-1.8106,-1.8407,-1.8985,-1.988,-2.0599,-2.1239,-2.2541,-2.3009,-2.2965,-2.2515,-2.2363,-2.2455,-2.3098,-2.3172,-2.3098,-2.3465,-2.3595,-2.3752,-2.4496,-2.4681,-2.4681,-2.4681,-2.5693,-2.6691,-2.6691,-2.8924,-3.119,-3.119,-3.119,-3.119,-3.119,-3.119,-3.119,-3.119,-3.1466,-3.1562,-3.1252,-3.1466,-3.1562,-3.1269,-3.119,-3.119,-3.119,-3.175,-3.1878,-3.1269,-3.119,-3.1449,-3.2074,-3.1562,-3.119,-3.119,-3.2533,-3.3465,-3.3768,-3.4299,-3.486,-3.5361,-3.6324,-3.7033,-3.7471,-3.829,-3.8707,-3.8707,-3.8707,-3.8707]}]]